[[{"header":{"parameterUnit":"m.s-1","parameterCategory":1,"la1":31.0,"la2":29.5877,"lo1":-88.7671,"lo2":-86.6584,"dy":0.0162,"dx":0.0185,"nx":115,"ny":88,"refTime":"2023-08-11T18:00:00:Z","depth":0,"parameterNumber":2,"parameterNumberName":"U-component_of_WINDS"},"data":[0.0,0.0,0.0,0.0,0.0,0.0,0.0,0.0,0.0,0.0,0.0,0.0,0.0,0.0,0.0,0.0,0.0,0.0,0.0,0.0,0.0,0.0,0.0,0.0,0.0,0.0,0.0,0.0,0.0,0.0,0.0,0.0,0.0,0.0,0.0,0.0,0.0,0.0,0.0,0.0,0.0,0.0,0.0,0.0,0.0,0.0,0.0,0.0,0.0,0.0,0.0,0.0,0.0,0.0,0.0,0.0,0.0,0.0,0.0,0.0,0.0,0.0,0.0,0.0,0.0,0.0,0.0,0.0,0.0,0.0,0.0,0.0,0.0,0.0,0.0,0.0,0.0,0.0,0.0,0.0,0.0,0.0,0.0,0.0,0.0,0.0,0.0,0.0,0.0,0.0,0.0,0.0,0.0,0.0,0.0,0.0,0.0,0.0,0.0,0.0,0.0,0.0,0.0,0.0,0.0,0.0,0.0,0.0,0.0,0.0,0.0,0.0,0.0,0.0,0.0,0.0,0.0,0.0,0.0,0.0,0.0,0.0,0.0,0.0,0.0,0.0,0.0,0.0,0.0,0.0,0.0,0.0,0.0,0.0,0.0,0.0,0.0,0.0,0.0,0.0,0.0,0.0,0.0,0.0,0.0,0.0,0.0,0.0,0.0,0.0,0.0,0.0,0.0,0.0,0.0,0.0,0.0,0.0,0.0,0.0,0.0,0.0,0.0,0.0,0.0,0.0,0.0,0.0,0.0,0.0,0.0,0.0,0.0,0.0,0.0,0.0,0.0,0.0,0.0,0.0,0.0,0.0,0.0,0.0,0.0,0.0,0.0,0.0,0.0,0.0,0.0,0.0,0.0,0.0,0.0,0.0,0.0,0.0,0.0,0.0,0.0,0.0,0.0,0.0,0.0,0.0,0.0,0.0,0.0,0.0,0.0,0.0,0.0,0.0,0.0,0.0,0.0,0.0,0.0,0.0,0.0,0.0,0.0,0.0,0.0,0.0,0.0,0.0,0.0,0.0,0.0,0.0,0.0,0.0,0.0,0.0,0.0,0.0,0.0,0.0,0.0,0.0,0.0,0.0,0.0,0.0,0.0,0.0,0.0,0.0,0.0,0.0,0.0,0.0,0.0,0.0,0.0,0.0,0.0,0.0,0.0,0.0,0.0,0.0,0.0,0.0,0.0,0.0,0.0,0.0,0.0,0.0,0.0,0.0,0.0,0.0,0.0,0.0,0.0,0.0,0.0,0.0,0.0,0.0,0.0,0.0,0.0,0.0,0.0,0.0,0.0,0.0,0.0,0.0,0.0,0.0,0.0,0.0,0.0,0.0,0.0,0.0,0.0,0.0,0.0,0.0,0.0,0.0,0.0,0.0,0.0,0.0,0.0,0.0,0.0,0.0,0.0,0.0,0.0,0.0,0.0,0.0,0.0,0.0,0.0,0.0,0.0,0.0,0.0,0.0,0.0,0.0,0.0,0.0,0.0,0.0,0.0,0.0,0.0,0.0,0.0,0.0,0.0,0.0,0.0,0.0,0.0,0.0,0.0,0.0,0.0,0.0,0.0,0.0,0.0,0.0,0.0,0.0,0.0,0.0,0.0,0.0,0.0,0.0,0.0,0.0,0.0,0.0,0.0,0.0,0.0,0.0,0.0,0.0,0.0,0.0,0.0,0.0,0.0,0.0,0.0,0.0,0.0,0.0,0.0,0.0,0.0,0.0,0.0,0.0,0.0,0.0,0.0,0.0,0.0,0.0,0.0,0.0,0.0,0.0,0.0,0.0,0.0,0.0,0.0,0.0,0.0,0.0,0.0,0.0,0.0,0.0,0.0,0.0,0.0,0.0,0.0,0.0,0.0,0.0,0.0,0.0,0.0,0.0,0.0,0.0,0.0,0.0,0.0,0.0,0.0,0.0,0.0,0.0,0.0,0.0,0.0,0.0,0.0,0.0,0.0,0.0,0.0,0.0,0.0,0.0,0.0,0.0,0.0,0.0,0.0,0.0,0.0,0.0,0.0,0.0,0.0,0.0,0.0,0.0,0.0,0.0,0.0,0.0,0.0,0.0,0.0,0.0,0.0,0.0,0.0,0.0,0.0,0.0,0.0,0.0,0.0,0.0,0.0,0.0,0.0,0.0,0.0,0.0,0.0,0.0,0.0,0.0,0.0,0.0,0.0,0.0,0.0,0.0,0.0,0.0,0.0,0.0,0.0,0.0,0.0,0.0,0.0,0.0,0.0,0.0,0.0,0.0,0.0,0.0,0.0,0.0,0.0,0.0,0.0,0.0,0.0,0.0,0.0,0.0,0.0,0.0,0.0,0.0,0.0,0.0,0.0,0.0,0.0,0.0,0.0,0.0,0.0,0.0,0.0,0.0,0.0,0.0,0.0,0.0,0.0,0.0,0.0,0.0,0.0,0.0,0.0,0.0,0.0,0.0,0.0,0.0,0.0,0.0,0.0,0.0,0.0,0.0,0.0,0.0,0.0,0.0,0.0,0.0,0.0,0.0,0.0,0.0,0.0,0.0,0.0,0.0,0.0,0.0,0.0,0.0,0.0,0.0,0.0,0.0,0.0,0.0,0.0,0.0,0.0,0.0,0.0,0.0,0.0,0.0,0.0,0.0,0.0,0.0,0.0,0.0,0.0,0.0,0.0,0.0,0.0,0.0,0.0,0.0,0.0,0.0,0.0,0.0,0.0,0.0,0.0,0.0,0.0,0.0,0.0,0.0,0.0,0.0,0.0,0.0,0.0,0.0,0.0,0.0,0.0,0.0,0.0,0.0,0.0,0.0,0.0,0.0,0.0,0.0,0.0,0.0,0.0,0.0,0.0,0.0,0.0,0.0,0.0,0.0,0.0,0.0,0.0,0.0,0.0,0.0,0.0,0.0,0.0,0.0,0.0,0.0,0.0,0.0,0.0,0.0,0.0,0.0,0.0,0.0,0.0,0.0,0.0,0.0,0.0,0.0,0.0,0.0,0.0,0.0,0.0,0.0,0.0,0.0,0.0,0.0,0.0,0.0,0.0,0.0,0.0,0.0,0.0,0.0,0.0,0.0,0.0,0.0,0.0,0.0,0.0,0.0,0.0,0.0,0.0,0.0,0.0,0.0,0.0,0.0,0.0,0.0,0.0,0.0,0.0,0.0,0.0,0.0,0.0,0.0,0.0,0.0,0.0,0.0,0.0,0.0,0.0,0.0,0.0,0.0,0.0,0.0,0.0,0.0,0.0,0.0,0.0,0.0,0.0,0.0,0.0,0.0,0.0,0.0,0.0,0.0,0.0,0.0,0.0,0.0,0.0,0.0,0.0,0.0,0.0,0.0,0.0,0.0,0.0,0.0,0.0,0.0,0.0,0.0,0.0,0.0,0.0,0.0,0.0,0.0,0.0,0.0,0.0,0.0,0.0,0.0,0.0,0.0,0.0,0.0,0.0,0.0,0.0,0.0,0.0,0.0,0.0,0.0,0.0,0.0,0.0,0.0,0.0,0.0,0.0,0.0,0.0,0.0,0.0,0.0,0.0,0.0,0.0,0.0,0.0,0.0,0.0,0.0,0.0,0.0,0.0,0.0,0.0,0.0,0.0,0.0,0.0,0.0,0.0,0.0,0.0,0.0,0.0,0.0,0.0,0.0,0.0,0.0,0.0,0.0,0.0,0.0,0.0,0.0,0.0,0.0,0.0,0.0,0.0,0.0,0.0,0.0,0.0,0.0,0.0,0.0,0.0,0.0,0.0,0.0,0.0,0.0,0.0,0.0,0.0,0.0,0.0,0.0,0.0,0.0,0.0,0.0,0.0,0.0,0.0,0.0,0.0,0.0,0.0,0.0,0.0,0.0,0.0,0.0,0.0,0.0,0.0,0.0,0.0,0.0,0.0,0.0,0.0,0.0,0.0,0.0,0.0,0.0,0.0,0.0,0.0,0.0,0.0,0.0,0.0,0.0,0.0,0.0,0.0,0.0,0.0,0.0,0.0,0.0,0.0,0.0,0.0,0.0,0.0,0.0,0.0,0.0,0.0,0.0,0.0,0.0,0.0,0.0,0.0,0.0,0.0,0.0,0.0,0.0,0.0,0.0,0.0,0.0,0.0,0.0,0.0,0.0,0.0,0.0,0.0,0.0,0.0,0.0,0.0,0.0,0.0,0.0,0.0,0.0,0.0,0.0,0.0,0.0,0.0,0.0,0.0,0.0,0.0,0.0,0.0,0.0,0.0,0.0,0.0,0.0,0.0,0.0,0.0,0.0,0.0,0.0,0.0,0.0,0.0,0.0,0.0,0.0,0.2679,0.0,0.0,0.0,0.0,0.0,0.0,0.0,0.0,0.0,0.0,0.0,0.0,0.0,0.0,0.0,0.0,0.0,0.0,0.0,0.0,0.0,0.0,0.0,0.0,0.0,0.0,0.0,0.0,0.0,0.0,0.0,0.0,0.0,0.0,0.0,0.0,0.0,0.0,0.0,0.0,0.0,0.0,0.0,0.0,0.0,0.0,0.0,0.0,0.0,0.0,0.0,0.0,0.0,0.0,0.0,0.0,0.0,0.0,0.0,0.0,0.0,0.0,0.0,0.0,0.0,0.0,0.0,0.0,0.0,0.0,0.0,0.0,0.0,0.0,0.0,0.0,0.0,0.0,0.0,0.0,0.0,0.0,0.0,0.0,0.0,0.0,0.0,0.0,0.0,0.0,0.0,0.0,0.0,0.0,0.0,0.0,0.0,0.0,0.0,0.0,0.0,0.0,0.0,0.0,0.0,0.0,0.0,0.0,0.0,0.0,0.2679,0.2679,0.2679,0.2679,0.2679,0.0,0.0,0.0,0.0,0.0,0.0,0.0,0.0,0.0,0.0,0.0,0.0,0.0,0.0,0.0,0.0,0.0,0.0,0.0,0.0,0.0,0.0,0.0,0.0,0.0,0.0,0.0,0.0,0.0,0.0,0.0,0.0,0.0,0.0,0.0,0.0,0.0,0.0,0.0,0.0,0.0,0.0,0.0,0.0,0.0,0.0,0.0,0.0,0.0,0.0,0.0,0.0,0.0,0.0,0.0,0.0,0.0,0.0,0.0,0.0,0.0,0.0,0.0,0.0,0.0,0.0,0.0,0.0,0.0,0.0,0.0,0.0,0.0,0.0,0.0,0.0,0.0,0.0,0.0,0.0,0.0,0.0,0.0,0.0,0.0,0.0,0.0,0.0,0.0,0.0,0.0,0.0,0.0,0.0,0.0,0.0,0.0,0.0,0.0,0.0,0.0,0.0,0.0,0.0,0.0,0.0,0.0,0.0,0.0,0.0,0.0,0.0,0.2751,0.2734,0.2734,0.0,0.0,0.0,0.0,0.0,0.0,0.0,0.0,0.0,0.0,0.0,0.0,0.0,0.0,0.0,0.0,0.0,0.0,0.0,0.0,0.0,0.0,0.0,0.0,0.0,0.0,0.0,0.0,0.0,0.0,0.0,0.0,0.0,0.0,0.0,0.0,0.0,0.0,0.0,0.0,0.0,0.0,0.0,0.0,0.0,0.0,0.0,0.0,0.0,0.0,0.0,0.0,0.0,0.0,0.0,0.0,0.0,0.0,0.0,0.0,0.0,0.0,0.0,0.0,0.0,0.0,0.0,0.0,0.0,0.0,0.0,0.0,0.0,0.0,0.0,0.0,0.0,0.0,0.0,0.0,0.0,0.0,0.0,0.0,0.0,0.0,0.0,0.0,0.0,0.0,0.0,0.0,0.0,0.0,0.0,0.0,0.0,0.0,0.0,0.0,0.0,0.0,0.0,0.0,0.0,0.0,0.0,0.0,0.0,0.0,0.2808,0.3069,0.2951,0.0,0.2854,0.0,0.0,0.0,0.0,0.0,0.0,0.0,0.0,0.0,0.0,0.0,0.0,0.0,0.0,0.0,0.0,0.0,0.0,0.0,0.0,0.0,0.0,0.0,0.0,0.0,0.0,0.0,0.0,0.0,0.0,0.0,0.0,0.0,0.0,0.0,0.0,0.0,0.0,0.0,0.0,0.0,0.0,0.0,0.0,0.0,0.0,0.0,0.0,0.0,0.0,0.0,0.0,0.0,0.0,0.0,0.0,0.0,0.0,0.0,0.0,0.0,0.0,0.0,0.0,0.0,0.0,0.0,0.0,0.0,0.0,0.0,0.0,0.0,0.0,0.0,0.0,0.0,0.0,0.0,0.0,0.0,0.0,0.0,0.0,0.0,0.0,0.0,0.0,0.0,0.0,0.0,0.0,0.0,0.0,0.0,0.0,0.0,0.0,0.0,0.0,0.0,0.0,0.0,0.0,0.0,0.0,0.0,0.0,0.0,0.0,0.2297,0.2283,0.2419,0.2615,0.0,0.0,0.0,0.0,0.0,0.0,0.0,0.0,0.0,0.0,0.0,0.0,0.0,0.0,0.0,0.0,0.0,0.0,0.0,0.0,0.0,0.0,0.0,0.0,0.0,0.0,0.0,0.0,0.0,0.0,0.0,0.0,0.0,0.0,0.0,0.0,0.0,0.0,0.0,0.0,0.0,0.0,0.0,0.0,0.0,0.0,0.0,0.0,0.0,0.0,0.0,0.0,0.0,0.0,0.0,0.0,0.0,0.0,0.0,0.0,0.0,0.0,0.0,0.0,0.0,0.0,0.0,0.0,0.0,0.0,0.0,0.0,0.0,0.0,0.0,0.0,0.0,0.0,0.0,0.0,0.0,0.0,0.0,0.0,0.0,0.0,0.0,0.0,0.0,0.0,0.0,0.0,0.0,0.0,0.0,0.0,0.0,0.0,0.0,0.0,0.0,0.0,0.0,0.0,0.0,0.0,0.0,0.0,0.0,0.0,0.2446,0.2207,0.201,0.209,0.2247,0.2579,0.0,0.0,0.0,0.0,0.0,0.0,0.0,0.0,0.0,0.0,0.0,0.0,0.0,0.0,0.0,0.0,0.0,0.0,0.0,0.0,0.0,0.0,0.0,0.0,0.0,0.0,0.0,0.0,0.0,0.0,0.0,0.0,0.0,0.0,0.0,0.0,0.0,0.0,0.0,0.0,0.0,0.0,0.0,0.0,0.0,0.0,0.0,0.0,0.0,0.0,0.0,0.0,0.0,0.0,0.0,0.0,0.0,0.0,0.0,0.0,0.0,0.0,0.0,0.0,0.0,0.0,0.0,0.0,0.0,0.0,0.0,0.0,0.0,0.0,0.0,0.0,0.0,0.0,0.0,0.0,0.0,0.0,0.0,0.0,0.0,0.0,0.0,0.0,0.0,0.0,0.0,0.0,0.0,0.0,0.0,0.0,0.0,0.0,0.0,0.0,0.0,0.0,0.0,0.0,0.0,0.0,0.0,0.0,0.3559,0.3212,0.2951,0.2744,0.22,0.1912,0.0,0.0,0.0,0.0,0.0,0.0,0.0,0.0,0.0,0.0,0.0,0.0,0.0,0.0,0.0,0.0,0.0,0.0,0.0,0.0,0.0,0.0,0.0,0.0,0.0,0.0,0.0,0.0,0.0,0.0,0.0,0.0,0.0,0.0,0.0,0.0,0.0,0.0,0.0,0.0,0.0,0.0,0.0,0.0,0.0,0.0,0.0,0.0,0.0,0.0,0.0,0.0,0.0,0.0,0.0,0.0,0.0,0.0,0.0,0.0,0.0,0.0,0.0,0.0,0.0,0.0,0.0,0.0,0.0,0.0,0.0,0.0,0.0,0.0,0.0,0.0,0.0,0.0,0.0,0.0,0.0,0.0,0.0,0.0,0.0,0.0,0.0,0.0,0.0,0.0,0.0,0.0,0.0,0.0,0.0,0.0,0.0,0.0,0.0,0.0,0.0,0.0,0.0,0.0,0.0,0.0,0.0,0.0,0.0,0.283,0.2424,0.2363,0.2692,0.21,0.1955,0.0,0.0,0.0,0.0,0.0,0.0,0.0,0.0,0.0,0.0,0.0,0.0,0.0,0.0,0.0,0.0,0.0,0.0,0.0,0.0,0.0,0.0,0.0,0.0,0.0,0.0,0.0,0.0,0.0,0.0,0.0,0.0,0.0,0.0,0.0,0.0,0.0,0.0,0.0,0.0,0.0,0.0,0.0,0.0,0.0,0.0,0.0,0.0,0.0,0.0,0.0,0.0,0.0,0.0,0.0,0.0,0.0,0.0,0.0,0.0,0.0,0.0,0.0,0.0,0.0,0.0,0.0,0.0,0.0,0.0,0.0,0.0,0.0,0.0,0.0,0.0,0.0,0.0,0.0,0.0,0.0,0.0,0.0,0.0,0.0,0.0,0.0,0.0,0.0,0.0,0.0,0.0,0.0,0.0,0.0,0.0,0.0,0.0,0.0,0.0,0.0,0.0,0.0,0.0,0.0,0.0,0.0,0.0,0.0,0.2481,0.0,0.1937,0.2443,0.1782,0.1592,0.0,0.0,0.0,0.0,0.0,0.0,0.0,0.0,0.0,0.0,0.0,0.0,0.0,0.0,0.0,0.0,0.0,0.0,0.0,0.0,0.0,0.0,0.0,0.0,0.0,0.0,0.0,0.0,0.0,0.0,0.0,0.0,0.0,0.0,0.0,0.0,0.0,0.0,0.0,0.0,0.0,0.0,0.0,0.0,0.0,0.0,0.0,0.0,0.0,0.0,0.0,0.0,0.0,0.0,0.0,0.0,0.0,0.0,0.0,0.0,0.0,0.0,0.0,0.0,0.0,0.0,0.0,0.0,0.0,0.0,0.0,0.0,0.0,0.0,0.0,0.0,0.0,0.0,0.0,0.0,0.0,0.0,0.0,0.0,0.0,0.0,0.0,0.0,0.0,0.0,0.0,0.0,0.0,0.0,0.0,0.0,0.0,0.0,0.0,0.0,0.0,0.0,0.0,0.0,0.0,0.0,0.0,0.0,0.2784,0.2656,0.2058,0.1821,0.2064,0.1241,0.0866,0.0,0.0,0.0,0.0,0.0,0.0,0.0,0.0,0.0,0.0,0.0,0.0,0.0,0.0,0.0,0.0,0.0,0.0,0.0,0.0,0.0,0.0,0.0,0.0,0.0,0.0,0.0,0.0,0.0,0.0,0.0,0.0,0.0,0.0,0.0,0.0,0.0,0.0,0.0,0.0,0.0,0.0,0.0,0.0,0.0,0.0,0.0,0.0,0.0,0.0,0.0,0.0,0.0,0.0,0.0,0.0,0.0,0.0,0.0,0.0,0.0,0.0,0.0,0.0,0.0,0.0,0.0,0.0,0.0,0.0,0.0,0.0,0.0,0.0,0.0,0.0,0.0,0.0,0.0,0.0,0.0,0.0,0.0,0.0,0.0,0.0,0.0,0.0,0.0,0.0,0.0,0.0,0.0,0.0,0.0,0.0,0.0,0.0,0.0,0.0,0.0,0.0,0.0,0.0,0.0,0.0,0.0,0.0,0.0,0.2452,0.199,0.1835,0.2073,0.1628,0.1369,0.0,0.0,0.0,0.0,0.0,0.0,0.0,0.0,0.0,0.0,0.0,0.0,0.0,0.0,0.0,0.0,0.0,0.0,0.0,0.0,0.0,0.0,0.0,0.0,0.0,0.0,0.0,0.0,0.0,0.0,0.0,0.0,0.0,0.0,0.0,0.0,0.0,0.0,0.0,0.0,0.0,0.0,0.0,0.0,0.0,0.0,0.0,0.0,0.0,0.0,0.0,0.0,0.0,0.0,0.0,0.0,0.0,0.0,0.0,0.0,0.0,0.0,0.0,0.0,0.0,0.0,0.0,0.0,0.0,0.0,0.0,0.0,0.0,0.0,0.0,0.0,0.0,0.0,0.0,0.0,0.0,0.0,0.0,0.0,0.0,0.0,0.0,0.0,0.0,0.0,0.0,0.0,0.0,0.0,0.0,0.0,0.0,0.0,0.0,0.0,0.0,0.0,0.0,0.0,0.0,0.0,0.0,0.0,0.0,0.2045,0.163,0.1527,0.185,0.1554,0.136,0.1316,0.0,0.0,0.0,0.0,0.0,0.0,0.0,0.0,0.0,0.0,0.0,0.0,0.0,0.0,0.0,0.0,0.0,0.0,0.0,0.0,0.0,0.0,0.0,0.0,0.0,0.0,0.0,0.0,0.0,0.0,0.0,0.0,0.0,0.0,0.0,0.0,0.0,0.0,0.0,0.0,0.0,0.0,0.0,0.0,0.0,0.0,0.0,0.0,0.0,0.0,0.0,0.0,0.0,0.0,0.0,0.0,0.0,0.0,0.0,0.0,0.0,0.0,0.0,0.0,0.0,0.0,0.0,0.0,0.0,0.0,0.0,0.0,0.0,0.0,0.0,0.0,0.0,0.0,0.0,0.0,0.0,0.0,0.0,0.0,0.0,0.0,0.0,0.0,0.0,0.0,0.0,0.0,0.0,0.0,0.0,0.0,0.0,0.0,0.0,0.0,0.0,0.0,0.0,0.0,0.0,0.0,0.0,0.0,0.1467,0.1068,0.1035,0.1352,0.1047,0.0951,0.0,0.0,0.0,0.0,0.0,0.0,0.0,0.0,0.0,0.0,0.0,0.0,0.0,0.0,0.0,0.0,0.0,0.0,0.0,0.0,0.0,0.0,0.0,0.0,0.0,0.0,0.0,0.0,0.0,0.0,0.0,0.0,0.0,0.0,0.0,0.0,0.0,0.0,0.0,0.0,0.0,0.0,0.0,0.0,0.0,0.0,0.0,0.0,0.0,0.0,0.0,0.0,0.0,0.0,0.0,0.0,0.0,0.0,0.0,0.0,0.0,0.0,0.0,0.0,0.0,0.0,0.0,0.0,0.0,0.0,0.0,0.0,0.0,0.0,0.0,0.0,0.0,0.0,0.0,0.0,0.0,0.0,0.0,0.0,0.0,0.0,0.0,0.0,0.0,0.0,0.0,0.0,0.0,0.0,0.0,0.0,0.0,0.0,0.0,0.0,0.0,0.0,0.0,0.0,0.0,0.0,0.0,0.0,0.0,0.1052,0.1011,0.1002,0.1106,0.1156,0.1095,0.0,0.0,0.0,0.0,0.0,0.0,0.0,0.0,0.0,0.0,0.0,0.0,0.0,0.0,0.0,0.0,0.0,0.0,0.0,0.0,0.0,0.0,0.0,0.0,0.0,0.0,0.0,0.0,0.0,0.0,0.0,0.0,0.0,0.0,0.0,0.0,0.0,0.0,0.0,0.0,0.0,0.0,0.0,0.0,0.0,0.0,0.0,0.0,0.0,0.0,0.0,0.0,0.0,0.0,0.0,0.0,0.0,0.0,0.0,0.0,0.0,0.0,0.0,0.0,0.0,0.0,0.0,0.0,0.0,0.0,0.0,0.0,0.0,0.0,0.0,0.0,0.0,0.0,0.0,0.0,0.0,0.0,0.0,0.0,0.0,0.0,0.0,0.0,0.0,0.0,0.0,0.0,0.0,0.0,0.0,0.0,0.0,0.0,0.0,0.0,0.0,0.0,0.0,0.0,0.0,0.0,0.0,0.0,0.145,0.0946,0.0995,0.1051,0.1051,0.1084,0.1027,0.0,0.0,0.0,0.0,0.0,0.0,0.0,0.0,0.0,0.0,0.0,0.0,0.0,0.0,0.0,0.0,0.0,0.0,0.0,0.0,0.0,0.0,0.0,0.0,0.0,0.0,0.0,0.0,0.0,0.0,0.0,0.0,0.0,0.0,0.0,0.0,0.0,0.0,0.0,0.0,0.0,0.0,0.0,0.0,0.0,0.0,0.0,0.0,0.0,0.0,0.0,0.0,0.0,0.0,0.0,0.0,0.0,0.0,0.0,0.0,0.0,0.0,0.0,0.0,0.0,0.0,0.0,0.0,0.0,0.0,0.0,0.0,0.0,0.0,0.0,0.0,0.0,0.0,0.0,0.0,0.0,0.0,0.0,0.0,0.0,0.0,0.0,0.0,0.0,0.0,0.0,0.0,0.0,0.0,0.0,0.0,0.0,0.0,0.0,0.0,0.0,0.0,0.0,0.0,0.0,0.0,0.0,0.0,0.1492,0.0947,0.1031,0.1076,0.1073,0.0992,0.0894,0.0,0.0,0.0,0.0,0.0,0.0,0.0,0.0,0.0,0.0,0.0,0.0,0.0,0.0,0.0,0.0,0.0,0.0,0.0,0.0,0.0,0.0,0.0,0.0,0.0,0.0,0.0,0.0,0.0,0.0,0.0,0.0,0.0,0.0,0.0,0.0,0.0,0.0,0.0,0.0,0.0,0.0,0.0,0.0,0.0,0.0,0.0,0.0,0.0,0.0,0.0,0.0,0.0,0.0,0.0,0.0,0.0,0.0,0.0,0.0,0.0,0.0,0.0,0.0,0.0,0.0,0.0,0.0,0.0,0.0,0.0,0.0,0.0,0.0,0.0,0.0,0.0,0.0,0.0,0.0,0.0,0.0,0.0,0.0,0.0,0.0,0.0,0.0,0.0,0.0,0.0,0.0,0.0,0.0,0.0,0.0,0.0,0.0,0.0,0.0,0.0,0.0,0.0,0.0,0.0,0.0,0.0,0.0,0.1316,0.0977,0.1042,0.1076,0.1076,0.1013,0.0932,0.0,0.0,0.0,0.0,0.0,0.0,0.0,0.0,0.0,0.0,0.0,0.0,0.0,0.0,0.0,0.0,0.0,0.0,0.0,0.0,0.0,0.0,0.0,0.0,0.0,0.0,0.0,0.0,0.0,0.0,0.0,0.0,0.0,0.0,0.0,0.0,0.0,0.0,0.0,0.0,0.0,0.0,0.0,0.0,0.0,0.0,0.0,0.0,0.3677,0.0,0.0,0.0,0.0,0.0,0.0,0.0,0.0,0.0,0.0,0.0,0.0,0.0,0.0,0.0,0.0,0.0,0.0,0.0,0.0,0.0,0.0,0.0,0.0,0.0,0.0,0.0,0.0,0.0,0.0,0.0,0.0,0.0,0.0,0.0,0.0,0.0,0.0,0.0,0.0,0.0,0.0,0.0,0.0,0.0,0.0,0.0,0.0,0.0,0.0,0.0,0.0,0.0,0.0,0.0,0.0,0.0,0.0,0.0,0.136,0.1008,0.1052,0.1076,0.1074,0.1046,0.1034,0.0,0.0,0.0,0.0,0.0,0.0,0.0,0.0,0.0,0.0,0.0,0.0,0.0,0.0,0.0,0.0,0.0,0.0,0.0,0.0,0.0,0.0,0.0,0.0,0.0,0.0,0.0,0.0,0.0,0.0,0.0,0.0,0.0,0.0,0.0,0.0,0.0,0.0,0.0,0.0,0.0,0.0,0.0,0.0,0.0,0.0,0.0,0.0,0.0,0.0,0.0,0.0,0.0,0.0,0.0,0.0,0.0,0.0,0.0,0.0,0.0,0.0,0.0,0.0,0.0,0.0,0.0,0.0,0.0,0.0,0.0,0.0,0.0,0.0,0.0,0.0,0.0,0.0,0.0,0.0,0.0,0.0,0.0,0.0,0.0,0.0,0.0,0.0,0.0,0.0,0.0,0.0,0.0,0.0,0.0,0.0,0.0,0.0,0.0,0.0,0.0,0.0,0.0,0.0,0.0,0.0,0.0,0.1818,0.1452,0.1037,0.1063,0.1076,0.1076,0.1076,0.1007,0.092,0.0,0.0,0.0,0.0,0.0,0.0,0.0,0.0,0.0,0.0,0.0,0.0,0.0,0.0,0.0,0.0,0.0,0.0,0.0,0.0,0.0,0.0,0.0,0.0,0.0,0.0,0.0,0.0,0.0,0.0,0.0,0.0,0.0,0.0,0.0,0.0,0.0,0.0,0.3113,0.3018,0.0,0.0,0.0,0.0,0.0,0.0,0.0,0.0,0.3661,0.0,0.0,0.0,0.0,0.0,0.0,0.0,0.0,0.0,0.0,0.0,0.0,0.0,0.0,0.0,0.0,0.0,0.0,0.0,0.0,0.0,0.0,0.0,0.0,0.0,0.0,0.0,0.0,0.0,0.0,0.0,0.0,0.0,0.0,0.0,0.0,0.0,0.0,0.0,0.0,0.0,0.0,0.0,0.0,0.0,0.0,0.0,0.0,0.0,0.0,0.0,0.0,0.0,0.0,0.0,0.0,0.1687,0.1618,0.1434,0.1132,0.1073,0.1076,0.1076,0.1076,0.1018,0.0896,0.0,0.0,0.0,0.0,0.0,0.0,0.0,0.0,0.0,0.0,0.0,0.0,0.0,0.0,0.0,0.0,0.0,0.0,0.0,0.0,0.0,0.0,0.0,0.0,0.0,0.0,0.0,0.0,0.0,0.0,0.0,0.0,0.0,0.0,0.0,0.0,0.0,0.0,0.0,0.301,0.3199,0.0,0.0,0.0,0.0,0.0,0.0,0.0,0.0,0.332,0.0,0.0,0.0,0.0,0.0,0.0,0.0,0.0,0.0,0.0,0.0,0.0,0.0,0.0,0.0,0.0,0.0,0.0,0.0,0.0,0.0,0.0,0.0,0.0,0.0,0.0,0.0,0.0,0.0,0.0,0.0,0.0,0.0,0.0,0.0,0.0,0.0,0.0,0.0,0.0,0.0,0.0,0.0,0.0,0.0,0.0,0.0,0.0,0.0,0.0,0.0,0.0,0.0,0.0,0.0,0.185,0.1505,0.1252,0.1139,0.1076,0.1076,0.1075,0.1046,0.105,0.0,0.0,0.0,0.0,0.0,0.0,0.0,0.0,0.0,0.0,0.0,0.0,0.0,0.0,0.0,0.0,0.0,0.0,0.0,0.0,0.0,0.0,0.0,0.0,0.0,0.0,0.0,0.0,0.0,0.0,0.0,0.0,0.0,0.0,0.0,0.0,0.0,0.0,0.0,0.0,0.2974,0.3155,0.3102,0.0,0.0,0.0,0.0,0.0,0.0,0.3083,0.3025,0.0,0.0,0.0,0.0,0.0,0.0,0.0,0.0,0.0,0.0,0.0,0.0,0.0,0.0,0.0,0.0,0.0,0.0,0.0,0.0,0.0,0.0,0.0,0.0,0.0,0.0,0.0,0.0,0.0,0.0,0.0,0.0,0.0,0.0,0.0,0.0,0.0,0.0,0.0,0.0,0.0,0.0,0.0,0.0,0.0,0.0,0.0,0.0,0.0,0.0,0.0,0.0,0.0,0.0,0.0,0.2019,0.1415,0.1099,0.1073,0.1076,0.1076,0.1075,0.103,0.1093,0.0,0.0,0.0,0.0,0.0,0.0,0.0,0.0,0.0,0.0,0.0,0.0,0.0,0.0,0.0,0.0,0.0,0.0,0.0,0.0,0.0,0.0,0.0,0.0,0.0,0.0,0.0,0.0,0.0,0.0,0.0,0.0,0.0,0.0,0.0,0.0,0.0,0.0,0.0,0.0,0.0,0.2918,0.2756,0.2699,0.0,0.0,0.0,0.0,0.2913,0.2814,0.0,0.0,0.0,0.0,0.0,0.0,0.0,0.0,0.0,0.0,0.0,0.0,0.0,0.0,0.0,0.0,0.0,0.0,0.0,0.0,0.0,0.0,0.0,0.0,0.0,0.0,0.0,0.0,0.0,0.0,0.0,0.0,0.0,0.0,0.0,0.0,0.0,0.0,0.0,0.0,0.0,0.0,0.0,0.0,0.0,0.0,0.0,0.0,0.0,0.0,0.0,0.0,0.0,0.0,0.0,0.0,0.176,0.1634,0.1363,0.1137,0.1076,0.1076,0.1076,0.1069,0.1013,0.0,0.0,0.0,0.0,0.0,0.0,0.0,0.0,0.0,0.0,0.0,0.0,0.0,0.0,0.0,0.0,0.0,0.0,0.0,0.0,0.0,0.0,0.0,0.0,0.0,0.0,0.0,0.0,0.0,0.0,0.0,0.0,0.0,0.0,0.0,0.0,0.0,0.0,0.0,0.0,0.0,0.2757,0.2798,0.2585,0.2598,0.0,0.0,0.2567,0.2766,0.2931,0.0,0.0,0.0,0.0,0.0,0.0,0.0,0.0,0.0,0.0,0.0,0.0,0.0,0.0,0.0,0.0,0.0,0.0,0.0,0.0,0.0,0.0,0.0,0.0,0.0,0.0,0.0,0.0,0.0,0.0,0.0,0.0,0.0,0.0,0.0,0.0,0.0,0.0,0.0,0.0,0.0,0.0,0.0,0.0,0.0,0.0,0.0,0.0,0.0,0.0,0.0,0.0,0.0,0.0,0.0,0.2007,0.1715,0.1476,0.1231,0.1074,0.1076,0.1076,0.1076,0.1044,0.1047,0.0,0.0,0.0,0.0,0.0,0.0,0.0,0.0,0.0,0.0,0.0,0.0,0.0,0.0,0.0,0.0,0.0,0.0,0.0,0.0,0.0,0.0,0.0,0.0,0.0,0.0,0.0,0.0,0.0,0.0,0.0,0.0,0.0,0.0,0.0,0.0,0.0,0.0,0.0,0.0,0.0,0.0,0.281,0.2636,0.0,0.0,0.0,0.2626,0.2735,0.0,0.0,0.0,0.0,0.0,0.0,0.0,0.0,0.0,0.0,0.0,0.0,0.0,0.0,0.0,0.0,0.0,0.0,0.0,0.0,0.0,0.0,0.0,0.0,0.0,0.0,0.0,0.0,0.0,0.0,0.0,0.0,0.0,0.0,0.0,0.0,0.0,0.0,0.0,0.0,0.0,0.0,0.0,0.0,0.0,0.0,0.0,0.0,0.0,0.0,0.0,0.0,0.0,0.0,0.0,0.0,0.0,0.1639,0.1295,0.1076,0.1076,0.1076,0.1076,0.1075,0.1033,0.0,0.0,0.0,0.0,0.0,0.0,0.0,0.0,0.0,0.0,0.0,0.0,0.0,0.0,0.0,0.0,0.0,0.0,0.0,0.0,0.0,0.0,0.0,0.0,0.0,0.0,0.0,0.1573,0.0,0.0,0.0,0.0,0.0,0.0,0.0,0.0,0.0,0.0,0.0,0.0,0.0,0.0,0.2961,0.2772,0.2772,0.2781,0.0,0.0,0.2774,0.2732,0.2705,0.2626,0.0,0.0,0.0,0.0,0.0,0.0,0.0,0.0,0.0,0.0,0.0,0.0,0.0,0.0,0.0,0.0,0.0,0.0,0.0,0.0,0.0,0.0,0.0,0.0,0.0,0.0,0.0,0.0,0.0,0.0,0.0,0.0,0.0,0.0,0.0,0.0,0.0,0.0,0.0,0.0,0.0,0.0,0.0,0.0,0.0,0.0,0.0,0.0,0.0,0.0,0.0,0.0,0.0,0.0,0.0,0.1494,0.1248,0.1076,0.1076,0.1076,0.1076,0.1076,0.1072,0.1016,0.0,0.0,0.0,0.0,0.0,0.0,0.0,0.0,0.0,0.0,0.0,0.0,0.0,0.0,0.0,0.0,0.0,0.0,0.0,0.0,0.0,0.0,0.0,0.0,0.0,0.0,0.0,0.0,0.0,0.0,0.0,0.0,0.0,0.0,0.0,0.0,0.0,0.0,0.0,0.0,0.0,0.2742,0.2699,0.2836,0.2999,0.0,0.0,0.3007,0.2844,0.295,0.2877,0.2358,0.0,0.0,0.0,0.0,0.0,0.0,0.0,0.0,0.0,0.0,0.0,0.0,0.0,0.0,0.0,0.0,0.0,0.0,0.0,0.0,0.0,0.0,0.0,0.0,0.0,0.0,0.0,0.0,0.0,0.0,0.0,0.0,0.0,0.0,0.0,0.0,0.0,0.0,0.0,0.0,0.0,0.0,0.0,0.0,0.0,0.0,0.0,0.0,0.0,0.0,0.0,0.0,0.0,0.1438,0.1494,0.1249,0.1076,0.1076,0.1076,0.1076,0.1076,0.1076,0.1029,0.0,0.0,0.0,0.0,0.0,0.0,0.0,0.0,0.0,0.0,0.0,0.0,0.0,0.0,0.0,0.0,0.0,0.0,0.0,0.0,0.0,0.0,0.0,0.0,0.0,0.0,0.0,0.0,0.1658,0.1635,0.1615,0.0,0.0,0.0,0.0,0.0,0.0,0.0,0.0,0.0,0.0,0.2813,0.2921,0.2995,0.0,0.0,0.3105,0.3087,0.3075,0.2991,0.2819,0.2553,0.2361,0.0,0.0,0.0,0.0,0.0,0.0,0.0,0.0,0.0,0.0,0.0,0.0,0.0,0.0,0.0,0.0,0.0,0.0,0.0,0.0,0.0,0.0,0.0,0.0,0.0,0.0,0.0,0.0,0.0,0.0,0.0,0.0,0.0,0.0,0.0,0.0,0.0,0.0,0.0,0.0,0.0,0.0,0.0,0.0,0.0,0.0,0.0,0.0,0.0,0.0,0.0,0.0,0.1395,0.1515,0.1255,0.1076,0.1076,0.1076,0.1076,0.1076,0.0941,0.0843,0.0,0.0,0.0,0.0,0.0,0.0,0.0,0.0,0.0,0.0,0.0,0.0,0.0,0.0,0.0,0.0,0.0,0.0,0.0,0.0,0.0,0.0,0.0,0.0,0.0,0.0,0.0,0.0,0.1645,0.1643,0.1615,0.0,0.0,0.0,0.0,0.0,0.0,0.0,0.0,0.0,0.0,0.2919,0.3068,0.3113,0.3152,0.3215,0.3173,0.3134,0.3144,0.3009,0.2828,0.2647,0.0,0.0,0.0,0.0,0.0,0.0,0.0,0.0,0.0,0.0,0.0,0.0,0.0,0.0,0.0,0.0,0.0,0.0,0.0,0.0,0.0,0.0,0.0,0.0,0.0,0.0,0.0,0.0,0.0,0.0,0.2444,0.0,0.0,0.0,0.0,0.0,0.0,0.0,0.0,0.0,0.0,0.0,0.0,0.0,0.0,0.0,0.0,0.0,0.0,0.0,0.0,0.0,0.0,0.1413,0.157,0.1269,0.1076,0.1076,0.1076,0.1076,0.1076,0.0605,0.0262,0.0185,0.0,0.0,0.0,0.0,0.0,0.0,0.0,0.0,0.0,0.0,0.0,0.0,0.0,0.0,0.0,0.0,0.0,0.0,0.0,0.0,0.0,0.0,0.0,0.0,0.0,0.0,0.1703,0.1664,0.1611,0.0,0.0,0.0,0.0,0.0,0.0,0.0,0.0,0.0,0.0,0.2785,0.3049,0.3079,0.3166,0.3222,0.3226,0.3224,0.3162,0.3059,0.303,0.2964,0.0,0.0,0.0,0.0,0.0,0.0,0.0,0.0,0.0,0.0,0.0,0.0,0.0,0.0,0.0,0.0,0.0,0.0,0.0,0.0,0.0,0.0,0.0,0.0,0.0,0.0,0.0,0.1975,0.2041,0.0,0.0,0.0,0.0,0.0,0.0,0.0,0.0,0.0,0.0,0.0,0.2128,0.1777,0.0,0.0,0.0,0.0,0.0,0.0,0.0,0.0,0.0,0.0,0.0,0.0,0.1323,0.1334,0.0832,0.0605,0.0538,0.0202,0.0067,0.0067,-0.0134,-0.0259,-0.042,0.0,0.0,0.0,0.0,0.0,0.0,0.0,0.0,0.0,0.0,0.0,0.0,0.0,0.0,0.0,0.0,0.0,0.0,0.0,0.0,0.0,0.0,0.0,0.0,0.0,0.1746,0.0,0.0,0.0,0.0,0.0,0.0,0.0,0.0,0.0,0.0,0.0,0.2605,0.2907,0.3011,0.3077,0.3169,0.3207,0.3226,0.0,0.0,0.0,0.0,0.0,0.0,0.0,0.0,0.0,0.0,0.0,0.0,0.0,0.0,0.2628,0.2267,0.2149,0.2117,0.2146,0.0,0.0,0.0,0.0,0.0,0.0,0.0,0.0,0.0,0.0,0.0,0.0,0.0,0.0,0.1687,0.0,0.1531,0.0,0.0,0.0,0.0,0.0,0.0,0.0,0.0,0.1195,0.1091,0.1146,0.078,0.0714,0.0,0.075,0.0875,0.0,0.0,0.0,0.0,0.0,0.0,0.0,0.0,0.0877,0.0717,0.0259,0.0067,-0.0,-0.0336,-0.047,-0.047,-0.0672,-0.0913,-0.1158,-0.1099,-0.1136,0.0,0.0,0.0,0.0,0.0,0.0,0.0,0.0,0.0,0.0,0.0,0.0,0.0,0.0,0.0,0.0,0.0,0.0,0.0,0.0,0.0,0.0,0.0,0.1304,0.0,0.0,0.0,0.0,0.0,0.0,0.0,0.0,0.0,0.2031,0.2399,0.2828,0.316,0.3145,0.3158,0.3218,0.0,0.0,0.0,0.0,0.0,0.0,0.0,0.2962,0.3015,0.2862,0.2787,0.2783,0.2858,0.2777,0.2481,0.0,0.0,0.2549,0.2432,0.2399,0.2383,0.2432,0.2395,0.2458,0.2517,0.2568,0.0,0.0,0.0,0.0,0.0,0.0,0.0,0.0,0.1439,0.1312,0.0,0.1074,0.0,0.0,0.0,0.0,0.0,0.1222,0.0,0.0,0.0134,-0.0142,-0.0655,-0.0655,-0.0656,-0.073,-0.0655,-0.0559,-0.0385,0.0167,0.0,0.0,0.0,0.0,0.0,0.0,0.0174,-0.0308,-0.0457,-0.0538,-0.0538,-0.0538,-0.0538,-0.0605,-0.1076,-0.1593,-0.2065,-0.2004,-0.1894,-0.1722,-0.1547,0.0,0.0,0.0,0.0,0.0,0.0,0.0,0.0,0.0,0.0,0.0,0.0,0.0,0.0,0.0,0.0,0.0,0.0,0.0,0.0,0.0587,0.0,0.0,0.0,0.0,0.0,0.0,0.0,0.0,0.0,0.0,0.2263,0.2677,0.3055,0.3211,0.0,0.0,0.0,0.0,0.3159,0.3159,0.3159,0.3129,0.3047,0.3097,0.3158,0.2991,0.0,0.0,0.2991,0.2973,0.2721,0.1913,0.2369,0.2962,0.2895,0.2743,0.2719,0.2793,0.2685,0.2695,0.2787,0.2828,0.2801,0.1547,0.0,0.0,0.0,0.0,0.131,0.1359,0.1367,0.1274,0.1189,0.1172,0.1,0.0,0.0,0.0,0.0,0.0,0.0,-0.0191,-0.0592,-0.0549,-0.0574,-0.0674,-0.0674,-0.0674,-0.0674,-0.0674,-0.088,-0.1197,-0.1017,-0.0546,0.0149,0.0,0.0,0.0,0.0,-0.0299,-0.0508,-0.0857,-0.1076,-0.1076,-0.1479,-0.1748,-0.1681,-0.1883,-0.2011,-0.2195,-0.2134,-0.1993,-0.1898,-0.1741,0.0,0.0,0.0,0.0,0.0,0.0,0.0,0.0,0.0,0.0,0.0,0.0,0.0,0.0,0.0,0.0,0.0,0.0,0.0,-0.035,-0.0242,-0.0042,0.0,0.0,0.0,0.0,0.0,0.0,0.0,0.0,0.0,0.2633,0.2943,0.3085,0.0,0.0,0.2956,0.2281,0.235,0.2484,0.2484,0.2484,0.0,0.2457,0.2825,0.3004,0.2486,0.2457,0.2469,0.2432,0.2046,0.1716,0.1944,0.1825,0.1639,0.1699,0.2376,0.2835,0.2972,0.2924,0.2948,0.3003,0.3064,0.2921,0.1154,0.0844,0.1063,0.1115,0.1147,0.1148,0.1179,0.1229,0.1211,0.1199,0.1116,0.0867,0.0758,0.0779,-0.0,0.0,0.0,0.0,-0.0852,-0.1165,-0.1183,-0.1294,-0.15,-0.1501,-0.1495,-0.1481,-0.1495,-0.1623,-0.1851,-0.1869,-0.1527,-0.0879,0.0,0.0,-0.0899,-0.0869,-0.0971,-0.1284,-0.15,-0.1642,-0.1641,-0.203,-0.2221,-0.2221,-0.2221,-0.2221,-0.2221,-0.2185,-0.2137,-0.2072,-0.1883,-0.1691,0.0,0.0,0.0,0.0,0.0,0.0,0.0,0.0,0.0,0.0,0.0,-0.0,0.0288,0.0,0.0,0.0,0.0471,0.0042,-0.1245,-0.1054,0.0,0.0,0.0,0.0,0.0,0.0,0.0,0.0406,0.0553,0.1091,0.2094,0.2228,0.2439,0.309,0.2958,0.2551,0.1879,0.0,0.1745,0.1745,0.1746,0.1745,0.1746,0.2052,0.2173,0.1808,0.1745,0.1746,0.1746,0.1344,0.1142,0.1276,0.1209,0.1008,0.0739,0.1501,0.2232,0.2297,0.2781,0.2944,0.2487,0.2589,0.2619,0.0835,0.0276,0.0835,0.1116,0.1192,0.1269,0.1269,0.1271,0.119,0.1203,0.1063,0.0408,0.0081,-0.0,-0.0693,0.0,-0.1071,-0.1016,-0.1356,-0.1873,-0.1874,-0.2143,-0.2692,-0.2692,-0.2662,-0.2609,-0.2665,-0.2605,-0.2451,-0.2499,-0.2441,-0.2214,-0.1851,-0.1629,-0.1613,-0.1686,-0.1851,-0.226,-0.2208,-0.2178,-0.2174,-0.2189,-0.2225,-0.2221,-0.2221,-0.2221,-0.2221,-0.2221,-0.2195,-0.2137,-0.2075,-0.1902,-0.1626,0.0,0.0,0.0,0.0,0.0,0.0,0.0,0.0,0.0,0.0,0.0,0.0,0.0,0.0,0.0,-0.0641,0.0,-0.1755,-0.1659,0.0,0.0,0.0,-0.1186,-0.0598,-0.047,-0.0309,0.0124,0.0,0.0,0.0876,0.0809,0.1283,0.2644,0.2427,0.2014,0.1614,0.121,0.1009,0.1012,0.101,0.1009,0.1014,0.1076,0.1073,0.1008,0.1008,0.1008,0.1008,0.0873,0.0605,0.0201,0.0538,0.0672,-0.0,0.0536,0.1008,0.0938,0.2013,0.2619,0.1544,0.1678,0.188,-0.0473,-0.0567,-0.0461,-0.0,0.0522,0.1112,0.1114,0.0608,0.0598,0.0255,-0.0342,-0.0504,-0.0831,-0.1239,-0.1454,-0.1856,-0.23,-0.2231,-0.2325,-0.2502,-0.2502,-0.2594,-0.2692,-0.2694,-0.2684,-0.2673,-0.2685,-0.2669,-0.2629,-0.2642,-0.2628,-0.2587,-0.2504,-0.2317,-0.2042,-0.2075,-0.2177,-0.2261,-0.232,-0.222,-0.2177,-0.223,-0.2202,-0.2223,-0.2221,-0.2221,-0.2221,-0.2221,-0.2214,-0.2199,-0.2138,-0.2,-0.191,-0.1696,0.0,0.0,0.0,0.0,0.0,0.0,0.0,0.0,0.0,-0.1054,-0.0715,0.0,-0.0926,0.0,-0.1343,-0.1693,-0.2044,-0.1775,0.0,0.0,-0.1578,-0.1482,-0.1522,-0.134,-0.1092,-0.092,-0.0933,-0.0948,-0.0899,-0.0069,0.035,-0.0,0.0759,0.0941,-0.0202,-0.0,0.0271,0.0276,0.0273,0.0271,0.0276,0.0273,0.0269,0.0269,0.0269,0.0269,0.0269,-0.0202,-0.047,-0.0134,-0.0336,-0.0605,-0.0806,-0.0269,-0.0,-0.0336,0.0604,0.1479,0.1143,0.121,0.1143,-0.1076,-0.1368,-0.1066,-0.0862,-0.0755,0.0092,0.0182,-0.0184,-0.0182,-0.0453,-0.0905,-0.1163,-0.1691,-0.2313,-0.2374,-0.2555,-0.2849,-0.2823,-0.2811,-0.2808,-0.2783,-0.2774,-0.2773,-0.2773,-0.2759,-0.2733,-0.276,-0.2745,-0.2696,-0.2719,-0.2719,-0.2694,-0.2694,-0.2609,-0.2451,-0.245,-0.2441,-0.2414,-0.2387,-0.2345,-0.2288,-0.2187,-0.2228,-0.2195,-0.2168,-0.2221,-0.2221,-0.2195,-0.2179,-0.2178,-0.2119,-0.1995,-0.1932,-0.1756,-0.1627,0.0,0.0,0.0,0.0,0.0,0.0,0.0,0.0,0.0,0.0,0.0,-0.1313,-0.1489,-0.17,-0.1906,-0.221,-0.2001,-0.1859,-0.1854,-0.1835,-0.1852,-0.1876,-0.1812,-0.1752,-0.171,-0.1662,-0.1614,-0.1638,-0.107,-0.0717,-0.1164,-0.0569,-0.0349,-0.0907,-0.0767,-0.0561,-0.0569,-0.0563,-0.0488,-0.0491,-0.0479,-0.047,-0.047,-0.047,-0.047,-0.047,-0.0806,-0.0941,-0.0605,-0.0806,-0.1076,-0.1076,-0.0806,-0.0672,-0.0873,-0.047,0.0067,0.0134,0.0403,0.0403,-0.1513,-0.2115,-0.1486,-0.159,-0.2113,-0.1461,-0.1151,-0.1053,-0.105,-0.1144,-0.124,-0.181,-0.2477,-0.3146,-0.3146,-0.3146,-0.314,-0.3087,-0.3061,-0.2967,-0.2918,-0.2897,-0.2897,-0.2897,-0.2865,-0.2809,-0.2861,-0.2827,-0.2719,-0.2768,-0.2767,-0.2718,-0.2717,-0.2711,-0.2702,-0.265,-0.259,-0.2522,-0.2462,-0.2403,-0.2346,-0.2216,-0.2183,-0.2173,-0.2185,-0.2221,-0.222,-0.2168,-0.2074,-0.2137,-0.2088,-0.2029,-0.1906,-0.18,-0.1733,0.0,-0.156,0.0,0.0,0.0,0.0,0.0,0.0,0.0,0.0,-0.1629,-0.1659,-0.1589,-0.1866,-0.2079,-0.22,-0.2189,-0.2153,-0.1951,-0.2093,-0.2165,-0.1963,-0.208,-0.2186,-0.2186,-0.2087,-0.1972,-0.1906,-0.1906,-0.176,-0.1476,-0.155,-0.1547,-0.1398,-0.1242,-0.1164,-0.1243,-0.1245,-0.1086,-0.1057,-0.1031,-0.1081,-0.1078,-0.1076,-0.1143,-0.1076,-0.1143,-0.1143,-0.1143,-0.1076,-0.1143,-0.1076,-0.1076,-0.1076,-0.1076,-0.1008,-0.1008,-0.0941,-0.0538,-0.0403,-0.2826,-0.2925,-0.2815,-0.2816,-0.2925,-0.2806,-0.2375,-0.1753,-0.1726,-0.2095,-0.2667,-0.2859,-0.2954,-0.3146,-0.3146,-0.3146,-0.3143,-0.3037,-0.3127,-0.3126,-0.3022,-0.3111,-0.3016,-0.3016,-0.3078,-0.2928,-0.2936,-0.2906,-0.2839,-0.2852,-0.2852,-0.2841,-0.2841,-0.2815,-0.2767,0.0,0.0,0.0,-0.2523,-0.2463,-0.2405,-0.2347,-0.2223,-0.2175,-0.2185,0.0,-0.2221,-0.221,-0.2204,-0.2203,-0.2192,0.0,0.0,0.0,0.0,0.0,0.0,0.0,0.0,0.0,0.0,0.0,-0.1813,-0.1748,-0.1675,-0.1852,-0.1918,-0.1703,-0.1984,-0.219,-0.2202,-0.2214,-0.2154,-0.2155,-0.2198,-0.2157,-0.2159,-0.214,-0.2173,-0.2101,-0.2256,-0.2282,-0.1875,-0.1805,-0.1895,-0.1926,-0.2171,-0.2171,-0.1935,-0.1647,-0.1472,-0.1422,-0.1353,-0.1182,-0.1129,-0.1117,-0.1102,-0.1084,-0.121,-0.1278,-0.128,-0.1413,-0.1412,-0.1279,-0.1277,-0.121,-0.1143,-0.1076,-0.1076,-0.1076,-0.1076,-0.1076,-0.1076,-0.1008,-0.0941,-0.3274,0.0,-0.3244,-0.323,0.0,-0.323,-0.2912,-0.2583,-0.2559,-0.2746,-0.3139,-0.3138,-0.3139,-0.3138,-0.3139,-0.3139,-0.3136,-0.3108,-0.3094,-0.3093,-0.3158,-0.3146,-0.3146,-0.3146,-0.3127,-0.3096,-0.3098,-0.3066,-0.2917,-0.2916,-0.2902,-0.2875,-0.2875,-0.2858,-0.2828,-0.2798,-0.2723,-0.2604,-0.2571,-0.2526,-0.2466,-0.2407,-0.2349,-0.2219,-0.223,0.0,0.0,0.0,0.0,0.0,0.0,0.0,0.0,-0.1989,0.0,-0.1929,-0.1899,-0.1882,-0.1882,-0.1883,-0.1909,-0.1966,-0.2061,-0.1992,-0.1932,-0.204,-0.2095,-0.1937,-0.2119,-0.2166,-0.2195,-0.2199,-0.221,-0.224,-0.2271,-0.2217,-0.2223,-0.2268,-0.2227,-0.2232,-0.2403,-0.2435,-0.2155,-0.2158,-0.2169,-0.2272,-0.2435,-0.2435,-0.2273,-0.1925,-0.1676,-0.1693,-0.1601,-0.1427,-0.1317,-0.135,-0.1328,-0.117,-0.1235,-0.1305,-0.1235,-0.1304,-0.1373,-0.1302,-0.1291,-0.1277,-0.121,-0.121,-0.121,-0.1076,-0.1076,-0.1076,-0.1076,-0.1076,-0.1076,-0.3337,-0.3334,-0.3283,-0.3263,-0.3263,-0.3263,-0.3263,-0.326,0.0,0.0,0.0,-0.323,-0.323,-0.323,-0.323,-0.323,-0.3228,-0.3179,-0.3155,-0.3153,-0.3105,-0.308,-0.308,-0.308,-0.3075,-0.3161,-0.3065,-0.3033,-0.2974,-0.2963,-0.3026,-0.3162,-0.3147,-0.323,-0.3406,-0.335,-0.3256,-0.313,-0.2775,-0.2572,-0.2511,-0.2451,-0.2398,-0.2352,-0.2211,-0.2221,-0.2172,-0.211,-0.2144,-0.2078,-0.2095,-0.1999,-0.1989,-0.2061,-0.2022,-0.2123,-0.2138,-0.2079,-0.2144,-0.2144,-0.2144,-0.2144,-0.2192,-0.2199,-0.2147,-0.2192,-0.2227,-0.2169,-0.217,-0.2195,-0.2184,-0.219,-0.2208,-0.2257,-0.2272,-0.235,-0.2281,-0.2326,-0.2359,-0.244,-0.2477,-0.251,-0.2507,-0.2507,-0.251,-0.251,-0.2511,-0.251,-0.2431,-0.2194,-0.1957,-0.1879,-0.1777,-0.1754,-0.1658,-0.1615,-0.1562,-0.1332,-0.1406,-0.148,-0.1264,-0.1266,-0.1338,-0.1399,-0.1374,-0.1356,-0.1347,-0.1344,-0.1277,-0.1143,-0.1143,-0.1143,-0.1076,-0.1076,-0.1076,-0.3401,-0.3398,-0.3391,-0.3387,-0.3387,-0.3387,-0.3387,-0.3379,-0.3275,-0.323,-0.323,-0.323,-0.323,-0.323,-0.323,-0.323,-0.3229,-0.3221,-0.3218,-0.3218,-0.3209,-0.3204,-0.3206,-0.3204,-0.3177,-0.3129,-0.3127,-0.3095,-0.3037,-0.3077,-0.3411,-0.4124,-0.4156,-0.4476,-0.5275,-0.526,-0.5277,-0.5147,-0.3476,-0.2572,-0.2511,-0.2451,-0.2417,-0.2403,-0.2303,-0.2171,-0.2232,-0.2173,-0.2209,-0.2209,-0.22,-0.2171,-0.2119,-0.2164,-0.2175,-0.2135,-0.2178,-0.2209,-0.2207,-0.2209,-0.2209,-0.2209,-0.2217,-0.2217,-0.221,-0.2216,-0.2176,-0.2225,-0.2232,-0.2186,-0.2313,-0.2323,-0.2327,-0.2268,-0.238,-0.2407,-0.2409,-0.2458,-0.2493,-0.2493,-0.2503,-0.251,-0.251,-0.251,-0.251,-0.251,-0.251,-0.251,-0.2431,-0.2276,-0.2119,-0.1964,-0.1882,-0.1861,-0.183,-0.1736,-0.1764,-0.1622,-0.179,-0.1872,-0.1623,-0.1714,-0.1649,-0.1478,-0.1531,-0.1515,-0.1352,-0.1412,-0.1412,-0.1344,-0.1277,-0.1277,-0.1143,-0.1076,-0.1076,-0.3459,-0.3454,-0.3425,-0.3413,-0.3413,-0.3413,-0.3413,-0.3407,-0.3354,-0.3311,-0.3278,-0.3245,-0.323,-0.323,-0.323,-0.323,-0.323,-0.323,-0.323,-0.323,-0.323,-0.323,-0.323,-0.323,-0.3215,-0.3189,-0.3188,-0.3433,-0.3811,-0.3863,-0.4268,-0.5082,-0.5119,-0.5275,-0.5633,-0.5722,-0.5659,-0.5626,-0.4615,-0.3838,-0.3354,-0.3196,-0.291,-0.242,-0.229,-0.2308,-0.2177,-0.2218,-0.2188,-0.2223,-0.2221,-0.2209,-0.2182,-0.2206,-0.2209,-0.2182,-0.2204,-0.2221,-0.2221,-0.2221,-0.2168,-0.22,-0.2203,-0.2218,-0.2249,-0.2222,-0.2228,-0.2286,-0.2223,-0.2245,-0.2375,-0.238,-0.2394,-0.2426,-0.2454,-0.2469,-0.2471,-0.2491,-0.251,-0.251,-0.251,-0.251,-0.251,-0.251,-0.251,-0.251,-0.251,-0.251,-0.251,-0.2431,-0.2354,-0.2277,-0.2199,-0.219,-0.201,-0.2059,-0.2026,-0.1832,-0.1921,-0.1988,-0.1803,-0.1813,-0.173,-0.162,-0.1596,-0.1571,-0.1482,-0.1547,-0.1547,-0.1547,-0.1479,-0.1412,-0.1277,-0.1143,-0.1076,-0.3516,-0.3512,-0.347,-0.3451,-0.3452,-0.3451,-0.3452,-0.3451,-0.3437,-0.3405,-0.3356,-0.3298,-0.3271,-0.3273,-0.3271,-0.3264,-0.3252,-0.3251,-0.3244,-0.323,-0.323,-0.3331,-0.3533,-0.3533,-0.3732,-0.393,-0.393,-0.4265,-0.4822,-0.4888,-0.5339,-0.6048,-0.6266,-0.634,-0.6343,-0.634,-0.6377,-0.627,-0.6138,-0.5487,-0.4376,-0.4214,-0.3742,-0.3052,-0.2803,-0.2673,-0.2574,-0.2342,-0.2244,-0.2199,-0.2195,-0.2195,-0.2195,-0.2181,-0.2174,-0.2173,-0.223,-0.2221,-0.2223,-0.2168,-0.2194,-0.217,-0.2187,-0.2219,-0.2269,-0.2312,-0.2231,-0.2346,-0.2279,-0.2377,-0.2428,-0.244,-0.2459,-0.2504,-0.251,-0.2507,-0.2508,-0.251,-0.251,-0.251,-0.251,-0.251,-0.251,-0.251,-0.251,-0.251,-0.251,-0.251,-0.251,-0.251,-0.251,-0.251,-0.251,-0.243,-0.2271,-0.2318,-0.2287,-0.1974,-0.2056,-0.2112,-0.1929,-0.184,-0.1756,-0.1722,-0.168,-0.1729,-0.1717,-0.1786,-0.1783,-0.1709,-0.1714,-0.1651,-0.1446,-0.1367,-0.1223,-0.3578,-0.3578,-0.357,-0.3571,-0.3567,-0.3568,-0.3567,-0.356,-0.3514,-0.3486,-0.3471,-0.342,-0.3394,-0.3395,-0.3392,-0.3361,-0.3315,-0.3313,-0.3286,-0.3238,-0.323,-0.3731,-0.4638,-0.4634,-0.5131,-0.5924,-0.6024,-0.6006,-0.6158,-0.6174,-0.649,-0.7259,-0.7923,-0.8304,-0.8296,-0.83,-0.8288,-0.836,-0.81,-0.7087,-0.527,-0.5165,-0.5023,-0.4758,-0.3971,-0.3545,-0.3442,-0.2721,-0.2324,-0.2319,-0.2315,-0.2317,-0.2311,-0.2266,-0.2166,-0.2233,-0.2187,-0.2221,-0.2225,-0.2206,-0.2171,-0.2178,-0.2227,-0.2277,-0.2406,-0.2406,-0.2405,-0.2411,-0.2411,-0.2439,-0.2492,-0.2499,-0.2499,-0.2507,-0.251,-0.251,-0.251,-0.251,-0.251,-0.251,-0.251,-0.251,-0.251,-0.251,-0.251,-0.251,-0.251,-0.251,-0.251,-0.251,-0.251,-0.251,-0.251,-0.251,-0.243,-0.2507,-0.24,-0.2364,-0.239,-0.2308,-0.2122,-0.2032,-0.2032,-0.1842,-0.1905,-0.1943,-0.2016,-0.217,-0.2145,-0.1959,-0.1976,-0.1948,-0.1803,-0.1629,-0.1466,-0.3587,-0.3587,-0.3587,-0.3587,-0.3587,-0.3587,-0.3587,-0.3585,-0.3561,-0.355,-0.3548,-0.3526,-0.3478,-0.3414,-0.3413,-0.3398,-0.3376,-0.3376,-0.378,-0.4366,-0.4321,-0.4808,-0.5819,-0.5756,-0.6024,-0.6323,-0.642,-0.6685,-0.7195,-0.7746,-0.8038,-0.82,-0.8567,-0.867,-0.858,-0.8572,-0.8572,-0.8564,-0.8495,-0.7982,-0.7072,-0.6394,-0.568,-0.5012,-0.4183,-0.3753,-0.363,-0.2845,-0.2371,-0.2265,-0.2261,-0.2261,-0.2261,-0.224,-0.2227,-0.2297,-0.2277,-0.2262,-0.2262,-0.2285,-0.2312,-0.2345,-0.2372,-0.241,-0.2466,-0.2473,-0.2473,-0.2473,-0.2473,-0.2485,-0.2506,-0.251,-0.251,-0.251,-0.251,-0.251,-0.251,-0.251,-0.251,-0.251,-0.251,-0.251,-0.251,-0.251,-0.251,-0.251,-0.251,-0.251,-0.251,-0.251,-0.251,-0.251,-0.251,-0.251,-0.251,-0.251,-0.2497,-0.2485,-0.2492,-0.2411,-0.2289,-0.2271,-0.2186,-0.201,-0.2063,-0.2048,-0.2109,-0.2084,-0.2128,-0.2117,-0.2046,-0.2004,-0.1963,-0.1857,-0.1634,-0.3587,-0.3587,-0.3587,-0.3587,-0.3587,-0.3587,-0.3587,-0.3587,-0.3587,-0.3587,-0.3587,-0.3587,-0.3541,-0.3467,-0.3461,-0.3559,-0.3865,-0.397,-0.4596,-0.562,-0.5523,-0.5987,-0.7006,-0.6885,-0.7021,-0.7223,-0.7322,-0.7671,-0.8348,-0.887,-0.9096,-0.8974,-0.8873,-0.8759,-0.8645,-0.8597,-0.8572,-0.8572,-0.8572,-0.8475,-0.8195,-0.7454,-0.6582,-0.5777,-0.4937,-0.4342,-0.4047,-0.3203,-0.2651,-0.2386,-0.2383,-0.2383,-0.2383,-0.2368,-0.2352,-0.2264,-0.2261,-0.2261,-0.2262,-0.235,-0.2376,-0.2416,-0.2433,-0.2463,-0.25,-0.251,-0.251,-0.2508,-0.251,-0.2508,-0.251,-0.251,-0.251,-0.251,-0.251,-0.251,-0.251,-0.251,-0.251,-0.251,-0.251,-0.251,-0.251,-0.251,-0.251,-0.251,-0.251,-0.251,-0.251,-0.251,-0.251,-0.251,-0.251,-0.251,-0.251,-0.251,-0.251,-0.251,-0.251,-0.2496,-0.2447,-0.2437,-0.2436,-0.2196,-0.2233,-0.2227,-0.2252,-0.2209,-0.2164,-0.2232,-0.2143,-0.2066,-0.2131,-0.2009,-0.1866,-0.3587,-0.3587,-0.3587,-0.3587,-0.3587,-0.3587,-0.3587,-0.3587,-0.3587,-0.3587,-0.3587,-0.3587,-0.3585,-0.3684,-0.368,-0.4208,-0.5021,-0.5122,-0.5728,-0.6809,-0.6681,-0.7229,-0.8139,-0.7999,-0.8425,-0.9126,-0.9126,-0.9316,-0.9395,-0.9433,-0.9336,-0.9307,-0.8999,-0.8824,-0.8775,-0.8641,-0.8572,-0.8572,-0.8572,-0.8483,-0.8316,-0.8187,-0.7915,-0.7461,-0.6634,-0.5625,-0.4988,-0.4135,-0.3352,-0.2577,-0.2495,-0.2496,-0.2493,-0.2446,-0.2394,-0.2349,-0.2341,-0.2339,-0.2276,-0.239,-0.242,-0.2428,-0.2471,-0.2506,-0.2508,-0.251,-0.251,-0.251,-0.2515,-0.2516,-0.251,-0.251,-0.251,-0.251,-0.251,-0.251,-0.251,-0.251,-0.251,-0.251,-0.251,-0.251,-0.251,-0.251,-0.251,-0.251,-0.251,-0.251,-0.251,-0.251,-0.251,-0.251,-0.251,-0.251,-0.251,-0.251,-0.251,-0.251,-0.251,-0.2508,-0.2488,-0.2471,-0.2471,-0.2466,-0.2361,-0.2364,-0.2482,-0.2484,-0.2451,-0.2405,-0.2231,-0.2227,-0.2283,-0.2228,-0.2152,-0.3587,-0.3587,-0.3587,-0.3587,-0.3587,-0.3587,-0.3587,-0.3587,-0.3587,-0.3587,-0.3587,-0.3587,-0.4033,-0.4704,-0.4702,-0.5021,-0.5324,-0.5322,-0.6401,-0.7985,-0.8068,-0.8482,-0.9427,-0.9263,-0.9322,-0.9537,-0.9624,-0.9624,-0.962,-0.9559,-0.947,-0.9336,-0.912,-0.8942,-0.8812,-0.8653,-0.8572,-0.8572,-0.8572,-0.8536,-0.8459,-0.8353,-0.8223,-0.8093,-0.6998,-0.6185,-0.578,-0.453,-0.3675,-0.3366,-0.2821,-0.251,-0.2508,-0.2491,-0.2469,-0.245,-0.2447,-0.2447,-0.245,-0.2465,-0.2477,-0.248,-0.2497,-0.2511,-0.251,-0.251,-0.251,-0.2516,-0.2549,-0.2553,-0.2518,-0.251,-0.251,-0.251,-0.2511,-0.2514,-0.251,-0.251,-0.251,-0.251,-0.251,-0.251,-0.2515,-0.251,-0.251,-0.251,-0.251,-0.251,-0.251,-0.251,-0.251,-0.251,-0.251,-0.251,-0.251,-0.251,-0.251,-0.251,-0.251,-0.251,-0.2497,-0.2493,-0.2493,-0.2466,-0.2452,-0.2456,-0.248,-0.2436,-0.2431,-0.2362,-0.2198,-0.2228,-0.2349,-0.2279,-0.2208,-0.3587,-0.3587,-0.3587,-0.3587,-0.3587,-0.3587,-0.3587,-0.3587,-0.3587,-0.3587,-0.3587,-0.3587,-0.4257,-0.526,-0.5369,-0.5926,-0.6482,-0.6591,-0.759,-0.935,-0.9309,-0.961,-1.012,-1.0002,-0.9827,-0.9713,-0.9652,-0.9628,-0.9727,-0.9727,-0.9755,-0.9732,-0.9552,-0.927,-0.9092,-0.8824,-0.8718,-0.8673,-0.8572,-0.8568,-0.8552,-0.8446,-0.8349,-0.8179,-0.7469,-0.6844,-0.6325,-0.5174,-0.4297,-0.383,-0.321,-0.2821,-0.2588,-0.251,-0.251,-0.251,-0.2508,-0.251,-0.251,-0.251,-0.251,-0.2511,-0.2529,-0.2534,-0.2516,-0.2545,-0.2557,-0.2559,-0.2593,-0.2609,-0.2582,-0.2571,-0.2561,-0.2549,-0.2557,-0.2559,-0.2545,-0.2559,-0.2571,-0.2575,-0.2576,-0.2565,-0.2544,-0.2541,-0.2531,-0.2516,-0.251,-0.251,-0.251,-0.251,-0.251,-0.251,-0.251,-0.251,-0.251,-0.2511,-0.2512,-0.2512,-0.251,-0.251,-0.251,-0.251,-0.2497,-0.2469,-0.2458,-0.2461,-0.2437,-0.2391,-0.2339,-0.2285,-0.221,-0.2236,-0.2297,-0.2253,-0.2187,-0.3587,-0.3587,-0.3587,-0.3587,-0.3587,-0.3587,-0.3587,-0.3587,-0.3587,-0.3587,-0.3587,-0.3587,-0.4369,-0.5369,-0.5592,-0.6702,-0.8478,-0.8702,-0.9364,-1.0457,-1.0421,-1.0333,-1.0391,-1.0071,-0.988,-0.9827,-0.9701,-0.9727,-0.9924,-0.992,-1.0105,-1.0266,-1.0088,-0.9793,-0.9461,-0.9249,-0.8991,-0.8693,-0.8656,-0.8656,-0.8568,-0.8552,-0.8467,-0.8329,-0.8183,-0.7681,-0.6655,-0.6257,-0.5326,-0.4075,-0.3754,-0.3365,-0.2666,-0.251,-0.251,-0.251,-0.251,-0.251,-0.2515,-0.2518,-0.2522,-0.2537,-0.2572,-0.2582,-0.2557,-0.2617,-0.2654,-0.262,-0.2654,-0.2688,-0.2683,-0.2688,-0.2666,-0.2619,-0.2642,-0.2649,-0.2625,-0.2653,-0.2688,-0.268,-0.2673,-0.2662,-0.262,-0.2593,-0.2572,-0.2535,-0.2515,-0.251,-0.251,-0.251,-0.251,-0.2511,-0.2522,-0.2534,-0.2522,-0.2512,-0.2514,-0.2515,-0.2511,-0.251,-0.251,-0.2508,-0.2495,-0.247,-0.2459,-0.2461,-0.244,-0.2397,-0.2373,-0.2332,-0.2257,-0.2239,-0.2216,-0.226,-0.2222,-0.3587,-0.3587,-0.3587,-0.3587,-0.3587,-0.3587,-0.3587,-0.3587,-0.3587,-0.3587,-0.3587,-0.3587,-0.47,-0.6253,-0.6589,-0.7919,-1.0029,-1.0139,-1.0359,-1.0676,-1.0631,-1.0546,-1.0412,-1.0193,-0.9945,-0.9738,-0.9657,-0.9628,-0.9727,-0.9924,-1.0023,-0.9887,-1.0022,-0.9832,-0.9473,-0.9457,-0.9272,-0.8849,-0.8828,-0.874,-0.8656,-0.8572,-0.8536,-0.8479,-0.8361,-0.8058,-0.7697,-0.6862,-0.5924,-0.488,-0.4178,-0.3443,-0.2666,-0.251,-0.251,-0.251,-0.251,-0.2533,-0.2567,-0.2572,-0.259,-0.2627,-0.2654,-0.2655,-0.2639,-0.267,-0.2687,-0.2672,-0.2717,-0.2741,-0.2715,-0.2773,-0.2766,-0.2674,-0.268,-0.2692,-0.2676,-0.2683,-0.2691,-0.2694,-0.2694,-0.2683,-0.2662,-0.2638,-0.2604,-0.2576,-0.2541,-0.2515,-0.2515,-0.2519,-0.251,-0.251,-0.2537,-0.2567,-0.2559,-0.2552,-0.2549,-0.2533,-0.2518,-0.2511,-0.251,-0.2507,-0.2493,-0.2477,-0.2466,-0.2448,-0.2428,-0.241,-0.2388,-0.2362,-0.2339,-0.225,-0.2237,-0.2285,-0.2253,-0.3587,-0.3587,-0.3587,-0.3587,-0.3587,-0.3587,-0.3587,-0.3699,-0.4145,-0.4257,-0.4367,-0.47,-0.5922,-0.7473,-0.7805,-0.8913,-1.0578,-1.0692,-1.0692,-1.0692,-1.0692,-1.0627,-1.0513,-1.0347,-1.0075,-0.9782,-0.9726,-0.9788,-0.9924,-1.0019,-1.0117,-1.0186,-1.0378,-1.0327,-0.9862,-0.9912,-0.9639,-0.9144,-0.9017,-0.889,-0.8668,-0.8572,-0.8572,-0.8552,-0.8455,-0.8398,-0.8373,-0.7602,-0.677,-0.5813,-0.4605,-0.3538,-0.2657,-0.256,-0.2553,-0.2565,-0.2541,-0.2545,-0.2617,-0.2613,-0.2627,-0.2681,-0.2713,-0.2713,-0.2707,-0.2721,-0.2753,-0.2738,-0.2781,-0.2801,-0.2783,-0.2822,-0.2832,-0.2773,-0.2763,-0.2759,-0.2758,-0.2738,-0.2743,-0.2756,-0.2766,-0.2749,-0.2722,-0.27,-0.2657,-0.2636,-0.2583,-0.256,-0.2563,-0.256,-0.2556,-0.2568,-0.2609,-0.2619,-0.2601,-0.2593,-0.2587,-0.2557,-0.2525,-0.2515,-0.251,-0.251,-0.2501,-0.248,-0.2465,-0.244,-0.242,-0.2418,-0.2405,-0.2376,-0.2356,-0.2349,-0.2268,-0.2254,-0.2304,-0.3587,-0.3587,-0.3587,-0.3587,-0.3587,-0.3587,-0.3587,-0.3811,-0.4702,-0.5148,-0.5483,-0.6144,-0.7473,-0.8589,-0.8699,-0.9475,-1.0578,-1.0692,-1.0692,-1.0692,-1.0688,-1.0664,-1.0707,-1.0465,-1.0205,-1.001,-0.9969,-1.0079,-1.0323,-1.0314,-1.0609,-1.0895,-1.0974,-1.0891,-1.0514,-1.05,-1.0001,-0.9332,-0.9199,-0.9029,-0.8613,-0.8597,-0.858,-0.8572,-0.8556,-0.8544,-0.8511,-0.8283,-0.777,-0.6705,-0.4999,-0.375,-0.3008,-0.2717,-0.2629,-0.2669,-0.2579,-0.2602,-0.2657,-0.2659,-0.2655,-0.2717,-0.2762,-0.2767,-0.274,-0.2798,-0.2832,-0.2796,-0.2835,-0.2867,-0.2862,-0.2871,-0.2868,-0.2872,-0.2853,-0.2854,-0.2865,-0.2818,-0.2811,-0.2847,-0.2868,-0.2852,-0.2792,-0.2778,-0.2744,-0.2703,-0.2647,-0.2635,-0.2646,-0.2638,-0.2639,-0.2655,-0.2676,-0.2684,-0.267,-0.2666,-0.2655,-0.2609,-0.2565,-0.2533,-0.2514,-0.251,-0.251,-0.2488,-0.2469,-0.2441,-0.2432,-0.244,-0.2431,-0.2407,-0.2394,-0.2386,-0.2384,-0.2382,-0.2377,-0.3587,-0.3587,-0.3587,-0.3587,-0.3587,-0.3587,-0.3587,-0.3587,-0.3923,-0.4814,-0.5369,-0.5701,-0.7146,-0.8813,-0.8923,-0.9585,-1.0468,-1.0692,-1.0692,-1.0692,-1.0692,-1.072,-1.0741,-1.0564,-1.0468,-1.0467,-1.0319,-1.0305,-1.0426,-1.0417,-1.0511,-1.0609,-1.0895,-1.0807,-1.0541,-1.0523,-1.0193,-0.9701,-0.9481,-0.9117,-0.8783,-0.8755,-0.8686,-0.8576,-0.8576,-0.8572,-0.8568,-0.8524,-0.799,-0.6795,-0.5108,-0.411,-0.3954,-0.318,-0.268,-0.2688,-0.2669,-0.2674,-0.2734,-0.274,-0.2762,-0.2818,-0.2831,-0.2842,-0.283,-0.2853,-0.2867,-0.2853,-0.2868,-0.2875,-0.2875,-0.2875,-0.2875,-0.2875,-0.2875,-0.2875,-0.2872,-0.2862,-0.2858,-0.2871,-0.2875,-0.2862,-0.2845,-0.2812,-0.2782,-0.2755,-0.2713,-0.2679,-0.2702,-0.2695,-0.2685,-0.27,-0.2718,-0.2737,-0.2745,-0.2743,-0.2719,-0.2668,-0.2616,-0.2557,-0.2533,-0.251,-0.251,-0.2503,-0.2495,-0.2471,-0.248,-0.2489,-0.2466,-0.244,-0.2451,-0.2454,-0.2467,-0.247,-0.2463,-0.3587,-0.3587,-0.3587,-0.3587,-0.3587,-0.3587,-0.3587,-0.381,-0.4698,-0.5367,-0.6258,-0.7257,-0.8364,-0.9585,-0.9695,-1.0029,-1.0692,-1.0798,-1.0907,-1.0907,-1.1021,-1.1076,-1.1,-1.0862,-1.0924,-1.0871,-1.0763,-1.0623,-1.0653,-1.0654,-1.0614,-1.0605,-1.0703,-1.0742,-1.066,-1.0435,-1.0245,-0.9987,-0.9665,-0.9393,-0.8954,-0.8938,-0.8836,-0.8714,-0.867,-0.8653,-0.8584,-0.8568,-0.8103,-0.6915,-0.5595,-0.4741,-0.4484,-0.3425,-0.2744,-0.2674,-0.2725,-0.2726,-0.2797,-0.28,-0.2811,-0.2858,-0.2875,-0.2875,-0.2872,-0.2875,-0.2875,-0.2873,-0.2875,-0.2875,-0.2875,-0.2875,-0.2875,-0.2875,-0.2875,-0.2875,-0.2875,-0.2873,-0.2875,-0.2875,-0.2875,-0.2875,-0.2875,-0.2841,-0.2827,-0.2811,-0.2768,-0.276,-0.2767,-0.2745,-0.274,-0.276,-0.2771,-0.2789,-0.2782,-0.2773,-0.2748,-0.2702,-0.2647,-0.259,-0.2555,-0.2522,-0.251,-0.251,-0.251,-0.251,-0.251,-0.251,-0.2499,-0.2489,-0.2508,-0.251,-0.251,-0.251,-0.251,-0.3587,-0.3587,-0.3587,-0.3587,-0.3587,-0.3587,-0.3587,-0.4033,-0.5697,-0.6808,-0.7362,-0.9471,-1.0139,-1.0692,-1.0578,-1.0692,-1.0802,-1.1126,-1.1126,-1.124,-1.135,-1.1437,-1.1324,-1.1424,-1.1419,-1.134,-1.119,-1.1106,-1.1107,-1.092,-1.0829,-1.0815,-1.0806,-1.0806,-1.0672,-1.0493,-1.0312,-1.0084,-0.9861,-0.9577,-0.9157,-0.9116,-0.9031,-0.8877,-0.88,-0.871,-0.8609,-0.8568,-0.8101,-0.7132,-0.6163,-0.5435,-0.4814,-0.3605,-0.2905,-0.2839,-0.2782,-0.2773,-0.2842,-0.2824,-0.2816,-0.2864,-0.2875,-0.2875,-0.2875,-0.2875,-0.2875,-0.2875,-0.2875,-0.2875,-0.2875,-0.2875,-0.2875,-0.2875,-0.2875,-0.2875,-0.2875,-0.2875,-0.2875,-0.2875,-0.2875,-0.2875,-0.2875,-0.2875,-0.2872,-0.2847,-0.2818,-0.2815,-0.2818,-0.2807,-0.2815,-0.2839,-0.2843,-0.2842,-0.2822,-0.2798,-0.2764,-0.2725,-0.2669,-0.2616,-0.258,-0.2549,-0.2522,-0.251,-0.251,-0.251,-0.251,-0.251,-0.251,-0.251,-0.251,-0.251,-0.251,-0.251,-0.251,-0.3587,-0.3587,-0.3587,-0.3587,-0.3587,-0.3587,-0.3587,-0.3699,-0.5146,-0.6366,-0.7252,-0.8696,-0.9915,-1.1021,-1.1017,-1.1131,-1.135,-1.1459,-1.1459,-1.1568,-1.1787,-1.1891,-1.1787,-1.1678,-1.1679,-1.1745,-1.1681,-1.1463,-1.1392,-1.1189,-1.1061,-1.1025,-1.0838,-1.0806,-1.0708,-1.0408,-1.0301,-1.0058,-0.9759,-0.9563,-0.9431,-0.9295,-0.9218,-0.9047,-0.8909,-0.8747,-0.8609,-0.8572,-0.812,-0.7139,-0.6163,-0.546,-0.5104,-0.3751,-0.2948,-0.2861,-0.2854,-0.2843,-0.2865,-0.2861,-0.2858,-0.2869,-0.2875,-0.2875,-0.2875,-0.2875,-0.2875,-0.2875,-0.2875,-0.2875,-0.2875,-0.2875,-0.2875,-0.2875,-0.2875,-0.2875,-0.2875,-0.2875,-0.2875,-0.2875,-0.2875,-0.2875,-0.2875,-0.2875,-0.2873,-0.2871,-0.2868,-0.2862,-0.286,-0.2856,-0.2864,-0.2875,-0.2871,-0.2861,-0.2853,-0.2827,-0.2797,-0.2759,-0.2704,-0.2655,-0.2619,-0.2582,-0.2557,-0.2531,-0.251,-0.2511,-0.2516,-0.251,-0.251,-0.251,-0.251,-0.251,-0.251,-0.251,-0.251,-0.3587,-0.3587,-0.3587,-0.3587,-0.3587,-0.3587,-0.3587,-0.3811,-0.4925,-0.6146,-0.736,-0.8585,-0.9915,-1.124,-1.1345,-1.1459,-1.1568,-1.1782,-1.1896,-1.2005,-1.2114,-1.2219,-1.2219,-1.211,-1.2045,-1.2163,-1.1963,-1.1892,-1.1737,-1.1383,-1.1148,-1.0966,-1.0748,-1.0496,-1.0422,-1.0216,-1.0019,-1.0015,-0.9727,-0.9575,-0.9498,-0.9478,-0.9397,-0.9222,-0.9051,-0.8714,-0.8098,-0.8005,-0.7251,-0.6146,-0.5394,-0.5104,-0.5022,-0.3859,-0.2964,-0.2875,-0.2875,-0.2875,-0.2875,-0.2875,-0.2873,-0.2875,-0.2875,-0.2875,-0.2875,-0.2875,-0.2875,-0.2875,-0.2875,-0.2875,-0.2875,-0.2875,-0.2875,-0.2875,-0.2875,-0.2875,-0.2875,-0.2875,-0.2875,-0.2875,-0.2875,-0.2875,-0.2875,-0.2875,-0.2875,-0.2873,-0.2873,-0.2869,-0.2869,-0.2867,-0.2868,-0.2875,-0.2875,-0.2873,-0.2872,-0.2857,-0.2832,-0.2796,-0.2753,-0.2709,-0.267,-0.2634,-0.2597,-0.2575,-0.2555,-0.2527,-0.2527,-0.2519,-0.2514,-0.251,-0.251,-0.251,-0.251,-0.251,-0.251,-0.3587,-0.3587,-0.3587,-0.3587,-0.3587,-0.3587,-0.3699,-0.3921,-0.5146,-0.6586,-0.7802,-0.9133,-1.0574,-1.1459,-1.1678,-1.1678,-1.1787,-1.2005,-1.2114,-1.2332,-1.2332,-1.2327,-1.2332,-1.2327,-1.2323,-1.2417,-1.2182,-1.2172,-1.1967,-1.174,-1.1321,-1.0848,-1.0606,-1.0384,-1.0057,-0.9821,-0.9821,-0.9826,-0.9727,-0.9624,-0.9608,-0.96,-0.951,-0.934,-0.893,-0.8438,-0.7716,-0.7263,-0.6377,-0.4625,-0.4375,-0.4437,-0.4156,-0.3593,-0.2875,-0.2875,-0.2875,-0.2875,-0.2875,-0.2875,-0.2875,-0.2875,-0.2875,-0.2875,-0.2875,-0.2876,-0.2883,-0.2897,-0.2905,-0.2917,-0.2902,-0.2899,-0.2895,-0.2888,-0.2884,-0.2875,-0.2875,-0.2875,-0.2875,-0.2875,-0.2875,-0.2875,-0.2875,-0.2875,-0.2875,-0.2875,-0.2875,-0.2875,-0.2875,-0.2875,-0.2875,-0.2875,-0.2875,-0.2875,-0.2875,-0.2873,-0.2852,-0.2834,-0.2796,-0.2771,-0.2738,-0.273,-0.27,-0.2636,-0.2606,-0.2582,-0.2557,-0.2548,-0.2538,-0.252,-0.251,-0.251,-0.251,-0.251,-0.2518,-0.3587,-0.3587,-0.3587,-0.3587,-0.3587,-0.3587,-0.3921,-0.4589,-0.6364,-0.7581,-0.8579,-1.0347,-1.1345,-1.1896,-1.1896,-1.2005,-1.2223,-1.2223,-1.2332,-1.2436,-1.2436,-1.2436,-1.2436,-1.2436,-1.2436,-1.2436,-1.238,-1.2295,-1.2186,-1.1981,-1.1594,-1.1105,-1.0927,-1.0624,-1.0108,-0.992,-0.9834,-0.9756,-0.964,-0.9624,-0.9624,-0.9616,-0.9457,-0.9204,-0.856,-0.7818,-0.7335,-0.6532,-0.5571,-0.4631,-0.443,-0.4047,-0.3643,-0.3111,-0.2983,-0.289,-0.2892,-0.2897,-0.2895,-0.2884,-0.2877,-0.2875,-0.2886,-0.288,-0.2879,-0.2884,-0.2912,-0.2946,-0.2984,-0.3108,-0.3112,-0.3064,-0.304,-0.3028,-0.2913,-0.2888,-0.2886,-0.289,-0.2892,-0.2899,-0.2891,-0.2875,-0.2875,-0.2875,-0.2875,-0.2875,-0.2875,-0.2875,-0.2875,-0.2875,-0.2875,-0.2875,-0.2875,-0.2875,-0.2875,-0.2875,-0.2867,-0.2865,-0.2845,-0.2843,-0.2827,-0.2842,-0.2812,-0.2734,-0.2679,-0.2649,-0.2623,-0.259,-0.256,-0.2541,-0.2526,-0.2514,-0.2525,-0.2538,-0.2559,-0.3587,-0.3587,-0.3587,-0.3587,-0.3699,-0.3921,-0.4479,-0.5256,-0.6586,-0.8023,-0.9347,-1.0457,-1.145,-1.2001,-1.2219,-1.2332,-1.2332,-1.2436,-1.2436,-1.2436,-1.2436,-1.2436,-1.2436,-1.2436,-1.2436,-1.2436,-1.2432,-1.2398,-1.2196,-1.2079,-1.1792,-1.1272,-1.1021,-1.0599,-1.0171,-0.9821,-0.9805,-0.9717,-0.9681,-0.9628,-0.9624,-0.9624,-0.9363,-0.863,-0.8112,-0.729,-0.6071,-0.5704,-0.4825,-0.3952,-0.373,-0.3526,-0.3222,-0.3008,-0.2965,-0.2965,-0.2961,-0.2962,-0.3056,-0.2965,-0.2969,-0.2967,-0.3054,-0.2946,-0.2936,-0.2948,-0.2974,-0.3096,-0.3115,-0.3146,-0.3139,-0.3116,-0.3103,-0.3001,-0.307,-0.2963,-0.2962,-0.2962,-0.2956,-0.2944,-0.2913,-0.2892,-0.2875,-0.2875,-0.2875,-0.2875,-0.2875,-0.2875,-0.2875,-0.2875,-0.2875,-0.2875,-0.2875,-0.2875,-0.2875,-0.2875,-0.2875,-0.2875,-0.2875,-0.2875,-0.2873,-0.2871,-0.2857,-0.2813,-0.2767,-0.2719,-0.2666,-0.2627,-0.2594,-0.2568,-0.2567,-0.2565,-0.2561,-0.257,-0.2594,-0.3587,-0.3587,-0.3699,-0.381,-0.3921,-0.459,-0.5367,-0.6255,-0.7143,-0.8579,-1.0233,-1.0676,-1.1337,-1.211,-1.2436,-1.2436,-1.2436,-1.2436,-1.2436,-1.2436,-1.2436,-1.2436,-1.2436,-1.2436,-1.2436,-1.2436,-1.2436,-1.2436,-1.2304,-1.2195,-1.1774,-1.1372,-1.0893,-1.0498,-1.0195,-0.9896,-0.9855,-0.9799,-0.9766,-0.9677,-0.9632,-0.9327,-0.8924,-0.7922,-0.7624,-0.642,-0.5202,-0.4561,-0.4042,-0.344,-0.3219,-0.3091,-0.3087,-0.3086,-0.3086,-0.3082,-0.316,-0.3147,-0.3141,-0.3137,-0.3126,-0.3123,-0.3139,-0.3019,-0.3008,-0.3022,-0.3064,-0.3068,-0.3089,-0.3193,-0.32,-0.3172,-0.307,-0.3063,-0.3151,-0.3141,-0.3035,-0.303,-0.3025,-0.2996,-0.2946,-0.2922,-0.2916,-0.2899,-0.2905,-0.2876,-0.2875,-0.2875,-0.2875,-0.2875,-0.2875,-0.2875,-0.2875,-0.2875,-0.2875,-0.2875,-0.2875,-0.2875,-0.2875,-0.2875,-0.2875,-0.2873,-0.286,-0.2849,-0.2832,-0.2783,-0.2723,-0.2669,-0.2643,-0.2625,-0.2621,-0.2608,-0.259,-0.2613,-0.2649,-0.3587,-0.3587,-0.4145,-0.4369,-0.459,-0.5813,-0.6813,-0.759,-0.902,-1.0237,-1.1013,-1.1778,-1.211,-1.2332,-1.2436,-1.2436,-1.2436,-1.2436,-1.2436,-1.2436,-1.2436,-1.2436,-1.2436,-1.2436,-1.2436,-1.2436,-1.2436,-1.2436,-1.2327,-1.2332,-1.1914,-1.1434,-1.1154,-1.0873,-1.0334,-1.0087,-1.0026,-0.9916,-0.9868,-0.9674,-0.9351,-0.8627,-0.8124,-0.7425,-0.6329,-0.5233,-0.4634,-0.4012,-0.3412,-0.3311,-0.321,-0.3206,-0.321,-0.321,-0.321,-0.3177,-0.3121,-0.3146,-0.3158,-0.3167,-0.3168,-0.3171,-0.3067,-0.3049,-0.3061,-0.3086,-0.312,-0.3131,-0.3168,-0.3189,-0.3177,-0.3155,-0.3138,-0.3116,-0.3098,-0.3076,-0.3064,-0.31,-0.3094,-0.3085,-0.3045,-0.3001,-0.2976,-0.2954,-0.3025,-0.2901,-0.2875,-0.2877,-0.2875,-0.2875,-0.2875,-0.2875,-0.2875,-0.2875,-0.2875,-0.2875,-0.2875,-0.2875,-0.2875,-0.2875,-0.2875,-0.2875,-0.2875,-0.2864,-0.2854,-0.2839,-0.2786,-0.2738,-0.2702,-0.2676,-0.2662,-0.2635,-0.2606,-0.2644,-0.2691,-0.381,-0.4145,-0.4815,-0.5258,-0.5815,-0.6258,-0.7476,-0.9023,-0.9684,-1.0676,-1.1673,-1.2219,-1.2436,-1.2436,-1.2436,-1.2436,-1.2436,-1.2436,-1.2436,-1.2436,-1.2436,-1.2436,-1.2436,-1.2436,-1.2436,-1.2436,-1.2436,-1.2436,-1.2436,-1.2323,-1.205,-1.1553,-1.1349,-1.1005,-1.0498,-1.0253,-1.0209,-0.992,-0.9488,-0.8892,-0.8468,-0.7726,-0.6825,-0.6229,-0.5233,-0.4533,-0.3932,-0.3531,-0.323,-0.323,-0.323,-0.323,-0.323,-0.3229,-0.3229,-0.3225,-0.3187,-0.3157,-0.3154,-0.315,-0.3144,-0.3149,-0.3149,-0.3157,-0.3153,-0.3143,-0.3161,-0.3189,-0.3213,-0.3229,-0.323,-0.3207,-0.3198,-0.3179,-0.3151,-0.3149,-0.3139,-0.3151,-0.3165,-0.3155,-0.314,-0.3091,-0.3049,-0.303,-0.2986,-0.2918,-0.2901,-0.2902,-0.289,-0.2875,-0.2875,-0.2875,-0.2875,-0.2875,-0.2875,-0.2875,-0.2875,-0.2875,-0.2875,-0.2875,-0.2875,-0.2875,-0.2875,-0.2875,-0.2868,-0.285,-0.283,-0.2796,-0.2751,-0.2723,-0.2699,-0.2685,-0.2673,-0.2668,-0.2714,-0.4257,-0.4814,-0.526,-0.6038,-0.6922,-0.7035,-0.8361,-1.0237,-1.0457,-1.1227,-1.211,-1.2436,-1.2436,-1.2436,-1.2436,-1.2436,-1.2436,-1.2436,-1.2436,-1.2436,-1.2436,-1.2436,-1.2436,-1.2436,-1.2436,-1.2436,-1.2436,-1.2436,-1.2327,-1.2327,-1.2001,-1.1564,-1.1445,-1.1112,-1.0691,-1.0473,-1.0253,-0.9705,-0.8539,-0.784,-0.7516,-0.6578,-0.5655,-0.5041,-0.4533,-0.4033,-0.3331,-0.323,-0.323,-0.323,-0.323,-0.323,-0.323,-0.323,-0.323,-0.323,-0.3214,-0.3215,-0.3214,-0.3215,-0.323,-0.323,-0.323,-0.3213,-0.3214,-0.3185,-0.3173,-0.3221,-0.3226,-0.323,-0.323,-0.3228,-0.3224,-0.3221,-0.3218,-0.3228,-0.3228,-0.3211,-0.3203,-0.3196,-0.3183,-0.3169,-0.3134,-0.3112,-0.3052,-0.2955,-0.2928,-0.2929,-0.2907,-0.2883,-0.2876,-0.2876,-0.2875,-0.2875,-0.2875,-0.2875,-0.2875,-0.2875,-0.2875,-0.2875,-0.2875,-0.2875,-0.2875,-0.2875,-0.2875,-0.2868,-0.2852,-0.2826,-0.28,-0.2771,-0.2751,-0.2759,-0.2752,-0.2737,-0.2745,-0.526,-0.5371,-0.5371,-0.626,-0.7593,-0.9027,-1.0017,-1.1013,-1.1778,-1.211,-1.2327,-1.2436,-1.2436,-1.2436,-1.2436,-1.2436,-1.2436,-1.2436,-1.2436,-1.2436,-1.2436,-1.2436,-1.2436,-1.2436,-1.2436,-1.2436,-1.2436,-1.2436,-1.2327,-1.2114,-1.1896,-1.1664,-1.1185,-1.0996,-1.0672,-1.0058,-0.9507,-0.8699,-0.7467,-0.6821,-0.6313,-0.5653,-0.491,-0.4552,-0.3835,-0.323,-0.323,-0.323,-0.323,-0.323,-0.323,-0.323,-0.323,-0.323,-0.323,-0.323,-0.323,-0.323,-0.323,-0.323,-0.323,-0.323,-0.323,-0.323,-0.3229,-0.3229,-0.3229,-0.3229,-0.323,-0.323,-0.323,-0.323,-0.323,-0.323,-0.323,-0.323,-0.323,-0.3229,-0.3224,-0.3229,-0.3219,-0.32,-0.3194,-0.3166,-0.3104,-0.3008,-0.2966,-0.2966,-0.292,-0.2894,-0.2882,-0.2877,-0.2875,-0.2875,-0.2875,-0.2875,-0.2875,-0.2875,-0.2875,-0.2875,-0.2875,-0.2875,-0.2875,-0.2875,-0.2875,-0.2875,-0.2873,-0.2853,-0.2831,-0.2812,-0.2798,-0.2789,-0.2798,-0.2796,-0.2811,-0.448,-0.4927,-0.526,-0.6482,-0.8152,-0.8149,-0.9251,-1.0903,-1.0903,-1.1446,-1.2436,-1.2436,-1.2436,-1.2436,-1.2436,-1.2436,-1.2436,-1.2436,-1.2436,-1.2436,-1.2436,-1.2436,-1.2436,-1.2436,-1.2436,-1.2436,-1.2436,-1.2327,-1.2114,-1.1891,-1.1122,-1.0684,-1.0245,-1.0025,-0.9581,-0.8906,-0.8169,-0.7539,-0.6491,-0.5776,-0.5367,-0.4575,-0.3925,-0.3802,-0.3643,-0.3233,-0.323,-0.323,-0.323,-0.323,-0.323,-0.323,-0.323,-0.323,-0.323,-0.323,-0.323,-0.323,-0.323,-0.323,-0.323,-0.323,-0.323,-0.323,-0.323,-0.323,-0.323,-0.323,-0.323,-0.323,-0.323,-0.323,-0.323,-0.323,-0.323,-0.323,-0.323,-0.323,-0.323,-0.323,-0.3229,-0.3219,-0.3217,-0.3214,-0.314,-0.3065,-0.3031,-0.2995,-0.2952,-0.2914,-0.2903,-0.2886,-0.2882,-0.2875,-0.2875,-0.2875,-0.2875,-0.2875,-0.2875,-0.2875,-0.2875,-0.2875,-0.2875,-0.2875,-0.2875,-0.2875,-0.2875,-0.2875,-0.2862,-0.2842,-0.2818,-0.2796,-0.2813,-0.2841,-0.2857,-0.4367,-0.5146,-0.5817,-0.7038,-0.8481,-0.8146,-0.9247,-1.1122,-1.0899,-1.1227,-1.2436,-1.2436,-1.2436,-1.2436,-1.2436,-1.2436,-1.2436,-1.2436,-1.2436,-1.2436,-1.2436,-1.2436,-1.2436,-1.2436,-1.2436,-1.2327,-1.2332,-1.2114,-1.2001,-1.1559,-1.057,-0.9581,-0.8585,-0.8143,-0.814,-0.7246,-0.6546,-0.6167,-0.5377,-0.4796,-0.4395,-0.3823,-0.3362,-0.3451,-0.3293,-0.3267,-0.3258,-0.3248,-0.323,-0.323,-0.323,-0.323,-0.323,-0.323,-0.323,-0.323,-0.323,-0.323,-0.3232,-0.323,-0.323,-0.323,-0.323,-0.323,-0.323,-0.323,-0.323,-0.323,-0.323,-0.3233,-0.3234,-0.323,-0.323,-0.323,-0.323,-0.323,-0.323,-0.323,-0.323,-0.323,-0.3229,-0.3228,-0.3228,-0.3222,-0.3177,-0.3117,-0.3091,-0.3049,-0.3,-0.2963,-0.2933,-0.2912,-0.289,-0.2882,-0.2875,-0.288,-0.2883,-0.2875,-0.2875,-0.2875,-0.2875,-0.2876,-0.2875,-0.2875,-0.2875,-0.2875,-0.2875,-0.2875,-0.2875,-0.2872,-0.2847,-0.2823,-0.2832,-0.2857,-0.2864,-0.5258,-0.6702,-0.726,-0.8029,-0.902,-0.9464,-1.0676,-1.2001,-1.211,-1.2219,-1.2436,-1.2436,-1.2436,-1.2436,-1.2436,-1.2436,-1.2436,-1.2436,-1.2436,-1.2436,-1.2436,-1.2436,-1.2436,-1.2436,-1.2332,-1.2332,-1.2223,-1.2005,-1.1891,-1.057,-0.9691,-0.8472,-0.7143,-0.6144,-0.6919,-0.6035,-0.5479,-0.5254,-0.4246,-0.3871,-0.3723,-0.3587,-0.3441,-0.3405,-0.3338,-0.3303,-0.3294,-0.3252,-0.3233,-0.323,-0.323,-0.323,-0.323,-0.323,-0.323,-0.323,-0.323,-0.3232,-0.3234,-0.3233,-0.3237,-0.3233,-0.323,-0.323,-0.323,-0.323,-0.324,-0.3248,-0.3247,-0.3244,-0.3238,-0.3237,-0.3243,-0.3241,-0.3244,-0.323,-0.323,-0.323,-0.323,-0.323,-0.323,-0.323,-0.323,-0.3224,-0.3198,-0.3164,-0.3144,-0.3105,-0.3055,-0.3025,-0.2997,-0.2963,-0.2939,-0.2933,-0.2928,-0.2901,-0.2891,-0.2882,-0.2883,-0.2894,-0.2887,-0.2882,-0.288,-0.2876,-0.2875,-0.2875,-0.2875,-0.2875,-0.2875,-0.2875,-0.2875,-0.2862,-0.2869,-0.2869,-0.2873,-0.5481,-0.6255,-0.7587,-0.8799,-0.968,-0.9794,-1.0457,-1.1559,-1.211,-1.2436,-1.2436,-1.2436,-1.2436,-1.2436,-1.2436,-1.2436,-1.2436,-1.2436,-1.2436,-1.2436,-1.2436,-1.2436,-1.2436,-1.2332,-1.2332,-1.2114,-1.2005,-1.1787,-1.1345,-0.9911,-0.8692,-0.7584,-0.5701,-0.459,-0.4589,-0.4255,-0.4255,-0.4145,-0.3807,-0.3574,-0.3553,-0.3519,-0.3488,-0.3463,-0.3379,-0.3334,-0.333,-0.3278,-0.3249,-0.3247,-0.3247,-0.3243,-0.3238,-0.3237,-0.3233,-0.3232,-0.3232,-0.3252,-0.3275,-0.3289,-0.327,-0.3252,-0.3243,-0.3244,-0.3232,-0.3232,-0.3249,-0.3281,-0.329,-0.3305,-0.3342,-0.3309,-0.33,-0.3283,-0.3273,-0.3241,-0.323,-0.323,-0.323,-0.323,-0.323,-0.323,-0.323,-0.323,-0.321,-0.3203,-0.3187,-0.3161,-0.3116,-0.3101,-0.3079,-0.3038,-0.301,-0.3001,-0.308,-0.2962,-0.2959,-0.2965,-0.295,-0.2936,-0.2922,-0.2901,-0.2882,-0.2877,-0.2876,-0.2875,-0.2875,-0.2875,-0.2875,-0.2875,-0.2875,-0.2875,-0.2873,-0.2872,-0.2784,-0.6144,-0.7252,-0.8575,-0.979,-1.0785,-1.0457,-1.0789,-1.1564,-1.211,-1.2436,-1.2436,-1.2436,-1.2436,-1.2436,-1.2436,-1.2436,-1.2436,-1.2436,-1.2436,-1.2436,-1.2436,-1.2436,-1.2436,-1.2327,-1.2223,-1.2001,-1.1787,-1.1568,-1.1013,-0.9354,-0.7584,-0.581,-0.4479,-0.3921,-0.381,-0.3699,-0.3699,-0.3699,-0.3586,-0.3586,-0.3572,-0.3553,-0.3531,-0.3503,-0.3448,-0.3388,-0.3369,-0.3334,-0.3292,-0.329,-0.3289,-0.3279,-0.3271,-0.3262,-0.3251,-0.324,-0.3258,-0.3279,-0.3308,-0.3347,-0.3331,-0.3311,-0.3294,-0.3282,-0.3277,-0.3293,-0.3318,-0.3342,-0.335,-0.3373,-0.3398,-0.3362,-0.3346,-0.333,-0.3297,-0.3266,-0.323,-0.323,-0.323,-0.323,-0.323,-0.323,-0.323,-0.323,-0.3224,-0.3226,-0.3228,-0.3199,-0.3172,-0.3154,-0.3138,-0.3104,-0.3063,-0.3042,-0.3129,-0.3122,-0.3125,-0.3141,-0.3023,-0.2991,-0.2951,-0.2928,-0.2903,-0.2879,-0.2876,-0.2875,-0.2875,-0.2875,-0.2875,-0.2875,-0.2875,-0.2875,-0.2875,-0.2875,-0.2784,-0.736,-0.9684,-1.0123,-1.1004,-1.211,-1.1455,-1.1673,-1.2327,-1.2436,-1.2436,-1.2436,-1.2436,-1.2436,-1.2436,-1.2436,-1.2436,-1.2436,-1.2436,-1.2436,-1.2436,-1.2436,-1.2436,-1.2436,-1.2327,-1.2114,-1.1891,-1.1455,-1.0903,-1.068,-0.8358,-0.6033,-0.4367,-0.381,-0.3587,-0.3587,-0.3587,-0.3587,-0.3587,-0.3587,-0.3587,-0.358,-0.3582,-0.3571,-0.3548,-0.3506,-0.3471,-0.3448,-0.3417,-0.3397,-0.3392,-0.3398,-0.3368,-0.3345,-0.3324,-0.3286,-0.3274,-0.3303,-0.3323,-0.3353,-0.3398,-0.3409,-0.3398,-0.3414,-0.3383,-0.3354,-0.3358,-0.3383,-0.3402,-0.3413,-0.342,-0.3424,-0.3407,-0.3391,-0.3361,-0.3327,-0.3288,-0.3243,-0.323,-0.323,-0.323,-0.323,-0.323,-0.323,-0.323,-0.323,-0.323,-0.323,-0.3226,-0.32,-0.3179,-0.3164,-0.3155,-0.3116,-0.3078,-0.3075,-0.3093,-0.3101,-0.3119,-0.3079,-0.3044,-0.3001,-0.2961,-0.2929,-0.2906,-0.2883,-0.2875,-0.2875,-0.2875,-0.2875,-0.2875,-0.2875,-0.2875,-0.2875,-0.2784,-0.2694,-0.7913,-0.9908,-1.0789,-1.1673,-1.2327,-1.2114,-1.2223,-1.2436,-1.2436,-1.2436,-1.2436,-1.2436,-1.2436,-1.2436,-1.2436,-1.2436,-1.2436,-1.2436,-1.2436,-1.2327,-1.2327,-1.2327,-1.2327,-1.2219,-1.1782,-1.1122,-1.046,-0.9908,-0.8689,-0.6811,-0.5256,-0.3921,-0.3587,-0.3587,-0.3587,-0.3587,-0.3587,-0.3587,-0.3587,-0.3587,-0.3587,-0.3587,-0.3587,-0.3571,-0.3536,-0.351,-0.3492,-0.3454,-0.3429,-0.3421,-0.3416,-0.3397,-0.3392,-0.3386,-0.3368,-0.3367,-0.3384,-0.3402,-0.3439,-0.3462,-0.3473,-0.3482,-0.3504,-0.3473,-0.3431,-0.3413,-0.3441,-0.3461,-0.3474,-0.348,-0.3482,-0.347,-0.3435,-0.339,-0.3347,-0.3293,-0.3251,-0.323,-0.323,-0.323,-0.323,-0.323,-0.323,-0.323,-0.323,-0.323,-0.323,-0.323,-0.3226,-0.3203,-0.3192,-0.3184,-0.3176,-0.3142,-0.3161,-0.3181,-0.3183,-0.3181,-0.314,-0.3105,-0.3074,-0.303,-0.2973,-0.2935,-0.2914,-0.2892,-0.2875,-0.2875,-0.2875,-0.2875,-0.2875,-0.2875,-0.2875,-0.2784,-0.2604,-0.891,-1.0351,-1.1345,-1.2005,-1.2332,-1.2436,-1.2436,-1.2436,-1.2436,-1.2436,-1.2436,-1.2436,-1.2436,-1.2436,-1.2436,-1.2436,-1.2436,-1.2436,-1.2436,-1.2327,-1.2001,-1.1891,-1.1782,-1.145,-1.0676,-1.0017,-0.9354,-0.8799,-0.7473,-0.6255,-0.4814,-0.3699,-0.3587,-0.3587,-0.3587,-0.3587,-0.3587,-0.3587,-0.3587,-0.3587,-0.3587,-0.3587,-0.3587,-0.358,-0.3544,-0.3536,-0.3527,-0.3486,-0.3481,-0.3481,-0.3481,-0.3466,-0.345,-0.3428,-0.3412,-0.3409,-0.3435,-0.3454,-0.3484,-0.3516,-0.3527,-0.354,-0.3563,-0.3542,-0.3518,-0.3497,-0.3512,-0.3526,-0.3533,-0.3538,-0.3541,-0.3533,-0.3474,-0.3417,-0.3357,-0.3296,-0.3264,-0.3236,-0.323,-0.323,-0.323,-0.323,-0.323,-0.323,-0.323,-0.323,-0.323,-0.323,-0.323,-0.3224,-0.3217,-0.3213,-0.3217,-0.3211,-0.323,-0.323,-0.3221,-0.321,-0.3198,-0.3165,-0.314,-0.31,-0.3044,-0.2993,-0.2948,-0.2929,-0.2914,-0.2883,-0.2875,-0.2882,-0.2886,-0.288,-0.2879,-0.2694,-0.2604,-1.0021,-1.1126,-1.1787,-1.2219,-1.2327,-1.2436,-1.2436,-1.2436,-1.2327,-1.2436,-1.2436,-1.2436,-1.2436,-1.2436,-1.2436,-1.2436,-1.2327,-1.2219,-1.211,-1.2219,-1.1341,-1.1008,-1.0566,-1.0127,-0.946,-0.8689,-0.8026,-0.747,-0.6697,-0.5479,-0.448,-0.3587,-0.3587,-0.3587,-0.3587,-0.3587,-0.3587,-0.3587,-0.3587,-0.3587,-0.3587,-0.3587,-0.3587,-0.3587,-0.3583,-0.3582,-0.3583,-0.3583,-0.3587,-0.3585,-0.3575,-0.3546,-0.3508,-0.347,-0.3447,-0.345,-0.3486,-0.3503,-0.3525,-0.3552,-0.3571,-0.3579,-0.3587,-0.3578,-0.3559,-0.355,-0.3559,-0.3561,-0.3564,-0.3548,-0.3542,-0.3518,-0.347,-0.3406,-0.3343,-0.329,-0.3251,-0.3232,-0.323,-0.323,-0.323,-0.323,-0.323,-0.323,-0.323,-0.323,-0.323,-0.323,-0.323,-0.323,-0.323,-0.323,-0.323,-0.323,-0.323,-0.323,-0.323,-0.3226,-0.3224,-0.321,-0.3174,-0.3144,-0.3116,-0.3052,-0.3082,-0.298,-0.2962,-0.294,-0.2833,-0.292,-0.2917,-0.2894,-0.2794,-0.2704,-0.2694,-1.0025,-1.1459,-1.2114,-1.2332,-1.2436,-1.2436,-1.2436,-1.2327,-1.2223,-1.211,-1.2327,-1.2327,-1.2436,-1.2436,-1.2436,-1.2327,-1.2219,-1.1669,-1.1459,-1.1013,-1.046,-0.9684,-0.946,-0.902,-0.8244,-0.7362,-0.6586,-0.5919,-0.5033,-0.4255,-0.4033,-0.3699,-0.3587,-0.3587,-0.3587,-0.3587,-0.3587,-0.3587,-0.3587,-0.3587,-0.3587,-0.3587,-0.3587,-0.3587,-0.3587,-0.3587,-0.3587,-0.3587,-0.3587,-0.3586,-0.3587,-0.3576,-0.3564,-0.3548,-0.3544,-0.3548,-0.3549,-0.3555,-0.3561,-0.3574,-0.3585,-0.3587,-0.3587,-0.3587,-0.3586,-0.3587,-0.3587,-0.3587,-0.3576,-0.3553,-0.3527,-0.3496,-0.3456,-0.3391,-0.3328,-0.3281,-0.3234,-0.3233,-0.3232,-0.323,-0.323,-0.323,-0.323,-0.323,-0.323,-0.323,-0.323,-0.323,-0.323,-0.323,-0.323,-0.323,-0.323,-0.323,-0.323,-0.323,-0.323,-0.323,-0.3228,-0.3217,-0.3204,-0.3177,-0.3143,-0.3085,-0.3129,-0.3029,-0.3026,-0.2832,-0.2817,-0.2888,-0.2963,-0.2944,-0.2922,-0.2917,-0.2802,-1.0684,-1.1568,-1.2005,-1.2332,-1.2327,-1.2436,-1.2332,-1.2114,-1.1559,-1.1227,-1.1341,-1.1891,-1.2219,-1.2327,-1.2436,-1.2001,-1.1778,-1.1008,-1.0457,-0.9904,-0.9133,-0.8358,-0.7916,-0.7581,-0.6697,-0.5813,-0.5144,-0.4365,-0.3699,-0.3587,-0.3699,-0.3587,-0.3587,-0.3587,-0.3587,-0.3587,-0.3587,-0.3587,-0.3587,-0.3587,-0.3587,-0.3587,-0.3587,-0.3587,-0.3587,-0.3587,-0.3587,-0.3587,-0.3587,-0.3587,-0.3587,-0.3587,-0.3582,-0.3578,-0.3582,-0.3582,-0.3582,-0.3587,-0.3587,-0.3587,-0.3587,-0.3587,-0.3587,-0.3587,-0.3587,-0.3587,-0.3587,-0.3583,-0.3544,-0.3519,-0.3486,-0.3455,-0.3405,-0.3343,-0.3296,-0.3251,-0.3234,-0.3232,-0.323,-0.323,-0.323,-0.323,-0.323,-0.323,-0.323,-0.323,-0.323,-0.323,-0.323,-0.323,-0.323,-0.323,-0.323,-0.323,-0.323,-0.323,-0.323,-0.323,-0.323,-0.3225,-0.3215,-0.3199,-0.3168,-0.3131,-0.3104,-0.309,-0.2991,-0.2887,-0.2864,-0.3023,-0.3011,-0.2908,-0.2978,-0.2955,-0.2933,-1.1564,-1.1678,-1.1896,-1.2219,-1.2327,-1.2436,-1.2332,-1.1896,-1.1004,-1.0343,-1.0351,-1.1341,-1.1891,-1.2001,-1.1996,-1.1559,-1.0789,-0.9684,-0.913,-0.8465,-0.7254,-0.6811,-0.6255,-0.5813,-0.5146,-0.4702,-0.4032,-0.3921,-0.3587,-0.3587,-0.3587,-0.3587,-0.3587,-0.3587,-0.3587,-0.3587,-0.3587,-0.3587,-0.3587,-0.3587,-0.3587,-0.3587,-0.3587,-0.3587,-0.3587,-0.3587,-0.3587,-0.3587,-0.3587,-0.3587,-0.3587,-0.3587,-0.3587,-0.3587,-0.3587,-0.3587,-0.3587,-0.3587,-0.3587,-0.3587,-0.3587,-0.3587,-0.3587,-0.3587,-0.3587,-0.3587,-0.3587,-0.3571,-0.3531,-0.3499,-0.3466,-0.3432,-0.338,-0.333,-0.3288,-0.3252,-0.3249,-0.3241,-0.3236,-0.3234,-0.3233,-0.3233,-0.323,-0.323,-0.323,-0.323,-0.323,-0.323,-0.323,-0.323,-0.323,-0.323,-0.323,-0.323,-0.323,-0.323,-0.323,-0.323,-0.323,-0.323,-0.3228,-0.3214,-0.3209,-0.321,-0.3184,-0.3155,-0.3041,-0.2934,-0.3003,-0.3079,-0.297,-0.2869,-0.3046,-0.3022,-0.2988,-1.1678,-1.1896,-1.2223,-1.2327,-1.2436,-1.2436,-1.2327,-1.2219,-1.1778,-1.1341,-1.0684,-1.0688,-1.0907,-1.0562,-1.0343,-1.0127,-0.9904,-0.8579,-0.7587,-0.6922,-0.6035,-0.5481,-0.5037,-0.4814,-0.4369,-0.3921,-0.3699,-0.3587,-0.3587,-0.3587,-0.3587,-0.3587,-0.3587,-0.3587,-0.3587,-0.3587,-0.3587,-0.3587,-0.3587,-0.3587,-0.3587,-0.3587,-0.3587,-0.3587,-0.3587,-0.3587,-0.3587,-0.3587,-0.3587,-0.3587,-0.3587,-0.3587,-0.3587,-0.3587,-0.3587,-0.3587,-0.3587,-0.3587,-0.3587,-0.3587,-0.3587,-0.3587,-0.3587,-0.3587,-0.3587,-0.3587,-0.3587,-0.3587,-0.3555,-0.353,-0.35,-0.3476,-0.3431,-0.3384,-0.3341,-0.3319,-0.3202,-0.3275,-0.3252,-0.3248,-0.3243,-0.3238,-0.323,-0.323,-0.323,-0.323,-0.323,-0.323,-0.323,-0.323,-0.323,-0.323,-0.323,-0.323,-0.323,-0.323,-0.323,-0.323,-0.323,-0.323,-0.323,-0.323,-0.3229,-0.3124,-0.3126,-0.3207,-0.3093,-0.2974,-0.3081,-0.3064,-0.2841,-0.2828,-0.3011,-0.3083,-0.3046]},{"header":{"parameterUnit":"m.s-1","parameterCategory":1,"la1":31.0,"la2":29.5877,"lo1":-88.7671,"lo2":-86.6584,"dy":0.0162,"dx":0.0185,"nx":115,"ny":88,"refTime":"2023-08-11T18:00:00:Z","depth":0,"parameterNumber":3,"parameterNumberName":"V-component_of_WINDS"},"data":[0.0,0.0,0.0,0.0,0.0,0.0,0.0,0.0,0.0,0.0,0.0,0.0,0.0,0.0,0.0,0.0,0.0,0.0,0.0,0.0,0.0,0.0,0.0,0.0,0.0,0.0,0.0,0.0,0.0,0.0,0.0,0.0,0.0,0.0,0.0,0.0,0.0,0.0,0.0,0.0,0.0,0.0,0.0,0.0,0.0,0.0,0.0,0.0,0.0,0.0,0.0,0.0,0.0,0.0,0.0,0.0,0.0,0.0,0.0,0.0,0.0,0.0,0.0,0.0,0.0,0.0,0.0,0.0,0.0,0.0,0.0,0.0,0.0,0.0,0.0,0.0,0.0,0.0,0.0,0.0,0.0,0.0,0.0,0.0,0.0,0.0,0.0,0.0,0.0,0.0,0.0,0.0,0.0,0.0,0.0,0.0,0.0,0.0,0.0,0.0,0.0,0.0,0.0,0.0,0.0,0.0,0.0,0.0,0.0,0.0,0.0,0.0,0.0,0.0,0.0,0.0,0.0,0.0,0.0,0.0,0.0,0.0,0.0,0.0,0.0,0.0,0.0,0.0,0.0,0.0,0.0,0.0,0.0,0.0,0.0,0.0,0.0,0.0,0.0,0.0,0.0,0.0,0.0,0.0,0.0,0.0,0.0,0.0,0.0,0.0,0.0,0.0,0.0,0.0,0.0,0.0,0.0,0.0,0.0,0.0,0.0,0.0,0.0,0.0,0.0,0.0,0.0,0.0,0.0,0.0,0.0,0.0,0.0,0.0,0.0,0.0,0.0,0.0,0.0,0.0,0.0,0.0,0.0,0.0,0.0,0.0,0.0,0.0,0.0,0.0,0.0,0.0,0.0,0.0,0.0,0.0,0.0,0.0,0.0,0.0,0.0,0.0,0.0,0.0,0.0,0.0,0.0,0.0,0.0,0.0,0.0,0.0,0.0,0.0,0.0,0.0,0.0,0.0,0.0,0.0,0.0,0.0,0.0,0.0,0.0,0.0,0.0,0.0,0.0,0.0,0.0,0.0,0.0,0.0,0.0,0.0,0.0,0.0,0.0,0.0,0.0,0.0,0.0,0.0,0.0,0.0,0.0,0.0,0.0,0.0,0.0,0.0,0.0,0.0,0.0,0.0,0.0,0.0,0.0,0.0,0.0,0.0,0.0,0.0,0.0,0.0,0.0,0.0,0.0,0.0,0.0,0.0,0.0,0.0,0.0,0.0,0.0,0.0,0.0,0.0,0.0,0.0,0.0,0.0,0.0,0.0,0.0,0.0,0.0,0.0,0.0,0.0,0.0,0.0,0.0,0.0,0.0,0.0,0.0,0.0,0.0,0.0,0.0,0.0,0.0,0.0,0.0,0.0,0.0,0.0,0.0,0.0,0.0,0.0,0.0,0.0,0.0,0.0,0.0,0.0,0.0,0.0,0.0,0.0,0.0,0.0,0.0,0.0,0.0,0.0,0.0,0.0,0.0,0.0,0.0,0.0,0.0,0.0,0.0,0.0,0.0,0.0,0.0,0.0,0.0,0.0,0.0,0.0,0.0,0.0,0.0,0.0,0.0,0.0,0.0,0.0,0.0,0.0,0.0,0.0,0.0,0.0,0.0,0.0,0.0,0.0,0.0,0.0,0.0,0.0,0.0,0.0,0.0,0.0,0.0,0.0,0.0,0.0,0.0,0.0,0.0,0.0,0.0,0.0,0.0,0.0,0.0,0.0,0.0,0.0,0.0,0.0,0.0,0.0,0.0,0.0,0.0,0.0,0.0,0.0,0.0,0.0,0.0,0.0,0.0,0.0,0.0,0.0,0.0,0.0,0.0,0.0,0.0,0.0,0.0,0.0,0.0,0.0,0.0,0.0,0.0,0.0,0.0,0.0,0.0,0.0,0.0,0.0,0.0,0.0,0.0,0.0,0.0,0.0,0.0,0.0,0.0,0.0,0.0,0.0,0.0,0.0,0.0,0.0,0.0,0.0,0.0,0.0,0.0,0.0,0.0,0.0,0.0,0.0,0.0,0.0,0.0,0.0,0.0,0.0,0.0,0.0,0.0,0.0,0.0,0.0,0.0,0.0,0.0,0.0,0.0,0.0,0.0,0.0,0.0,0.0,0.0,0.0,0.0,0.0,0.0,0.0,0.0,0.0,0.0,0.0,0.0,0.0,0.0,0.0,0.0,0.0,0.0,0.0,0.0,0.0,0.0,0.0,0.0,0.0,0.0,0.0,0.0,0.0,0.0,0.0,0.0,0.0,0.0,0.0,0.0,0.0,0.0,0.0,0.0,0.0,0.0,0.0,0.0,0.0,0.0,0.0,0.0,0.0,0.0,0.0,0.0,0.0,0.0,0.0,0.0,0.0,0.0,0.0,0.0,0.0,0.0,0.0,0.0,0.0,0.0,0.0,0.0,0.0,0.0,0.0,0.0,0.0,0.0,0.0,0.0,0.0,0.0,0.0,0.0,0.0,0.0,0.0,0.0,0.0,0.0,0.0,0.0,0.0,0.0,0.0,0.0,0.0,0.0,0.0,0.0,0.0,0.0,0.0,0.0,0.0,0.0,0.0,0.0,0.0,0.0,0.0,0.0,0.0,0.0,0.0,0.0,0.0,0.0,0.0,0.0,0.0,0.0,0.0,0.0,0.0,0.0,0.0,0.0,0.0,0.0,0.0,0.0,0.0,0.0,0.0,0.0,0.0,0.0,0.0,0.0,0.0,0.0,0.0,0.0,0.0,0.0,0.0,0.0,0.0,0.0,0.0,0.0,0.0,0.0,0.0,0.0,0.0,0.0,0.0,0.0,0.0,0.0,0.0,0.0,0.0,0.0,0.0,0.0,0.0,0.0,0.0,0.0,0.0,0.0,0.0,0.0,0.0,0.0,0.0,0.0,0.0,0.0,0.0,0.0,0.0,0.0,0.0,0.0,0.0,0.0,0.0,0.0,0.0,0.0,0.0,0.0,0.0,0.0,0.0,0.0,0.0,0.0,0.0,0.0,0.0,0.0,0.0,0.0,0.0,0.0,0.0,0.0,0.0,0.0,0.0,0.0,0.0,0.0,0.0,0.0,0.0,0.0,0.0,0.0,0.0,0.0,0.0,0.0,0.0,0.0,0.0,0.0,0.0,0.0,0.0,0.0,0.0,0.0,0.0,0.0,0.0,0.0,0.0,0.0,0.0,0.0,0.0,0.0,0.0,0.0,0.0,0.0,0.0,0.0,0.0,0.0,0.0,0.0,0.0,0.0,0.0,0.0,0.0,0.0,0.0,0.0,0.0,0.0,0.0,0.0,0.0,0.0,0.0,0.0,0.0,0.0,0.0,0.0,0.0,0.0,0.0,0.0,0.0,0.0,0.0,0.0,0.0,0.0,0.0,0.0,0.0,0.0,0.0,0.0,0.0,0.0,0.0,0.0,0.0,0.0,0.0,0.0,0.0,0.0,0.0,0.0,0.0,0.0,0.0,0.0,0.0,0.0,0.0,0.0,0.0,0.0,0.0,0.0,0.0,0.0,0.0,0.0,0.0,0.0,0.0,0.0,0.0,0.0,0.0,0.0,0.0,0.0,0.0,0.0,0.0,0.0,0.0,0.0,0.0,0.0,0.0,0.0,0.0,0.0,0.0,0.0,0.0,0.0,0.0,0.0,0.0,0.0,0.0,0.0,0.0,0.0,0.0,0.0,0.0,0.0,0.0,0.0,0.0,0.0,0.0,0.0,0.0,0.0,0.0,0.0,0.0,0.0,0.0,0.0,0.0,0.0,0.0,0.0,0.0,0.0,0.0,0.0,0.0,0.0,0.0,0.0,0.0,0.0,0.0,0.0,0.0,0.0,0.0,0.0,0.0,0.0,0.0,0.0,0.0,0.0,0.0,0.0,0.0,0.0,0.0,0.0,0.0,0.0,0.0,0.0,0.0,0.0,0.0,0.0,0.0,0.0,0.0,0.0,0.0,0.0,0.0,0.0,0.0,0.0,0.0,0.0,0.0,0.0,0.0,0.0,0.0,0.0,0.0,0.0,0.0,0.0,0.0,0.0,0.0,0.0,0.0,0.0,0.0,0.0,0.0,0.0,0.0,0.0,0.0,0.0,0.0,0.0,0.0,0.0,0.0,0.0,0.0,0.0,0.0,0.0,0.0,0.0,0.0,0.0,0.0,0.0,0.0,0.0,0.0,0.0,0.0,0.0,0.0,0.0,0.0,0.0,0.0,0.0,0.0,0.0,0.0,0.0,0.0,0.0,0.0,0.0,0.0,0.0,0.0,0.0,0.0,0.0,0.0,0.0,0.0,-1.5195,0.0,0.0,0.0,0.0,0.0,0.0,0.0,0.0,0.0,0.0,0.0,0.0,0.0,0.0,0.0,0.0,0.0,0.0,0.0,0.0,0.0,0.0,0.0,0.0,0.0,0.0,0.0,0.0,0.0,0.0,0.0,0.0,0.0,0.0,0.0,0.0,0.0,0.0,0.0,0.0,0.0,0.0,0.0,0.0,0.0,0.0,0.0,0.0,0.0,0.0,0.0,0.0,0.0,0.0,0.0,0.0,0.0,0.0,0.0,0.0,0.0,0.0,0.0,0.0,0.0,0.0,0.0,0.0,0.0,0.0,0.0,0.0,0.0,0.0,0.0,0.0,0.0,0.0,0.0,0.0,0.0,0.0,0.0,0.0,0.0,0.0,0.0,0.0,0.0,0.0,0.0,0.0,0.0,0.0,0.0,0.0,0.0,0.0,0.0,0.0,0.0,0.0,0.0,0.0,0.0,0.0,0.0,0.0,0.0,0.0,-1.5195,-1.5195,-1.5195,-1.5195,-1.5195,0.0,0.0,0.0,0.0,0.0,0.0,0.0,0.0,0.0,0.0,0.0,0.0,0.0,0.0,0.0,0.0,0.0,0.0,0.0,0.0,0.0,0.0,0.0,0.0,0.0,0.0,0.0,0.0,0.0,0.0,0.0,0.0,0.0,0.0,0.0,0.0,0.0,0.0,0.0,0.0,0.0,0.0,0.0,0.0,0.0,0.0,0.0,0.0,0.0,0.0,0.0,0.0,0.0,0.0,0.0,0.0,0.0,0.0,0.0,0.0,0.0,0.0,0.0,0.0,0.0,0.0,0.0,0.0,0.0,0.0,0.0,0.0,0.0,0.0,0.0,0.0,0.0,0.0,0.0,0.0,0.0,0.0,0.0,0.0,0.0,0.0,0.0,0.0,0.0,0.0,0.0,0.0,0.0,0.0,0.0,0.0,0.0,0.0,0.0,0.0,0.0,0.0,0.0,0.0,0.0,0.0,0.0,0.0,0.0,0.0,0.0,0.0,-1.5599,-1.5503,-1.5503,0.0,0.0,0.0,0.0,0.0,0.0,0.0,0.0,0.0,0.0,0.0,0.0,0.0,0.0,0.0,0.0,0.0,0.0,0.0,0.0,0.0,0.0,0.0,0.0,0.0,0.0,0.0,0.0,0.0,0.0,0.0,0.0,0.0,0.0,0.0,0.0,0.0,0.0,0.0,0.0,0.0,0.0,0.0,0.0,0.0,0.0,0.0,0.0,0.0,0.0,0.0,0.0,0.0,0.0,0.0,0.0,0.0,0.0,0.0,0.0,0.0,0.0,0.0,0.0,0.0,0.0,0.0,0.0,0.0,0.0,0.0,0.0,0.0,0.0,0.0,0.0,0.0,0.0,0.0,0.0,0.0,0.0,0.0,0.0,0.0,0.0,0.0,0.0,0.0,0.0,0.0,0.0,0.0,0.0,0.0,0.0,0.0,0.0,0.0,0.0,0.0,0.0,0.0,0.0,0.0,0.0,0.0,0.0,0.0,0.0,-1.5926,-1.7407,-1.6734,0.0,-1.6394,0.0,0.0,0.0,0.0,0.0,0.0,0.0,0.0,0.0,0.0,0.0,0.0,0.0,0.0,0.0,0.0,0.0,0.0,0.0,0.0,0.0,0.0,0.0,0.0,0.0,0.0,0.0,0.0,0.0,0.0,0.0,0.0,0.0,0.0,0.0,0.0,0.0,0.0,0.0,0.0,0.0,0.0,0.0,0.0,0.0,0.0,0.0,0.0,0.0,0.0,0.0,0.0,0.0,0.0,0.0,0.0,0.0,0.0,0.0,0.0,0.0,0.0,0.0,0.0,0.0,0.0,0.0,0.0,0.0,0.0,0.0,0.0,0.0,0.0,0.0,0.0,0.0,0.0,0.0,0.0,0.0,0.0,0.0,0.0,0.0,0.0,0.0,0.0,0.0,0.0,0.0,0.0,0.0,0.0,0.0,0.0,0.0,0.0,0.0,0.0,0.0,0.0,0.0,0.0,0.0,0.0,0.0,0.0,0.0,0.0,-1.6876,-1.7055,-1.6681,-1.6513,0.0,0.0,0.0,0.0,0.0,0.0,0.0,0.0,0.0,0.0,0.0,0.0,0.0,0.0,0.0,0.0,0.0,0.0,0.0,0.0,0.0,0.0,0.0,0.0,0.0,0.0,0.0,0.0,0.0,0.0,0.0,0.0,0.0,0.0,0.0,0.0,0.0,0.0,0.0,0.0,0.0,0.0,0.0,0.0,0.0,0.0,0.0,0.0,0.0,0.0,0.0,0.0,0.0,0.0,0.0,0.0,0.0,0.0,0.0,0.0,0.0,0.0,0.0,0.0,0.0,0.0,0.0,0.0,0.0,0.0,0.0,0.0,0.0,0.0,0.0,0.0,0.0,0.0,0.0,0.0,0.0,0.0,0.0,0.0,0.0,0.0,0.0,0.0,0.0,0.0,0.0,0.0,0.0,0.0,0.0,0.0,0.0,0.0,0.0,0.0,0.0,0.0,0.0,0.0,0.0,0.0,0.0,0.0,0.0,0.0,-1.7407,-1.7656,-1.7306,-1.7021,-1.6784,-1.6519,0.0,0.0,0.0,0.0,0.0,0.0,0.0,0.0,0.0,0.0,0.0,0.0,0.0,0.0,0.0,0.0,0.0,0.0,0.0,0.0,0.0,0.0,0.0,0.0,0.0,0.0,0.0,0.0,0.0,0.0,0.0,0.0,0.0,0.0,0.0,0.0,0.0,0.0,0.0,0.0,0.0,0.0,0.0,0.0,0.0,0.0,0.0,0.0,0.0,0.0,0.0,0.0,0.0,0.0,0.0,0.0,0.0,0.0,0.0,0.0,0.0,0.0,0.0,0.0,0.0,0.0,0.0,0.0,0.0,0.0,0.0,0.0,0.0,0.0,0.0,0.0,0.0,0.0,0.0,0.0,0.0,0.0,0.0,0.0,0.0,0.0,0.0,0.0,0.0,0.0,0.0,0.0,0.0,0.0,0.0,0.0,0.0,0.0,0.0,0.0,0.0,0.0,0.0,0.0,0.0,0.0,0.0,0.0,-1.9681,-1.8453,-1.8121,-1.8923,-1.8247,-1.7454,0.0,0.0,0.0,0.0,0.0,0.0,0.0,0.0,0.0,0.0,0.0,0.0,0.0,0.0,0.0,0.0,0.0,0.0,0.0,0.0,0.0,0.0,0.0,0.0,0.0,0.0,0.0,0.0,0.0,0.0,0.0,0.0,0.0,0.0,0.0,0.0,0.0,0.0,0.0,0.0,0.0,0.0,0.0,0.0,0.0,0.0,0.0,0.0,0.0,0.0,0.0,0.0,0.0,0.0,0.0,0.0,0.0,0.0,0.0,0.0,0.0,0.0,0.0,0.0,0.0,0.0,0.0,0.0,0.0,0.0,0.0,0.0,0.0,0.0,0.0,0.0,0.0,0.0,0.0,0.0,0.0,0.0,0.0,0.0,0.0,0.0,0.0,0.0,0.0,0.0,0.0,0.0,0.0,0.0,0.0,0.0,0.0,0.0,0.0,0.0,0.0,0.0,0.0,0.0,0.0,0.0,0.0,0.0,0.0,-1.6913,-1.6976,-1.7951,-1.9779,-1.8082,-1.7155,0.0,0.0,0.0,0.0,0.0,0.0,0.0,0.0,0.0,0.0,0.0,0.0,0.0,0.0,0.0,0.0,0.0,0.0,0.0,0.0,0.0,0.0,0.0,0.0,0.0,0.0,0.0,0.0,0.0,0.0,0.0,0.0,0.0,0.0,0.0,0.0,0.0,0.0,0.0,0.0,0.0,0.0,0.0,0.0,0.0,0.0,0.0,0.0,0.0,0.0,0.0,0.0,0.0,0.0,0.0,0.0,0.0,0.0,0.0,0.0,0.0,0.0,0.0,0.0,0.0,0.0,0.0,0.0,0.0,0.0,0.0,0.0,0.0,0.0,0.0,0.0,0.0,0.0,0.0,0.0,0.0,0.0,0.0,0.0,0.0,0.0,0.0,0.0,0.0,0.0,0.0,0.0,0.0,0.0,0.0,0.0,0.0,0.0,0.0,0.0,0.0,0.0,0.0,0.0,0.0,0.0,0.0,0.0,0.0,-1.685,0.0,-1.9239,-2.0263,-1.8508,-1.7329,0.0,0.0,0.0,0.0,0.0,0.0,0.0,0.0,0.0,0.0,0.0,0.0,0.0,0.0,0.0,0.0,0.0,0.0,0.0,0.0,0.0,0.0,0.0,0.0,0.0,0.0,0.0,0.0,0.0,0.0,0.0,0.0,0.0,0.0,0.0,0.0,0.0,0.0,0.0,0.0,0.0,0.0,0.0,0.0,0.0,0.0,0.0,0.0,0.0,0.0,0.0,0.0,0.0,0.0,0.0,0.0,0.0,0.0,0.0,0.0,0.0,0.0,0.0,0.0,0.0,0.0,0.0,0.0,0.0,0.0,0.0,0.0,0.0,0.0,0.0,0.0,0.0,0.0,0.0,0.0,0.0,0.0,0.0,0.0,0.0,0.0,0.0,0.0,0.0,0.0,0.0,0.0,0.0,0.0,0.0,0.0,0.0,0.0,0.0,0.0,0.0,0.0,0.0,0.0,0.0,0.0,0.0,0.0,-1.6862,-2.0177,-2.1876,-2.1917,-2.0502,-1.959,-1.8026,0.0,0.0,0.0,0.0,0.0,0.0,0.0,0.0,0.0,0.0,0.0,0.0,0.0,0.0,0.0,0.0,0.0,0.0,0.0,0.0,0.0,0.0,0.0,0.0,0.0,0.0,0.0,0.0,0.0,0.0,0.0,0.0,0.0,0.0,0.0,0.0,0.0,0.0,0.0,0.0,0.0,0.0,0.0,0.0,0.0,0.0,0.0,0.0,0.0,0.0,0.0,0.0,0.0,0.0,0.0,0.0,0.0,0.0,0.0,0.0,0.0,0.0,0.0,0.0,0.0,0.0,0.0,0.0,0.0,0.0,0.0,0.0,0.0,0.0,0.0,0.0,0.0,0.0,0.0,0.0,0.0,0.0,0.0,0.0,0.0,0.0,0.0,0.0,0.0,0.0,0.0,0.0,0.0,0.0,0.0,0.0,0.0,0.0,0.0,0.0,0.0,0.0,0.0,0.0,0.0,0.0,0.0,0.0,0.0,-1.8628,-1.9763,-2.0975,-2.2032,-1.9091,-1.7897,0.0,0.0,0.0,0.0,0.0,0.0,0.0,0.0,0.0,0.0,0.0,0.0,0.0,0.0,0.0,0.0,0.0,0.0,0.0,0.0,0.0,0.0,0.0,0.0,0.0,0.0,0.0,0.0,0.0,0.0,0.0,0.0,0.0,0.0,0.0,0.0,0.0,0.0,0.0,0.0,0.0,0.0,0.0,0.0,0.0,0.0,0.0,0.0,0.0,0.0,0.0,0.0,0.0,0.0,0.0,0.0,0.0,0.0,0.0,0.0,0.0,0.0,0.0,0.0,0.0,0.0,0.0,0.0,0.0,0.0,0.0,0.0,0.0,0.0,0.0,0.0,0.0,0.0,0.0,0.0,0.0,0.0,0.0,0.0,0.0,0.0,0.0,0.0,0.0,0.0,0.0,0.0,0.0,0.0,0.0,0.0,0.0,0.0,0.0,0.0,0.0,0.0,0.0,0.0,0.0,0.0,0.0,0.0,0.0,-1.9875,-2.1305,-2.2546,-2.3501,-2.0312,-1.8857,-1.9428,0.0,0.0,0.0,0.0,0.0,0.0,0.0,0.0,0.0,0.0,0.0,0.0,0.0,0.0,0.0,0.0,0.0,0.0,0.0,0.0,0.0,0.0,0.0,0.0,0.0,0.0,0.0,0.0,0.0,0.0,0.0,0.0,0.0,0.0,0.0,0.0,0.0,0.0,0.0,0.0,0.0,0.0,0.0,0.0,0.0,0.0,0.0,0.0,0.0,0.0,0.0,0.0,0.0,0.0,0.0,0.0,0.0,0.0,0.0,0.0,0.0,0.0,0.0,0.0,0.0,0.0,0.0,0.0,0.0,0.0,0.0,0.0,0.0,0.0,0.0,0.0,0.0,0.0,0.0,0.0,0.0,0.0,0.0,0.0,0.0,0.0,0.0,0.0,0.0,0.0,0.0,0.0,0.0,0.0,0.0,0.0,0.0,0.0,0.0,0.0,0.0,0.0,0.0,0.0,0.0,0.0,0.0,0.0,-2.3157,-2.5759,-2.6347,-2.4768,-2.2847,-2.074,0.0,0.0,0.0,0.0,0.0,0.0,0.0,0.0,0.0,0.0,0.0,0.0,0.0,0.0,0.0,0.0,0.0,0.0,0.0,0.0,0.0,0.0,0.0,0.0,0.0,0.0,0.0,0.0,0.0,0.0,0.0,0.0,0.0,0.0,0.0,0.0,0.0,0.0,0.0,0.0,0.0,0.0,0.0,0.0,0.0,0.0,0.0,0.0,0.0,0.0,0.0,0.0,0.0,0.0,0.0,0.0,0.0,0.0,0.0,0.0,0.0,0.0,0.0,0.0,0.0,0.0,0.0,0.0,0.0,0.0,0.0,0.0,0.0,0.0,0.0,0.0,0.0,0.0,0.0,0.0,0.0,0.0,0.0,0.0,0.0,0.0,0.0,0.0,0.0,0.0,0.0,0.0,0.0,0.0,0.0,0.0,0.0,0.0,0.0,0.0,0.0,0.0,0.0,0.0,0.0,0.0,0.0,0.0,0.0,-2.4098,-2.7247,-2.8693,-2.8142,-2.4074,-2.1808,0.0,0.0,0.0,0.0,0.0,0.0,0.0,0.0,0.0,0.0,0.0,0.0,0.0,0.0,0.0,0.0,0.0,0.0,0.0,0.0,0.0,0.0,0.0,0.0,0.0,0.0,0.0,0.0,0.0,0.0,0.0,0.0,0.0,0.0,0.0,0.0,0.0,0.0,0.0,0.0,0.0,0.0,0.0,0.0,0.0,0.0,0.0,0.0,0.0,0.0,0.0,0.0,0.0,0.0,0.0,0.0,0.0,0.0,0.0,0.0,0.0,0.0,0.0,0.0,0.0,0.0,0.0,0.0,0.0,0.0,0.0,0.0,0.0,0.0,0.0,0.0,0.0,0.0,0.0,0.0,0.0,0.0,0.0,0.0,0.0,0.0,0.0,0.0,0.0,0.0,0.0,0.0,0.0,0.0,0.0,0.0,0.0,0.0,0.0,0.0,0.0,0.0,0.0,0.0,0.0,0.0,0.0,0.0,-2.3706,-2.549,-2.8498,-3.0099,-3.0099,-2.613,-2.3532,0.0,0.0,0.0,0.0,0.0,0.0,0.0,0.0,0.0,0.0,0.0,0.0,0.0,0.0,0.0,0.0,0.0,0.0,0.0,0.0,0.0,0.0,0.0,0.0,0.0,0.0,0.0,0.0,0.0,0.0,0.0,0.0,0.0,0.0,0.0,0.0,0.0,0.0,0.0,0.0,0.0,0.0,0.0,0.0,0.0,0.0,0.0,0.0,0.0,0.0,0.0,0.0,0.0,0.0,0.0,0.0,0.0,0.0,0.0,0.0,0.0,0.0,0.0,0.0,0.0,0.0,0.0,0.0,0.0,0.0,0.0,0.0,0.0,0.0,0.0,0.0,0.0,0.0,0.0,0.0,0.0,0.0,0.0,0.0,0.0,0.0,0.0,0.0,0.0,0.0,0.0,0.0,0.0,0.0,0.0,0.0,0.0,0.0,0.0,0.0,0.0,0.0,0.0,0.0,0.0,0.0,0.0,0.0,-2.5308,-2.7112,-2.9533,-3.0801,-3.0723,-2.842,-2.559,0.0,0.0,0.0,0.0,0.0,0.0,0.0,0.0,0.0,0.0,0.0,0.0,0.0,0.0,0.0,0.0,0.0,0.0,0.0,0.0,0.0,0.0,0.0,0.0,0.0,0.0,0.0,0.0,0.0,0.0,0.0,0.0,0.0,0.0,0.0,0.0,0.0,0.0,0.0,0.0,0.0,0.0,0.0,0.0,0.0,0.0,0.0,0.0,0.0,0.0,0.0,0.0,0.0,0.0,0.0,0.0,0.0,0.0,0.0,0.0,0.0,0.0,0.0,0.0,0.0,0.0,0.0,0.0,0.0,0.0,0.0,0.0,0.0,0.0,0.0,0.0,0.0,0.0,0.0,0.0,0.0,0.0,0.0,0.0,0.0,0.0,0.0,0.0,0.0,0.0,0.0,0.0,0.0,0.0,0.0,0.0,0.0,0.0,0.0,0.0,0.0,0.0,0.0,0.0,0.0,0.0,0.0,0.0,-2.6197,-2.7991,-2.9845,-3.0801,-3.0801,-2.9006,-2.6702,0.0,0.0,0.0,0.0,0.0,0.0,0.0,0.0,0.0,0.0,0.0,0.0,0.0,0.0,0.0,0.0,0.0,0.0,0.0,0.0,0.0,0.0,0.0,0.0,0.0,0.0,0.0,0.0,0.0,0.0,0.0,0.0,0.0,0.0,0.0,0.0,0.0,0.0,0.0,0.0,0.0,0.0,0.0,0.0,0.0,0.0,0.0,0.0,-1.5929,0.0,0.0,0.0,0.0,0.0,0.0,0.0,0.0,0.0,0.0,0.0,0.0,0.0,0.0,0.0,0.0,0.0,0.0,0.0,0.0,0.0,0.0,0.0,0.0,0.0,0.0,0.0,0.0,0.0,0.0,0.0,0.0,0.0,0.0,0.0,0.0,0.0,0.0,0.0,0.0,0.0,0.0,0.0,0.0,0.0,0.0,0.0,0.0,0.0,0.0,0.0,0.0,0.0,0.0,0.0,0.0,0.0,0.0,0.0,-2.7075,-2.8869,-3.0138,-3.0801,-3.0762,-2.9943,-2.7871,0.0,0.0,0.0,0.0,0.0,0.0,0.0,0.0,0.0,0.0,0.0,0.0,0.0,0.0,0.0,0.0,0.0,0.0,0.0,0.0,0.0,0.0,0.0,0.0,0.0,0.0,0.0,0.0,0.0,0.0,0.0,0.0,0.0,0.0,0.0,0.0,0.0,0.0,0.0,0.0,0.0,0.0,0.0,0.0,0.0,0.0,0.0,0.0,0.0,0.0,0.0,0.0,0.0,0.0,0.0,0.0,0.0,0.0,0.0,0.0,0.0,0.0,0.0,0.0,0.0,0.0,0.0,0.0,0.0,0.0,0.0,0.0,0.0,0.0,0.0,0.0,0.0,0.0,0.0,0.0,0.0,0.0,0.0,0.0,0.0,0.0,0.0,0.0,0.0,0.0,0.0,0.0,0.0,0.0,0.0,0.0,0.0,0.0,0.0,0.0,0.0,0.0,0.0,0.0,0.0,0.0,0.0,-2.5208,-2.7696,-2.9708,-3.045,-3.0801,-3.0801,-3.0801,-2.885,-2.4788,0.0,0.0,0.0,0.0,0.0,0.0,0.0,0.0,0.0,0.0,0.0,0.0,0.0,0.0,0.0,0.0,0.0,0.0,0.0,0.0,0.0,0.0,0.0,0.0,0.0,0.0,0.0,0.0,0.0,0.0,0.0,0.0,0.0,0.0,0.0,0.0,0.0,0.0,-1.5471,-1.6484,0.0,0.0,0.0,0.0,0.0,0.0,0.0,0.0,-1.6513,0.0,0.0,0.0,0.0,0.0,0.0,0.0,0.0,0.0,0.0,0.0,0.0,0.0,0.0,0.0,0.0,0.0,0.0,0.0,0.0,0.0,0.0,0.0,0.0,0.0,0.0,0.0,0.0,0.0,0.0,0.0,0.0,0.0,0.0,0.0,0.0,0.0,0.0,0.0,0.0,0.0,0.0,0.0,0.0,0.0,0.0,0.0,0.0,0.0,0.0,0.0,0.0,0.0,0.0,0.0,0.0,-2.4904,-2.5535,-2.7365,-3.0506,-3.0723,-3.0801,-3.0801,-3.0801,-2.9142,-2.5668,0.0,0.0,0.0,0.0,0.0,0.0,0.0,0.0,0.0,0.0,0.0,0.0,0.0,0.0,0.0,0.0,0.0,0.0,0.0,0.0,0.0,0.0,0.0,0.0,0.0,0.0,0.0,0.0,0.0,0.0,0.0,0.0,0.0,0.0,0.0,0.0,0.0,0.0,0.0,-1.9278,-2.0197,0.0,0.0,0.0,0.0,0.0,0.0,0.0,0.0,-1.6884,0.0,0.0,0.0,0.0,0.0,0.0,0.0,0.0,0.0,0.0,0.0,0.0,0.0,0.0,0.0,0.0,0.0,0.0,0.0,0.0,0.0,0.0,0.0,0.0,0.0,0.0,0.0,0.0,0.0,0.0,0.0,0.0,0.0,0.0,0.0,0.0,0.0,0.0,0.0,0.0,0.0,0.0,0.0,0.0,0.0,0.0,0.0,0.0,0.0,0.0,0.0,0.0,0.0,0.0,0.0,-2.4187,-2.65,-2.8684,-3.0701,-3.0801,-3.0801,-3.0782,-2.9962,-2.8301,0.0,0.0,0.0,0.0,0.0,0.0,0.0,0.0,0.0,0.0,0.0,0.0,0.0,0.0,0.0,0.0,0.0,0.0,0.0,0.0,0.0,0.0,0.0,0.0,0.0,0.0,0.0,0.0,0.0,0.0,0.0,0.0,0.0,0.0,0.0,0.0,0.0,0.0,0.0,0.0,-1.9896,-2.0797,-2.045,0.0,0.0,0.0,0.0,0.0,0.0,-1.794,-1.7375,0.0,0.0,0.0,0.0,0.0,0.0,0.0,0.0,0.0,0.0,0.0,0.0,0.0,0.0,0.0,0.0,0.0,0.0,0.0,0.0,0.0,0.0,0.0,0.0,0.0,0.0,0.0,0.0,0.0,0.0,0.0,0.0,0.0,0.0,0.0,0.0,0.0,0.0,0.0,0.0,0.0,0.0,0.0,0.0,0.0,0.0,0.0,0.0,0.0,0.0,0.0,0.0,0.0,0.0,0.0,-2.3076,-2.6994,-2.9628,-3.0723,-3.0801,-3.0801,-3.0782,-2.9494,-2.783,0.0,0.0,0.0,0.0,0.0,0.0,0.0,0.0,0.0,0.0,0.0,0.0,0.0,0.0,0.0,0.0,0.0,0.0,0.0,0.0,0.0,0.0,0.0,0.0,0.0,0.0,0.0,0.0,0.0,0.0,0.0,0.0,0.0,0.0,0.0,0.0,0.0,0.0,0.0,0.0,0.0,-2.1443,-2.1661,-2.1216,0.0,0.0,0.0,0.0,-1.9787,-1.9406,0.0,0.0,0.0,0.0,0.0,0.0,0.0,0.0,0.0,0.0,0.0,0.0,0.0,0.0,0.0,0.0,0.0,0.0,0.0,0.0,0.0,0.0,0.0,0.0,0.0,0.0,0.0,0.0,0.0,0.0,0.0,0.0,0.0,0.0,0.0,0.0,0.0,0.0,0.0,0.0,0.0,0.0,0.0,0.0,0.0,0.0,0.0,0.0,0.0,0.0,0.0,0.0,0.0,0.0,0.0,0.0,-2.2999,-2.5788,-2.8366,-3.0643,-3.0801,-3.0801,-3.0801,-3.0606,-2.9006,0.0,0.0,0.0,0.0,0.0,0.0,0.0,0.0,0.0,0.0,0.0,0.0,0.0,0.0,0.0,0.0,0.0,0.0,0.0,0.0,0.0,0.0,0.0,0.0,0.0,0.0,0.0,0.0,0.0,0.0,0.0,0.0,0.0,0.0,0.0,0.0,0.0,0.0,0.0,0.0,0.0,-2.4199,-2.1991,-2.2253,-2.2369,0.0,0.0,-2.253,-2.2526,-2.3037,0.0,0.0,0.0,0.0,0.0,0.0,0.0,0.0,0.0,0.0,0.0,0.0,0.0,0.0,0.0,0.0,0.0,0.0,0.0,0.0,0.0,0.0,0.0,0.0,0.0,0.0,0.0,0.0,0.0,0.0,0.0,0.0,0.0,0.0,0.0,0.0,0.0,0.0,0.0,0.0,0.0,0.0,0.0,0.0,0.0,0.0,0.0,0.0,0.0,0.0,0.0,0.0,0.0,0.0,0.0,-2.1842,-2.3081,-2.703,-2.9681,-3.0743,-3.0801,-3.0801,-3.0801,-2.9904,-2.8223,0.0,0.0,0.0,0.0,0.0,0.0,0.0,0.0,0.0,0.0,0.0,0.0,0.0,0.0,0.0,0.0,0.0,0.0,0.0,0.0,0.0,0.0,0.0,0.0,0.0,0.0,0.0,0.0,0.0,0.0,0.0,0.0,0.0,0.0,0.0,0.0,0.0,0.0,0.0,0.0,0.0,0.0,-2.4665,-2.4566,0.0,0.0,0.0,-2.4469,-2.4477,0.0,0.0,0.0,0.0,0.0,0.0,0.0,0.0,0.0,0.0,0.0,0.0,0.0,0.0,0.0,0.0,0.0,0.0,0.0,0.0,0.0,0.0,0.0,0.0,0.0,0.0,0.0,0.0,0.0,0.0,0.0,0.0,0.0,0.0,0.0,0.0,0.0,0.0,0.0,0.0,0.0,0.0,0.0,0.0,0.0,0.0,0.0,0.0,0.0,0.0,0.0,0.0,0.0,0.0,0.0,0.0,0.0,-2.3439,-2.8252,-3.0801,-3.0801,-3.0801,-3.0801,-3.0782,-2.9572,0.0,0.0,0.0,0.0,0.0,0.0,0.0,0.0,0.0,0.0,0.0,0.0,0.0,0.0,0.0,0.0,0.0,0.0,0.0,0.0,0.0,0.0,0.0,0.0,0.0,0.0,0.0,-1.529,0.0,0.0,0.0,0.0,0.0,0.0,0.0,0.0,0.0,0.0,0.0,0.0,0.0,0.0,-2.5021,-2.6378,-2.6378,-2.6456,0.0,0.0,-2.6398,-2.599,-2.5737,-2.4469,0.0,0.0,0.0,0.0,0.0,0.0,0.0,0.0,0.0,0.0,0.0,0.0,0.0,0.0,0.0,0.0,0.0,0.0,0.0,0.0,0.0,0.0,0.0,0.0,0.0,0.0,0.0,0.0,0.0,0.0,0.0,0.0,0.0,0.0,0.0,0.0,0.0,0.0,0.0,0.0,0.0,0.0,0.0,0.0,0.0,0.0,0.0,0.0,0.0,0.0,0.0,0.0,0.0,0.0,0.0,-2.4427,-2.8586,-3.0801,-3.0801,-3.0801,-3.0801,-3.0801,-3.0684,-2.9084,0.0,0.0,0.0,0.0,0.0,0.0,0.0,0.0,0.0,0.0,0.0,0.0,0.0,0.0,0.0,0.0,0.0,0.0,0.0,0.0,0.0,0.0,0.0,0.0,0.0,0.0,0.0,0.0,0.0,0.0,0.0,0.0,0.0,0.0,0.0,0.0,0.0,0.0,0.0,0.0,0.0,-2.5556,-2.5679,-2.698,-2.7945,0.0,0.0,-2.8612,-2.7058,-2.8068,-2.7369,-2.2435,0.0,0.0,0.0,0.0,0.0,0.0,0.0,0.0,0.0,0.0,0.0,0.0,0.0,0.0,0.0,0.0,0.0,0.0,0.0,0.0,0.0,0.0,0.0,0.0,0.0,0.0,0.0,0.0,0.0,0.0,0.0,0.0,0.0,0.0,0.0,0.0,0.0,0.0,0.0,0.0,0.0,0.0,0.0,0.0,0.0,0.0,0.0,0.0,0.0,0.0,0.0,0.0,0.0,-2.3511,-2.4427,-2.8605,-3.0801,-3.0801,-3.0801,-3.0801,-3.0801,-3.0801,-2.9455,0.0,0.0,0.0,0.0,0.0,0.0,0.0,0.0,0.0,0.0,0.0,0.0,0.0,0.0,0.0,0.0,0.0,0.0,0.0,0.0,0.0,0.0,0.0,0.0,0.0,0.0,0.0,0.0,-1.5772,-1.5893,-1.5365,0.0,0.0,0.0,0.0,0.0,0.0,0.0,0.0,0.0,0.0,-2.6767,-2.7796,-2.8495,0.0,0.0,-2.9544,-2.9369,-2.9253,-2.8456,-2.6825,-2.3789,-2.2003,0.0,0.0,0.0,0.0,0.0,0.0,0.0,0.0,0.0,0.0,0.0,0.0,0.0,0.0,0.0,0.0,0.0,0.0,0.0,0.0,0.0,0.0,0.0,0.0,0.0,0.0,0.0,0.0,0.0,0.0,0.0,0.0,0.0,0.0,0.0,0.0,0.0,0.0,0.0,0.0,0.0,0.0,0.0,0.0,0.0,0.0,0.0,0.0,0.0,0.0,0.0,0.0,-2.365,-2.4778,-2.8742,-3.0801,-3.0801,-3.0801,-3.0801,-3.0801,-3.0786,-2.9715,0.0,0.0,0.0,0.0,0.0,0.0,0.0,0.0,0.0,0.0,0.0,0.0,0.0,0.0,0.0,0.0,0.0,0.0,0.0,0.0,0.0,0.0,0.0,0.0,0.0,0.0,0.0,0.0,-1.599,-1.597,-1.5365,0.0,0.0,0.0,0.0,0.0,0.0,0.0,0.0,0.0,0.0,-2.7777,-2.9195,-2.9622,-2.9991,-3.0593,-3.0185,-2.9816,-2.9913,-2.8631,-2.6903,-2.4663,0.0,0.0,0.0,0.0,0.0,0.0,0.0,0.0,0.0,0.0,0.0,0.0,0.0,0.0,0.0,0.0,0.0,0.0,0.0,0.0,0.0,0.0,0.0,0.0,0.0,0.0,0.0,0.0,0.0,0.0,-1.5215,0.0,0.0,0.0,0.0,0.0,0.0,0.0,0.0,0.0,0.0,0.0,0.0,0.0,0.0,0.0,0.0,0.0,0.0,0.0,0.0,0.0,0.0,-2.3962,-2.5675,-2.9074,-3.0801,-3.0801,-3.0801,-3.0801,-3.0801,-3.0795,-2.9999,-2.8261,0.0,0.0,0.0,0.0,0.0,0.0,0.0,0.0,0.0,0.0,0.0,0.0,0.0,0.0,0.0,0.0,0.0,0.0,0.0,0.0,0.0,0.0,0.0,0.0,0.0,0.0,-1.6553,-1.5831,-1.5326,0.0,0.0,0.0,0.0,0.0,0.0,0.0,0.0,0.0,0.0,-2.6495,-2.8411,-2.9292,-3.0127,-3.0651,-3.069,-3.0671,-3.0088,-2.8508,-2.8826,-2.8204,0.0,0.0,0.0,0.0,0.0,0.0,0.0,0.0,0.0,0.0,0.0,0.0,0.0,0.0,0.0,0.0,0.0,0.0,0.0,0.0,0.0,0.0,0.0,0.0,0.0,0.0,0.0,-1.9195,-1.8639,0.0,0.0,0.0,0.0,0.0,0.0,0.0,0.0,0.0,0.0,0.0,-2.5615,-2.6229,0.0,0.0,0.0,0.0,0.0,0.0,0.0,0.0,0.0,0.0,0.0,0.0,-2.4241,-2.6568,-2.9344,-3.0795,-3.0796,-3.08,-3.0801,-3.0801,-3.08,-2.9725,-2.7497,0.0,0.0,0.0,0.0,0.0,0.0,0.0,0.0,0.0,0.0,0.0,0.0,0.0,0.0,0.0,0.0,0.0,0.0,0.0,0.0,0.0,0.0,0.0,0.0,0.0,-1.6608,0.0,0.0,0.0,0.0,0.0,0.0,0.0,0.0,0.0,0.0,0.0,-2.4275,-2.654,-2.8061,-2.9272,-3.0146,-3.0515,-3.069,0.0,0.0,0.0,0.0,0.0,0.0,0.0,0.0,0.0,0.0,0.0,0.0,0.0,0.0,-2.4488,-2.1129,-2.0022,-1.973,-2.0002,0.0,0.0,0.0,0.0,0.0,0.0,0.0,0.0,0.0,0.0,0.0,0.0,0.0,0.0,-2.2045,0.0,-2.1234,0.0,0.0,0.0,0.0,0.0,0.0,0.0,0.0,-2.6066,-2.7771,-2.9177,-2.9794,-2.9757,0.0,-2.8623,-2.6724,0.0,0.0,0.0,0.0,0.0,0.0,0.0,0.0,-2.5121,-2.7393,-2.9647,-3.0801,-3.0801,-3.0799,-3.0797,-3.0797,-3.0793,-2.9869,-2.7925,-2.6501,-2.4779,0.0,0.0,0.0,0.0,0.0,0.0,0.0,0.0,0.0,0.0,0.0,0.0,0.0,0.0,0.0,0.0,0.0,0.0,0.0,0.0,0.0,0.0,0.0,-1.704,0.0,0.0,0.0,0.0,0.0,0.0,0.0,0.0,0.0,-2.2643,-2.4355,-2.6353,-2.8281,-2.9304,-3.0049,-3.0613,0.0,0.0,0.0,0.0,0.0,0.0,0.0,-2.8185,-2.81,-2.7233,-2.6514,-2.6475,-2.7194,-2.7575,-2.6996,0.0,0.0,-2.375,-2.2663,-2.2352,-2.2668,-2.2663,-2.2785,-2.3387,-2.395,-2.4436,0.0,0.0,0.0,0.0,0.0,0.0,0.0,0.0,-2.353,-2.4027,0.0,-2.4605,0.0,0.0,0.0,0.0,0.0,-2.5439,0.0,0.0,-3.082,-3.2558,-3.3353,-3.3372,-3.3411,-3.3449,-3.3333,-3.2007,-2.9431,-2.5449,0.0,0.0,0.0,0.0,0.0,0.0,-2.6562,-2.8221,-2.9938,-3.0796,-3.0796,-3.0796,-3.0796,-3.0795,-3.0801,-3.0388,-2.9537,-2.866,-2.7082,-2.4627,-2.2838,0.0,0.0,0.0,0.0,0.0,0.0,0.0,0.0,0.0,0.0,0.0,0.0,0.0,0.0,0.0,0.0,0.0,0.0,0.0,0.0,-1.792,0.0,0.0,0.0,0.0,0.0,0.0,0.0,0.0,0.0,0.0,-2.4623,-2.6584,-2.8469,-2.9317,0.0,0.0,0.0,0.0,-3.0697,-3.0697,-3.0697,-3.0406,-2.9609,-3.0095,-3.0049,-2.8456,0.0,0.0,-2.8456,-2.889,-2.8915,-2.7355,-2.777,-2.8185,-2.8133,-2.6656,-2.5873,-2.6572,-2.5543,-2.511,-2.6514,-2.6903,-2.7219,-3.2209,0.0,0.0,0.0,0.0,-2.8564,-2.9637,-3.1318,-3.0716,-3.025,-2.9821,-2.8635,0.0,0.0,0.0,0.0,0.0,0.0,-2.9238,-3.0131,-3.148,-3.2886,-3.431,-3.4329,-3.4329,-3.4329,-3.431,-3.3621,-3.2263,-3.1058,-2.7827,-2.2812,0.0,0.0,0.0,0.0,-2.7401,-2.9097,-3.0222,-3.0801,-3.0801,-3.0785,-3.079,-3.0794,-3.0782,-3.0676,-3.0429,-2.9591,-2.8505,-2.7141,-2.49,0.0,0.0,0.0,0.0,0.0,0.0,0.0,0.0,0.0,0.0,0.0,0.0,0.0,0.0,0.0,0.0,0.0,0.0,0.0,-1.7829,-1.8494,-1.9141,0.0,0.0,0.0,0.0,0.0,0.0,0.0,0.0,0.0,-2.7982,-2.8599,-2.935,0.0,0.0,-3.0698,-3.0697,-3.0711,-3.07,-3.07,-3.07,0.0,-3.0369,-3.0024,-2.983,-2.9916,-3.0369,-3.0525,-3.0058,-3.0204,-3.0225,-2.9663,-2.9847,-3.0014,-2.9913,-2.8593,-2.755,-2.7693,-2.7815,-2.8049,-2.8573,-2.9156,-2.9661,-3.7775,-3.5166,-3.2463,-3.1934,-3.2851,-3.2871,-3.3749,-3.5193,-3.4666,-3.4334,-3.4103,-3.3094,-3.1573,-2.9755,-2.9414,0.0,0.0,0.0,-3.2528,-3.3358,-3.3866,-3.4878,-3.616,-3.6199,-3.6043,-3.5711,-3.6043,-3.5392,-3.3895,-3.4226,-3.1799,-2.6841,0.0,0.0,-2.7466,-2.8444,-2.9652,-3.0969,-3.1233,-3.1324,-3.1305,-3.0969,-3.0799,-3.0799,-3.0799,-3.0799,-3.0799,-3.0292,-2.963,-2.8734,-2.6926,-2.4962,0.0,0.0,0.0,0.0,0.0,0.0,0.0,0.0,0.0,0.0,0.0,-1.7832,-1.6521,0.0,0.0,0.0,-1.7982,-1.916,-2.0353,-2.0989,0.0,0.0,0.0,0.0,0.0,0.0,0.0,-2.6579,-2.8159,-2.9394,-2.9946,-2.9976,-3.0155,-3.0685,-3.0717,-3.0695,-3.0724,0.0,-3.0732,-3.0732,-3.0751,-3.0732,-3.0751,-3.0302,-3.0137,-3.065,-3.0732,-3.0751,-3.0751,-3.0771,-3.078,-3.0755,-3.0777,-3.0784,-3.0792,-2.9884,-2.9172,-2.9187,-2.9557,-2.9894,-2.9936,-3.0358,-3.0709,-4.2511,-4.2147,-3.8253,-3.6526,-3.6406,-3.6325,-3.6345,-3.6404,-3.6348,-3.6738,-3.7485,-3.742,-3.6953,-3.6133,-3.5286,0.0,-3.5042,-3.5825,-3.6557,-3.7297,-3.7316,-3.7732,-3.85,-3.85,-3.8071,-3.7311,-3.811,-3.7253,-3.5051,-3.5733,-3.4915,-3.2679,-3.2604,-3.244,-3.2127,-3.2163,-3.2604,-3.3361,-3.2601,-3.2153,-3.2094,-3.131,-3.0857,-3.0799,-3.0799,-3.0799,-3.0799,-3.0799,-3.0429,-2.963,-2.8773,-2.7199,-2.481,0.0,0.0,0.0,0.0,0.0,0.0,0.0,0.0,0.0,0.0,0.0,0.0,0.0,0.0,0.0,-2.0986,0.0,-2.4331,-2.4495,0.0,0.0,0.0,-2.4698,-2.4895,-2.6929,-2.8319,-2.8398,0.0,0.0,-3.0886,-3.0888,-3.093,-3.1001,-3.0842,-3.0735,-3.0798,-3.0796,-3.0823,-3.0921,-3.0843,-3.0823,-3.096,-3.0821,-3.0723,-3.0784,-3.0784,-3.0784,-3.0784,-3.0788,-3.0795,-3.0781,-3.0796,-3.0793,-3.0801,-3.0718,-3.0784,-3.0708,-3.0715,-3.0709,-3.0742,-3.0735,-3.0743,-4.3396,-4.3297,-4.2302,-4.1113,-3.984,-3.9183,-3.9281,-3.9819,-3.9175,-3.9003,-3.9159,-3.8512,-3.8096,-3.7851,-3.7003,-3.6965,-3.7605,-3.7825,-3.8015,-3.818,-3.818,-3.8291,-3.85,-3.8519,-3.8383,-3.8227,-3.8402,-3.8168,-3.7603,-3.7779,-3.7584,-3.6999,-3.6966,-3.5354,-3.224,-3.2747,-3.321,-3.338,-3.3181,-3.2776,-3.2133,-3.1895,-3.1486,-3.0818,-3.0799,-3.0799,-3.0799,-3.0799,-3.0701,-3.0487,-2.9649,-2.8602,-2.7316,-2.4257,0.0,0.0,0.0,0.0,0.0,0.0,0.0,0.0,0.0,-2.0989,-1.8189,0.0,-2.121,0.0,-2.2773,-2.4218,-2.5269,-2.5387,0.0,0.0,-2.675,-2.7147,-2.9042,-2.9227,-2.9433,-3.0103,-3.0552,-3.104,-3.1706,-3.1797,-3.2049,-3.2637,-3.1612,-3.0786,-3.08,-3.0801,-3.1053,-3.16,-3.1268,-3.1053,-3.1581,-3.1229,-3.08,-3.08,-3.08,-3.08,-3.08,-3.08,-3.0797,-3.08,-3.0799,-3.0795,-3.079,-3.08,-3.0801,-3.0799,-3.0775,-3.0785,-3.0799,-3.0796,-3.0799,-4.4811,-4.4784,-4.4401,-4.3898,-4.3275,-4.2051,-4.1816,-4.2207,-4.1738,-4.154,-4.1494,-4.098,-4.0766,-4.0735,-4.0262,-4.0329,-4.074,-4.037,-4.0195,-4.0156,-3.9805,-3.9669,-3.9649,-3.9649,-3.9454,-3.9084,-3.9474,-3.926,-3.8558,-3.8889,-3.8889,-3.8519,-3.8519,-3.7311,-3.5051,-3.5032,-3.4915,-3.4525,-3.4135,-3.3531,-3.2713,-3.2289,-3.1856,-3.1388,-3.0998,-3.0799,-3.0799,-3.0429,-3.0214,-3.0195,-2.9377,-2.8524,-2.7628,-2.5114,-2.3263,0.0,0.0,0.0,0.0,0.0,0.0,0.0,0.0,0.0,0.0,0.0,-2.3127,-2.3508,-2.5099,-2.6435,-2.7313,-2.774,-2.8357,-2.9258,-2.8965,-2.9238,-3.0665,-3.0728,-3.0849,-3.132,-3.1714,-3.2147,-3.2615,-3.2678,-3.2844,-3.3339,-3.2573,-3.1951,-3.1979,-3.1963,-3.2143,-3.2573,-3.2261,-3.1949,-3.2125,-3.1363,-3.0797,-3.0797,-3.0797,-3.0797,-3.0797,-3.079,-3.0786,-3.0795,-3.079,-3.0801,-3.0801,-3.079,-3.0793,-3.0788,-3.0797,-3.0801,-3.08,-3.0798,-3.0798,-4.6206,-4.6123,-4.5386,-4.5519,-4.6084,-4.4624,-4.3969,-4.3854,-4.3737,-4.3696,-4.3693,-4.3634,-4.3621,-4.3617,-4.3617,-4.3617,-4.3539,-4.2799,-4.2448,-4.2435,-4.1734,-4.1422,-4.1422,-4.1422,-4.0974,-4.0175,-4.0916,-4.0429,-3.8889,-3.9591,-3.9571,-3.887,-3.885,-3.8772,-3.8636,-3.7896,-3.7038,-3.6064,-3.5207,-3.4369,-3.3551,-3.2718,-3.2231,-3.2075,-3.1252,-3.0799,-3.0779,-3.0059,-2.9654,-2.963,-2.8948,-2.813,-2.7258,-2.5738,-2.4783,0.0,-2.3033,0.0,0.0,0.0,0.0,0.0,0.0,0.0,0.0,-2.4849,-2.5317,-2.5987,-2.7554,-2.8831,-2.9606,-3.0351,-3.0784,-3.0798,-3.0906,-3.0959,-3.0992,-3.1729,-3.227,-3.227,-3.2942,-3.3438,-3.3559,-3.3559,-3.3587,-3.3796,-3.3812,-3.3734,-3.3701,-3.3473,-3.3319,-3.3512,-3.3551,-3.3166,-3.2287,-3.1487,-3.0958,-3.086,-3.0801,-3.0799,-3.0801,-3.0799,-3.0799,-3.0799,-3.0801,-3.0799,-3.0801,-3.0801,-3.0801,-3.0801,-3.0784,-3.0784,-3.0786,-3.0796,-3.0798,-4.6203,-4.6177,-4.6027,-4.6047,-4.6177,-4.5871,-4.5309,-4.4614,-4.3931,-4.3621,-4.361,-4.3617,-4.3611,-4.3617,-4.3617,-4.3617,-4.3578,-4.3429,-4.3364,-4.3344,-4.3215,-4.313,-4.3137,-4.3137,-4.2682,-4.187,-4.1987,-4.1559,-4.0604,-4.0779,-4.0779,-4.0623,-4.0623,-4.0253,-3.9571,0.0,0.0,0.0,-3.6084,-3.5226,-3.4389,-3.357,-3.2815,-3.2114,-3.1252,0.0,-3.0799,-3.0643,-3.0565,-3.0546,-3.039,0.0,0.0,0.0,0.0,0.0,0.0,0.0,0.0,0.0,0.0,0.0,-2.5933,-2.58,-2.5551,-2.734,-2.8314,-2.7839,-2.9288,-3.037,-3.0526,-3.0701,-3.0804,-3.0823,-3.1427,-3.1841,-3.188,-3.2645,-3.3151,-3.3156,-3.3303,-3.3692,-3.4343,-3.4445,-3.4714,-3.5279,-3.55,-3.55,-3.5435,-3.4296,-3.3718,-3.4287,-3.4426,-3.3846,-3.2343,-3.1992,-3.1543,-3.1036,-3.0796,-3.0813,-3.0852,-3.0827,-3.0807,-3.0833,-3.0794,-3.0796,-3.0799,-3.0801,-3.0801,-3.0801,-3.0801,-3.0801,-3.0801,-3.0784,-3.0786,-4.6819,0.0,-4.6391,-4.6196,0.0,-4.6196,-4.5962,-4.5493,-4.5064,-4.4896,-4.489,-4.4871,-4.489,-4.4871,-4.489,-4.489,-4.4851,-4.4442,-4.4247,-4.4228,-4.3792,-4.3617,-4.3617,-4.3617,-4.3364,-4.2935,-4.2955,-4.2507,-4.1714,-4.1695,-4.15,-4.111,-4.111,-4.0877,-4.0448,-4.0019,-3.8948,-3.7233,-3.6766,-3.6123,-3.5265,-3.4428,-3.359,-3.2757,-3.1895,0.0,0.0,0.0,0.0,0.0,0.0,0.0,0.0,-2.8446,0.0,-2.7589,-2.716,-2.6907,-2.6907,-2.6926,-2.7297,-2.8115,-2.8578,-2.8485,-2.7628,-2.9167,-2.9966,-2.9546,-3.0297,-3.0979,-3.1388,-3.1447,-3.1602,-3.2031,-3.2479,-3.2737,-3.2815,-3.3478,-3.397,-3.4048,-3.4369,-3.4817,-3.5227,-3.5286,-3.5461,-3.5866,-3.5953,-3.5953,-3.5885,-3.526,-3.4901,-3.5252,-3.4924,-3.4404,-3.3529,-3.255,-3.2023,-3.1541,-3.1441,-3.1457,-3.1441,-3.1438,-3.1454,-3.1399,-3.1126,-3.0794,-3.0796,-3.0796,-3.0796,-3.0801,-3.0801,-3.0801,-3.0801,-3.0801,-3.0801,-4.7715,-4.7676,-4.6956,-4.6663,-4.6663,-4.6663,-4.6663,-4.6624,0.0,0.0,0.0,-4.6196,-4.6196,-4.6196,-4.6196,-4.6196,-4.6157,-4.5455,-4.5124,-4.5085,-4.4403,-4.4052,-4.4052,-4.4052,-4.3975,-4.3831,-4.3838,-4.3371,-4.2533,-4.2377,-4.1961,-4.1324,-4.113,-4.1045,-4.0991,-4.031,-3.9181,-3.7663,-3.7338,-3.6785,-3.5908,-3.5051,-3.4291,-3.3629,-3.264,-3.1758,-3.1057,-3.018,-2.9727,-2.9713,-2.9046,-2.8582,-2.8446,-2.8578,-2.8914,-2.9435,-2.9649,-2.9732,-2.9727,-2.9727,-2.9727,-2.9727,-3.039,-3.0487,-2.9766,-3.039,-3.0877,-3.1018,-3.1037,-3.1388,-3.225,-3.2328,-3.2601,-3.3322,-3.3536,-3.3609,-3.3673,-3.4335,-3.4822,-3.4895,-3.5421,-3.5889,-3.585,-3.585,-3.5889,-3.5889,-3.5908,-3.5889,-3.5894,-3.587,-3.5845,-3.5849,-3.5385,-3.4917,-3.4511,-3.3614,-3.2521,-3.2121,-3.2196,-3.2271,-3.2163,-3.2221,-3.2257,-3.204,-3.1474,-3.1064,-3.0849,-3.0791,-3.0794,-3.0799,-3.0799,-3.0799,-3.0801,-3.0801,-3.0801,-4.8631,-4.8592,-4.8495,-4.8436,-4.8436,-4.8436,-4.8436,-4.8319,-4.6839,-4.6196,-4.6196,-4.6196,-4.6196,-4.6196,-4.6196,-4.6196,-4.6176,-4.6059,-4.602,-4.602,-4.5884,-4.5825,-4.5845,-4.5825,-4.5436,-4.4754,-4.4715,-4.4267,-4.3429,-4.2663,-4.2167,-4.1868,-4.1276,-4.0869,-4.0754,-4.0637,-4.0084,-3.9096,-3.7829,-3.6785,-3.5908,-3.5051,-3.4564,-3.4369,-3.2927,-3.2055,-3.1914,-3.1076,-3.0624,-3.0624,-3.0507,-3.0098,-2.9377,-3.0,-3.0156,-2.9611,-3.0195,-3.0624,-3.0604,-3.0624,-3.0624,-3.0624,-3.074,-3.074,-3.0643,-3.0721,-3.1115,-3.1817,-3.1914,-3.227,-3.3083,-3.322,-3.3278,-3.3478,-3.4038,-3.4428,-3.4447,-3.5148,-3.5655,-3.5655,-3.5791,-3.5889,-3.5889,-3.5889,-3.5889,-3.5889,-3.5889,-3.5889,-3.5894,-3.5924,-3.5934,-3.5981,-3.5908,-3.5518,-3.4913,-3.4566,-3.3665,-3.2303,-3.2783,-3.2974,-3.2322,-3.2709,-3.283,-3.2232,-3.1877,-3.1546,-3.0967,-3.0788,-3.0788,-3.0791,-3.0794,-3.0794,-3.0799,-3.0801,-3.0801,-4.9469,-4.9391,-4.8982,-4.8806,-4.8806,-4.8806,-4.8806,-4.8729,-4.7969,-4.7345,-4.6878,-4.641,-4.6196,-4.6196,-4.6196,-4.6196,-4.6196,-4.6196,-4.6196,-4.6196,-4.6196,-4.6196,-4.6196,-4.6196,-4.5981,-4.5611,-4.5592,-4.4869,-4.3564,-4.3069,-4.2383,-4.1388,-4.0951,-4.0754,-4.0725,-4.0713,-4.0268,-3.9405,-3.8277,-3.7303,-3.6506,-3.5638,-3.5016,-3.4603,-3.3809,-3.3005,-3.2133,-3.1719,-3.1291,-3.0818,-3.0799,-3.0624,-3.0253,-3.0585,-3.0624,-3.0253,-3.0565,-3.0799,-3.0799,-3.0799,-3.0998,-3.1466,-3.1505,-3.1719,-3.2167,-3.1778,-3.1856,-3.2694,-3.2815,-3.3147,-3.396,-3.4038,-3.4233,-3.47,-3.509,-3.5304,-3.5343,-3.5616,-3.5889,-3.5889,-3.5889,-3.5889,-3.5889,-3.5889,-3.5889,-3.5889,-3.5889,-3.5889,-3.5889,-3.5894,-3.5919,-3.5943,-3.5948,-3.5812,-3.5392,-3.492,-3.4354,-3.3563,-3.3832,-3.3711,-3.3017,-3.3212,-3.3002,-3.2264,-3.1776,-3.1289,-3.0843,-3.0801,-3.0801,-3.0801,-3.0785,-3.0788,-3.0794,-3.0799,-3.0801,-5.0287,-5.0229,-4.9625,-4.9352,-4.9372,-4.9352,-4.9372,-4.9352,-4.9157,-4.869,-4.7988,-4.717,-4.678,-4.68,-4.678,-4.6683,-4.6507,-4.6488,-4.6391,-4.6196,-4.6196,-4.6189,-4.6174,-4.6174,-4.6138,-4.6083,-4.6083,-4.5327,-4.4033,-4.3751,-4.2714,-4.1081,-4.0712,-4.0602,-4.0621,-4.0602,-4.026,-3.9585,-3.8755,-3.7846,-3.6968,-3.6279,-3.5605,-3.4886,-3.4652,-3.3957,-3.2711,-3.2474,-3.209,-3.1447,-3.1388,-3.1388,-3.1388,-3.1193,-3.1096,-3.1076,-3.0916,-3.0799,-3.0818,-3.0998,-3.1369,-3.2036,-3.2289,-3.2757,-3.3497,-3.3064,-3.2932,-3.3551,-3.3653,-3.3999,-3.472,-3.4895,-3.5168,-3.5811,-3.5889,-3.585,-3.5869,-3.5889,-3.5889,-3.5889,-3.5889,-3.5889,-3.5889,-3.5889,-3.5889,-3.5889,-3.5889,-3.5889,-3.5889,-3.5889,-3.5889,-3.5889,-3.5889,-3.5875,-3.5846,-3.5373,-3.4886,-3.4768,-3.4861,-3.4525,-3.3969,-3.37,-3.3509,-3.2865,-3.2065,-3.1672,-3.1457,-3.1453,-3.1395,-3.1301,-3.1398,-3.15,-3.1549,-3.1298,-3.1128,-5.1164,-5.1164,-5.1047,-5.1067,-5.1008,-5.1028,-5.1008,-5.0911,-5.0248,-4.9859,-4.9644,-4.8904,-4.8534,-4.8553,-4.8514,-4.8066,-4.7404,-4.7384,-4.6995,-4.6313,-4.6196,-4.6119,-4.6056,-4.6017,-4.5925,-4.577,-4.5757,-4.5622,-4.5247,-4.4634,-4.3424,-4.1697,-4.076,-4.0366,-4.0327,-4.0346,-4.0289,-4.0194,-3.9371,-3.8235,-3.6911,-3.6748,-3.6314,-3.5542,-3.4853,-3.4447,-3.4183,-3.364,-3.3239,-3.3161,-3.3103,-3.3142,-3.3044,-3.2401,-3.1977,-3.1934,-3.1271,-3.0799,-3.0857,-3.1544,-3.2055,-3.2153,-3.2874,-3.3614,-3.4408,-3.4408,-3.4389,-3.4486,-3.4486,-3.4876,-3.5636,-3.5733,-3.5733,-3.585,-3.5889,-3.5889,-3.5889,-3.5889,-3.5889,-3.5889,-3.5889,-3.5889,-3.5889,-3.5889,-3.5889,-3.5889,-3.5889,-3.5889,-3.5889,-3.5889,-3.5889,-3.5889,-3.5889,-3.5889,-3.5875,-3.585,-3.5427,-3.49,-3.529,-3.5217,-3.4701,-3.4452,-3.4452,-3.3739,-3.354,-3.295,-3.2966,-3.3112,-3.2723,-3.203,-3.2303,-3.3028,-3.3017,-3.244,-3.1978,-5.13,-5.13,-5.13,-5.13,-5.13,-5.13,-5.13,-5.1261,-5.093,-5.0774,-5.0735,-5.0424,-4.9742,-4.8826,-4.8806,-4.8592,-4.828,-4.828,-4.8035,-4.7515,-4.7028,-4.6726,-4.6552,-4.6048,-4.5757,-4.5717,-4.5684,-4.5409,-4.4797,-4.3932,-4.2846,-4.1701,-4.1189,-4.0788,-4.0368,-4.0329,-4.0329,-4.0291,-3.9966,-3.9235,-3.8159,-3.7209,-3.6376,-3.5665,-3.5339,-3.4975,-3.4536,-3.4237,-3.3902,-3.3439,-3.338,-3.338,-3.338,-3.3069,-3.2874,-3.2849,-3.2557,-3.2343,-3.2343,-3.2674,-3.3064,-3.3531,-3.3921,-3.4467,-3.5265,-3.5363,-3.5363,-3.5363,-3.5363,-3.5538,-3.583,-3.5889,-3.5889,-3.5889,-3.5889,-3.5889,-3.5889,-3.5889,-3.5889,-3.5889,-3.5889,-3.5889,-3.5889,-3.5889,-3.5889,-3.5889,-3.5889,-3.5889,-3.5889,-3.5889,-3.5889,-3.5889,-3.5889,-3.5889,-3.5889,-3.5889,-3.5713,-3.5538,-3.5636,-3.5602,-3.4925,-3.4652,-3.4501,-3.4081,-3.3726,-3.3492,-3.3293,-3.2903,-3.2469,-3.2294,-3.2298,-3.2771,-3.3282,-3.2701,-3.2537,-5.13,-5.13,-5.13,-5.13,-5.13,-5.13,-5.13,-5.13,-5.13,-5.13,-5.13,-5.13,-5.0638,-4.9586,-4.9488,-4.9344,-4.9106,-4.9078,-4.8847,-4.8386,-4.7551,-4.7062,-4.6882,-4.607,-4.5615,-4.5603,-4.5587,-4.5233,-4.4497,-4.3599,-4.2794,-4.2221,-4.1743,-4.1208,-4.0673,-4.0444,-4.0329,-4.0329,-4.0329,-3.9871,-3.8972,-3.7907,-3.6858,-3.5965,-3.5695,-3.5359,-3.4844,-3.4853,-3.4645,-3.4116,-3.4077,-3.4077,-3.4077,-3.3863,-3.3629,-3.3419,-3.338,-3.338,-3.34,-3.3609,-3.3979,-3.4544,-3.4798,-3.5226,-3.5752,-3.5889,-3.5889,-3.5869,-3.5889,-3.5869,-3.5889,-3.5889,-3.5889,-3.5889,-3.5889,-3.5889,-3.5889,-3.5889,-3.5889,-3.5889,-3.5889,-3.5889,-3.5889,-3.5889,-3.5889,-3.5889,-3.5889,-3.5889,-3.5889,-3.5889,-3.5889,-3.5889,-3.5889,-3.5889,-3.5889,-3.5889,-3.5889,-3.5889,-3.5889,-3.5694,-3.4993,-3.4856,-3.4837,-3.4657,-3.4067,-3.397,-3.436,-3.3697,-3.3015,-3.2952,-3.2703,-3.261,-3.3643,-3.2849,-3.2857,-5.13,-5.13,-5.13,-5.13,-5.13,-5.13,-5.13,-5.13,-5.13,-5.13,-5.13,-5.13,-5.1261,-5.1078,-5.102,-5.0646,-4.9865,-4.9776,-4.9317,-4.845,-4.754,-4.6966,-4.6758,-4.595,-4.5456,-4.5361,-4.5361,-4.5282,-4.5166,-4.438,-4.3921,-4.3787,-4.2335,-4.1514,-4.1285,-4.0654,-4.0329,-4.0329,-4.0329,-3.9909,-3.9126,-3.8934,-3.8053,-3.6671,-3.5797,-3.5514,-3.5491,-3.56,-3.5624,-3.5727,-3.5675,-3.5694,-3.5655,-3.4973,-3.4233,-3.359,-3.3473,-3.3453,-3.3595,-3.4174,-3.4603,-3.472,-3.5343,-3.583,-3.5869,-3.5889,-3.5889,-3.5889,-3.5967,-3.5986,-3.5889,-3.5889,-3.5889,-3.5889,-3.5889,-3.5889,-3.5889,-3.5889,-3.5889,-3.5889,-3.5889,-3.5889,-3.5889,-3.5889,-3.5889,-3.5889,-3.5889,-3.5889,-3.5889,-3.5889,-3.5889,-3.5889,-3.5889,-3.5889,-3.5889,-3.5889,-3.5889,-3.5889,-3.5889,-3.5869,-3.5577,-3.5343,-3.5343,-3.5265,-3.4861,-3.49,-3.5499,-3.5519,-3.5051,-3.4389,-3.2932,-3.2874,-3.3712,-3.2893,-3.284,-5.13,-5.13,-5.13,-5.13,-5.13,-5.13,-5.13,-5.13,-5.13,-5.13,-5.13,-5.13,-5.1248,-5.119,-5.1171,-5.0984,-5.0658,-5.0639,-5.0317,-4.9714,-4.887,-4.8105,-4.7392,-4.6568,-4.5819,-4.5356,-4.5277,-4.5277,-4.5258,-4.4972,-4.4551,-4.3921,-4.2908,-4.2068,-4.1457,-4.0711,-4.0329,-4.0329,-4.0329,-4.0157,-3.9794,-3.9298,-3.8686,-3.8075,-3.6861,-3.5996,-3.5489,-3.5611,-3.571,-3.5779,-3.5846,-3.5889,-3.5869,-3.5616,-3.5304,-3.5032,-3.4993,-3.4993,-3.5032,-3.5246,-3.5421,-3.546,-3.5713,-3.5908,-3.5889,-3.5889,-3.5889,-3.5986,-3.6454,-3.6512,-3.6006,-3.5889,-3.5889,-3.5889,-3.5908,-3.5947,-3.5889,-3.5889,-3.5889,-3.5889,-3.5889,-3.5889,-3.5967,-3.5889,-3.5889,-3.5889,-3.5889,-3.5889,-3.5889,-3.5889,-3.5889,-3.5889,-3.5889,-3.5889,-3.5889,-3.5889,-3.5889,-3.5889,-3.5889,-3.5889,-3.5713,-3.5655,-3.5655,-3.5265,-3.5071,-3.5129,-3.546,-3.4837,-3.4759,-3.3785,-3.2445,-3.2893,-3.359,-3.2596,-3.2601,-5.13,-5.13,-5.13,-5.13,-5.13,-5.13,-5.13,-5.13,-5.13,-5.13,-5.13,-5.13,-5.123,-5.1117,-5.1086,-5.1024,-5.0956,-5.0923,-5.0784,-5.0449,-4.9623,-4.8869,-4.8127,-4.7054,-4.6233,-4.5698,-4.5411,-4.5297,-4.5275,-4.5275,-4.493,-4.4355,-4.3535,-4.2697,-4.1876,-4.1074,-4.0578,-4.0368,-4.0329,-4.031,-4.0234,-3.9737,-3.9279,-3.8895,-3.7983,-3.693,-3.5872,-3.5681,-3.564,-3.5693,-3.5794,-3.5846,-3.5883,-3.5889,-3.5889,-3.5889,-3.5869,-3.5889,-3.5889,-3.5889,-3.5889,-3.5908,-3.6162,-3.624,-3.5986,-3.6395,-3.6571,-3.659,-3.7077,-3.7311,-3.6921,-3.6766,-3.6629,-3.6454,-3.6571,-3.659,-3.6395,-3.659,-3.6766,-3.6824,-3.6844,-3.6688,-3.6376,-3.6337,-3.6201,-3.5986,-3.5889,-3.5889,-3.5889,-3.5889,-3.5889,-3.5889,-3.5889,-3.5889,-3.5889,-3.5908,-3.5928,-3.5928,-3.5889,-3.5889,-3.5889,-3.5889,-3.5713,-3.5304,-3.5148,-3.5187,-3.4856,-3.4194,-3.3453,-3.2674,-3.262,-3.301,-3.2849,-3.2226,-3.2289,-5.13,-5.13,-5.13,-5.13,-5.13,-5.13,-5.13,-5.13,-5.13,-5.13,-5.13,-5.13,-5.122,-5.1086,-5.1062,-5.0908,-5.0663,-5.0644,-5.0526,-5.0272,-4.9561,-4.914,-4.8888,-4.7379,-4.6481,-4.6233,-4.564,-4.5275,-4.5233,-4.5213,-4.5113,-4.4916,-4.4135,-4.3281,-4.2675,-4.1721,-4.0978,-4.0463,-4.0291,-4.0291,-4.031,-4.0234,-3.9833,-3.9183,-3.8915,-3.818,-3.6805,-3.5944,-3.5639,-3.5765,-3.5721,-3.576,-3.5878,-3.5889,-3.5889,-3.5889,-3.5889,-3.5889,-3.5967,-3.6006,-3.6064,-3.6279,-3.6785,-3.6921,-3.6571,-3.7428,-3.7954,-3.7467,-3.7954,-3.8441,-3.8363,-3.8441,-3.8129,-3.7448,-3.7779,-3.7876,-3.7545,-3.7935,-3.8441,-3.8324,-3.8227,-3.8071,-3.7467,-3.7077,-3.6785,-3.6259,-3.5967,-3.5889,-3.5889,-3.5889,-3.5889,-3.5908,-3.6064,-3.624,-3.6064,-3.5928,-3.5947,-3.5967,-3.5908,-3.5889,-3.5889,-3.5869,-3.5675,-3.5324,-3.5168,-3.5187,-3.4895,-3.4272,-3.394,-3.3356,-3.3322,-3.3049,-3.2718,-3.2323,-3.1778,-5.13,-5.13,-5.13,-5.13,-5.13,-5.13,-5.13,-5.13,-5.13,-5.13,-5.13,-5.13,-5.1152,-5.0926,-5.0903,-5.0713,-5.0418,-5.0396,-5.0352,-5.0225,-5.0015,-4.9614,-4.8984,-4.7952,-4.6787,-4.5812,-4.543,-4.5297,-4.5275,-4.5233,-4.5211,-4.5061,-4.429,-4.3452,-4.2732,-4.1795,-4.0976,-4.033,-4.0234,-4.0253,-4.0291,-4.0329,-4.0157,-3.989,-3.9336,-3.8741,-3.8257,-3.7026,-3.6376,-3.6452,-3.5969,-3.5753,-3.5878,-3.5889,-3.5889,-3.5889,-3.5889,-3.622,-3.6707,-3.6785,-3.7038,-3.7564,-3.7954,-3.7974,-3.774,-3.8188,-3.8422,-3.8207,-3.885,-3.9201,-3.8831,-3.9649,-3.9552,-3.8246,-3.8324,-3.85,-3.8266,-3.8363,-3.848,-3.8519,-3.8519,-3.8363,-3.8071,-3.772,-3.7233,-3.6844,-3.6337,-3.5967,-3.5967,-3.6025,-3.5889,-3.5889,-3.6279,-3.6707,-3.659,-3.6493,-3.6454,-3.622,-3.6006,-3.5908,-3.5889,-3.585,-3.5655,-3.5421,-3.5265,-3.5012,-3.472,-3.4467,-3.4155,-3.3785,-3.3453,-3.3225,-3.303,-3.2674,-3.2226,-5.13,-5.13,-5.13,-5.13,-5.13,-5.13,-5.13,-5.1292,-5.1239,-5.123,-5.1201,-5.1152,-5.0985,-5.0761,-5.0711,-5.0548,-5.0306,-5.0302,-5.0302,-5.0302,-5.0302,-4.9996,-4.9461,-4.8678,-4.7398,-4.6023,-4.5755,-4.5562,-4.5233,-4.5192,-4.517,-4.5014,-4.4509,-4.3859,-4.3145,-4.2512,-4.1753,-4.0824,-4.0673,-4.052,-4.0349,-4.0329,-4.0329,-4.0234,-3.9775,-3.9508,-3.9393,-3.8216,-3.744,-3.7225,-3.6842,-3.6744,-3.6838,-3.661,-3.6512,-3.6688,-3.6337,-3.6395,-3.7428,-3.737,-3.7564,-3.8344,-3.8792,-3.8792,-3.8714,-3.8909,-3.9376,-3.9162,-3.9766,-4.0058,-3.9805,-4.0351,-4.0506,-3.9649,-3.9513,-3.9454,-3.9435,-3.9162,-3.9221,-3.9415,-3.9552,-3.9318,-3.8928,-3.8617,-3.7993,-3.7701,-3.6941,-3.661,-3.6649,-3.661,-3.6551,-3.6727,-3.7311,-3.7448,-3.7194,-3.7077,-3.6999,-3.6571,-3.6103,-3.5967,-3.5889,-3.5889,-3.5772,-3.546,-3.5246,-3.4895,-3.4603,-3.4583,-3.4389,-3.3979,-3.3687,-3.359,-3.3478,-3.3283,-3.2947,-5.13,-5.13,-5.13,-5.13,-5.13,-5.13,-5.13,-5.1284,-5.1171,-5.1128,-5.1093,-5.0959,-5.0761,-5.0644,-5.0625,-5.0506,-5.0306,-5.0302,-5.0302,-5.0302,-5.0283,-5.0168,-4.9839,-4.9232,-4.8009,-4.6593,-4.6402,-4.5938,-4.5163,-4.5125,-4.5057,-4.4948,-4.4849,-4.4507,-4.3795,-4.3738,-4.2892,-4.1663,-4.1492,-4.115,-4.052,-4.0444,-4.0368,-4.0329,-4.0253,-4.0196,-4.0043,-3.9392,-3.8621,-3.8027,-3.7973,-3.8077,-3.8222,-3.7675,-3.7603,-3.8168,-3.6883,-3.7214,-3.7993,-3.8032,-3.7974,-3.885,-3.9493,-3.9571,-3.9182,-4.0019,-4.0506,-3.998,-4.0545,-4.0994,-4.0935,-4.1052,-4.1013,-4.1071,-4.0799,-4.0818,-4.0974,-4.0292,-4.0195,-4.0721,-4.1013,-4.0779,-3.9922,-3.9727,-3.924,-3.8656,-3.7857,-3.7681,-3.7837,-3.772,-3.774,-3.7974,-3.8266,-3.8383,-3.8188,-3.8129,-3.7974,-3.7311,-3.6688,-3.622,-3.5947,-3.5889,-3.5889,-3.5577,-3.5304,-3.4915,-3.4778,-3.4895,-3.4759,-3.4428,-3.4233,-3.4116,-3.4096,-3.4057,-3.3999,-5.13,-5.13,-5.13,-5.13,-5.13,-5.13,-5.13,-5.13,-5.1276,-5.1161,-5.1086,-5.103,-5.0848,-5.0625,-5.0606,-5.0485,-5.0329,-5.0302,-5.0302,-5.0302,-5.0302,-4.9897,-4.9472,-4.9171,-4.8213,-4.6733,-4.6546,-4.6008,-4.516,-4.5122,-4.508,-4.5057,-4.4948,-4.4588,-4.3908,-4.3833,-4.3289,-4.2441,-4.233,-4.199,-4.1323,-4.1189,-4.0864,-4.0348,-4.0348,-4.0329,-4.031,-4.01,-3.9273,-3.805,-3.8156,-3.8296,-3.843,-3.8266,-3.8324,-3.8441,-3.8168,-3.8246,-3.9104,-3.9182,-3.9493,-4.0292,-4.0487,-4.0643,-4.0467,-4.0799,-4.0994,-4.0799,-4.1013,-4.111,-4.111,-4.111,-4.111,-4.111,-4.111,-4.111,-4.1071,-4.0935,-4.0877,-4.1052,-4.111,-4.0935,-4.0682,-4.0214,-3.9786,-3.9396,-3.8792,-3.8305,-3.8636,-3.8539,-3.8402,-3.8617,-3.887,-3.9143,-3.926,-3.9221,-3.8889,-3.8149,-3.7409,-3.6571,-3.622,-3.5889,-3.5889,-3.5791,-3.5675,-3.5343,-3.546,-3.5597,-3.5265,-3.4895,-3.5051,-3.509,-3.5285,-3.5324,-3.5226,-5.13,-5.13,-5.13,-5.13,-5.13,-5.13,-5.13,-5.1265,-5.1132,-5.1066,-5.0965,-5.0832,-5.0662,-5.0485,-5.0464,-5.0418,-5.0302,-5.0259,-5.0236,-5.0236,-5.0231,-4.9959,-4.9616,-4.9506,-4.8772,-4.7562,-4.7086,-4.6477,-4.5688,-4.5247,-4.5076,-4.5038,-4.5014,-4.4744,-4.4402,-4.4315,-4.3938,-4.3257,-4.315,-4.281,-4.2125,-4.2049,-4.1571,-4.0998,-4.0788,-4.0711,-4.0387,-4.031,-3.9828,-3.9219,-3.9192,-3.9324,-3.9355,-3.9147,-3.924,-3.948,-3.8967,-3.8987,-4.0,-4.0039,-4.0195,-4.0877,-4.111,-4.111,-4.1071,-4.111,-4.111,-4.1091,-4.111,-4.111,-4.111,-4.111,-4.111,-4.111,-4.111,-4.111,-4.111,-4.1091,-4.111,-4.111,-4.111,-4.111,-4.111,-4.0623,-4.0429,-4.0195,-3.9591,-3.9474,-3.9571,-3.926,-3.9182,-3.9474,-3.963,-3.9883,-3.9786,-3.9649,-3.9298,-3.8636,-3.7857,-3.7038,-3.6532,-3.6064,-3.5889,-3.5889,-3.5889,-3.5889,-3.5889,-3.5889,-3.5733,-3.5597,-3.5869,-3.5889,-3.5889,-3.5889,-3.5889,-5.13,-5.13,-5.13,-5.13,-5.13,-5.13,-5.13,-5.1248,-5.0991,-5.0855,-5.0778,-5.0486,-5.0396,-5.0302,-5.0306,-5.0302,-5.0278,-5.0188,-5.0188,-5.0182,-5.0158,-5.0038,-5.0043,-4.998,-4.9461,-4.8637,-4.799,-4.7167,-4.6263,-4.5485,-4.5105,-4.5048,-4.501,-4.501,-4.4881,-4.5004,-4.4665,-4.4116,-4.4026,-4.3649,-4.308,-4.2889,-4.2488,-4.1762,-4.1399,-4.0979,-4.0501,-4.031,-4.0267,-4.045,-4.0629,-4.0595,-4.0673,-4.019,-4.0286,-4.0604,-3.9786,-3.9649,-4.0643,-4.039,-4.0273,-4.0955,-4.111,-4.111,-4.111,-4.111,-4.111,-4.111,-4.111,-4.111,-4.111,-4.111,-4.111,-4.111,-4.111,-4.111,-4.111,-4.111,-4.111,-4.111,-4.111,-4.111,-4.111,-4.111,-4.1071,-4.0721,-4.0292,-4.0253,-4.0292,-4.0136,-4.0253,-4.0604,-4.0662,-4.0643,-4.0351,-4.0019,-3.9532,-3.8967,-3.8168,-3.7409,-3.6902,-3.6454,-3.6064,-3.5889,-3.5889,-3.5889,-3.5889,-3.5889,-3.5889,-3.5889,-3.5889,-3.5889,-3.5889,-3.5889,-3.5889,-5.13,-5.13,-5.13,-5.13,-5.13,-5.13,-5.13,-5.1292,-5.1109,-5.0932,-5.0793,-5.0606,-5.0421,-5.0231,-5.0212,-5.0207,-5.0158,-5.0133,-5.0133,-5.0108,-5.0057,-5.0012,-5.0057,-5.0082,-4.96,-4.8922,-4.8656,-4.7745,-4.6556,-4.6163,-4.5632,-4.5057,-4.5143,-4.501,-4.5033,-4.5084,-4.5068,-4.4903,-4.4949,-4.4512,-4.3901,-4.373,-4.3367,-4.2565,-4.1915,-4.1151,-4.0501,-4.0329,-4.0363,-4.0489,-4.0629,-4.0788,-4.0834,-4.0824,-4.087,-4.0916,-4.0818,-4.0662,-4.0974,-4.0916,-4.0877,-4.1033,-4.111,-4.111,-4.111,-4.111,-4.111,-4.111,-4.111,-4.111,-4.111,-4.111,-4.111,-4.111,-4.111,-4.111,-4.111,-4.111,-4.111,-4.111,-4.111,-4.111,-4.111,-4.111,-4.1091,-4.1052,-4.1013,-4.0935,-4.0896,-4.0838,-4.0955,-4.111,-4.1052,-4.0916,-4.0799,-4.0429,-4.0,-3.9454,-3.8675,-3.7974,-3.7448,-3.6921,-3.6571,-3.6201,-3.5889,-3.5908,-3.5986,-3.5889,-3.5889,-3.5889,-3.5889,-3.5889,-3.5889,-3.5889,-3.5889,-5.13,-5.13,-5.13,-5.13,-5.13,-5.13,-5.13,-5.1284,-5.115,-5.0978,-5.0758,-5.0625,-5.0421,-5.0182,-5.0139,-5.0133,-5.0108,-5.0038,-5.0031,-5.0005,-4.9978,-4.9933,-4.9933,-4.9959,-4.9694,-4.9243,-4.889,-4.8143,-4.7517,-4.696,-4.6434,-4.5675,-4.5646,-4.5464,-4.5141,-4.5148,-4.5192,-4.5173,-4.5275,-4.5048,-4.4685,-4.459,-4.4208,-4.3386,-4.2584,-4.1896,-4.1662,-4.1182,-4.1123,-4.1125,-4.0974,-4.0834,-4.0904,-4.101,-4.1104,-4.111,-4.111,-4.111,-4.111,-4.111,-4.1091,-4.111,-4.111,-4.111,-4.111,-4.111,-4.111,-4.111,-4.111,-4.111,-4.111,-4.111,-4.111,-4.111,-4.111,-4.111,-4.111,-4.111,-4.111,-4.111,-4.111,-4.111,-4.111,-4.111,-4.111,-4.1091,-4.1091,-4.1033,-4.1033,-4.0994,-4.1013,-4.111,-4.111,-4.1091,-4.1071,-4.0857,-4.0506,-3.998,-3.9376,-3.8733,-3.8188,-3.7662,-3.7136,-3.6824,-3.6532,-3.6142,-3.6142,-3.6025,-3.5947,-3.5889,-3.5889,-3.5889,-3.5889,-3.5889,-3.5889,-5.13,-5.13,-5.13,-5.13,-5.13,-5.13,-5.1292,-5.1256,-5.1109,-5.0884,-5.0692,-5.0509,-5.0287,-5.0133,-5.0082,-5.0082,-5.0057,-5.0005,-4.9978,-4.9925,-4.9925,-4.9906,-4.9925,-4.9906,-4.9887,-4.9803,-4.9318,-4.8818,-4.8446,-4.7979,-4.7156,-4.6525,-4.6401,-4.5891,-4.5363,-4.5235,-4.5235,-4.5254,-4.5275,-4.5277,-4.5201,-4.5163,-4.4743,-4.394,-4.3407,-4.2909,-4.2667,-4.2271,-4.2039,-4.2228,-4.1626,-4.1345,-4.1276,-4.1073,-4.111,-4.111,-4.111,-4.111,-4.111,-4.111,-4.111,-4.111,-4.111,-4.111,-4.111,-4.113,-4.1227,-4.1422,-4.1539,-4.1714,-4.15,-4.1461,-4.1403,-4.1305,-4.1247,-4.111,-4.111,-4.111,-4.111,-4.111,-4.111,-4.111,-4.111,-4.111,-4.111,-4.111,-4.111,-4.111,-4.111,-4.111,-4.111,-4.111,-4.111,-4.111,-4.111,-4.1091,-4.0779,-4.0526,-3.998,-3.963,-3.9162,-3.9045,-3.8617,-3.7701,-3.7272,-3.6921,-3.6571,-3.6434,-3.6298,-3.6045,-3.5889,-3.5889,-3.5889,-3.5889,-3.6006,-5.13,-5.13,-5.13,-5.13,-5.13,-5.13,-5.1256,-5.1162,-5.0912,-5.0726,-5.0586,-5.0294,-5.0139,-5.0031,-5.0031,-5.0005,-4.9952,-4.9952,-4.9925,-4.9879,-4.9879,-4.9879,-4.9879,-4.9879,-4.9879,-4.9879,-4.9652,-4.9311,-4.8875,-4.8503,-4.7834,-4.6706,-4.6407,-4.6016,-4.5592,-4.5213,-4.5292,-4.5409,-4.5354,-4.5277,-4.5277,-4.5239,-4.4973,-4.4248,-4.4039,-4.378,-4.325,-4.3062,-4.3039,-4.3151,-4.3054,-4.3013,-4.2716,-4.1857,-4.1357,-4.1325,-4.1364,-4.1422,-4.1403,-4.1247,-4.1149,-4.111,-4.1266,-4.1188,-4.1169,-4.1247,-4.1637,-4.2124,-4.2669,-4.3091,-4.315,-4.2487,-4.2156,-4.1981,-4.1656,-4.1305,-4.1266,-4.1325,-4.1364,-4.1461,-4.1344,-4.111,-4.111,-4.111,-4.111,-4.111,-4.111,-4.111,-4.111,-4.111,-4.111,-4.111,-4.111,-4.111,-4.111,-4.111,-4.0994,-4.0974,-4.0682,-4.0662,-4.0429,-4.0643,-4.0214,-3.9104,-3.8305,-3.7876,-3.7506,-3.7038,-3.661,-3.6337,-3.6123,-3.5947,-3.6103,-3.6298,-3.659,-5.13,-5.13,-5.13,-5.13,-5.1292,-5.1256,-5.1191,-5.1078,-5.0884,-5.0657,-5.043,-5.0272,-5.0095,-4.9986,-4.9933,-4.9925,-4.9925,-4.9879,-4.9879,-4.9879,-4.9879,-4.9879,-4.9879,-4.9879,-4.9879,-4.9879,-4.986,-4.9728,-4.9375,-4.9364,-4.865,-4.787,-4.7267,-4.6843,-4.6358,-4.5715,-4.5638,-4.5717,-4.5545,-4.5297,-4.5277,-4.5277,-4.5013,-4.4921,-4.4858,-4.4762,-4.4608,-4.4066,-4.4053,-4.4061,-4.3728,-4.3588,-4.3357,-4.302,-4.2396,-4.2396,-4.2338,-4.2357,-4.237,-4.2396,-4.2455,-4.2435,-4.2351,-4.2124,-4.1987,-4.2163,-4.2533,-4.2935,-4.3189,-4.3617,-4.352,-4.3208,-4.3033,-4.2922,-4.2565,-4.2377,-4.2357,-4.2357,-4.2279,-4.2104,-4.1656,-4.1364,-4.111,-4.111,-4.111,-4.111,-4.111,-4.111,-4.111,-4.111,-4.111,-4.111,-4.111,-4.111,-4.111,-4.111,-4.111,-4.111,-4.111,-4.111,-4.1091,-4.1052,-4.0857,-4.0234,-3.9571,-3.8889,-3.8129,-3.7564,-3.7097,-3.6727,-3.6707,-3.6688,-3.6629,-3.6746,-3.7097,-5.13,-5.13,-5.1292,-5.1265,-5.1256,-5.1181,-5.1066,-5.0945,-5.0828,-5.0586,-5.0298,-5.0225,-5.01,-4.9959,-4.9879,-4.9879,-4.9879,-4.9879,-4.9879,-4.9879,-4.9879,-4.9879,-4.9879,-4.9879,-4.9879,-4.9879,-4.9879,-4.9879,-4.9811,-4.9838,-4.9518,-4.877,-4.8138,-4.7846,-4.7452,-4.6557,-4.6366,-4.6099,-4.5946,-4.5526,-4.5316,-4.5339,-4.5381,-4.5507,-4.5558,-4.5684,-4.5662,-4.5298,-4.5073,-4.4966,-4.463,-4.4208,-4.415,-4.413,-4.413,-4.4072,-4.3812,-4.3637,-4.3559,-4.35,-4.3344,-4.3305,-4.352,-4.3176,-4.302,-4.3215,-4.3819,-4.3877,-4.4169,-4.4279,-4.4377,-4.3987,-4.3897,-4.3799,-4.3695,-4.3559,-4.341,-4.3332,-4.3254,-4.2844,-4.2124,-4.1792,-4.1695,-4.1461,-4.1539,-4.113,-4.111,-4.111,-4.111,-4.111,-4.111,-4.111,-4.111,-4.111,-4.111,-4.111,-4.111,-4.111,-4.111,-4.111,-4.111,-4.1091,-4.0896,-4.074,-4.0506,-3.9805,-3.8948,-3.8168,-3.7798,-3.7545,-3.7487,-3.7292,-3.7038,-3.737,-3.7876,-5.13,-5.13,-5.1239,-5.122,-5.1181,-5.1017,-5.0894,-5.0784,-5.0509,-5.0317,-5.0193,-5.0019,-4.9959,-4.9925,-4.9879,-4.9879,-4.9879,-4.9879,-4.9879,-4.9879,-4.9879,-4.9879,-4.9879,-4.9879,-4.9879,-4.9879,-4.9879,-4.9879,-4.9906,-4.9925,-4.9625,-4.9036,-4.88,-4.8543,-4.8102,-4.7455,-4.7169,-4.6653,-4.6424,-4.6006,-4.5454,-4.5438,-4.5491,-4.5591,-4.5756,-4.5933,-4.6017,-4.586,-4.5908,-4.5916,-4.5903,-4.5845,-4.5903,-4.5903,-4.5903,-4.5436,-4.4637,-4.3617,-4.3792,-4.3909,-4.3929,-4.3968,-4.3858,-4.3604,-4.378,-4.413,-4.4618,-4.4773,-4.5299,-4.5611,-4.5436,-4.5124,-4.4871,-4.4559,-4.4306,-4.3994,-4.3819,-4.4325,-4.4247,-4.4111,-4.3546,-4.2922,-4.2552,-4.2241,-4.1942,-4.1481,-4.111,-4.1149,-4.111,-4.111,-4.111,-4.111,-4.111,-4.111,-4.111,-4.111,-4.111,-4.111,-4.111,-4.111,-4.111,-4.111,-4.111,-4.0955,-4.0818,-4.0604,-3.9844,-3.9162,-3.8636,-3.8266,-3.8071,-3.7681,-3.7272,-3.7818,-3.848,-5.1265,-5.1239,-5.118,-5.1097,-5.1037,-5.0965,-5.0781,-5.0529,-5.0406,-5.0225,-5.0063,-4.9933,-4.9879,-4.9879,-4.9879,-4.9879,-4.9879,-4.9879,-4.9879,-4.9879,-4.9879,-4.9879,-4.9879,-4.9879,-4.9879,-4.9879,-4.9879,-4.9879,-4.9879,-4.9887,-4.9713,-4.955,-4.9156,-4.9134,-4.8865,-4.8239,-4.8028,-4.769,-4.716,-4.6282,-4.5687,-4.556,-4.5665,-4.5769,-4.5933,-4.6027,-4.6102,-4.6154,-4.6196,-4.6196,-4.6196,-4.6196,-4.6196,-4.6176,-4.6176,-4.6118,-4.5572,-4.5144,-4.5105,-4.5046,-4.4968,-4.5027,-4.5027,-4.5144,-4.5085,-4.4949,-4.5202,-4.5611,-4.5942,-4.6176,-4.6196,-4.5864,-4.5728,-4.5455,-4.5066,-4.5027,-4.489,-4.5066,-4.526,-4.5124,-4.491,-4.4208,-4.3604,-4.3332,-4.2708,-4.1734,-4.1481,-4.15,-4.1325,-4.111,-4.111,-4.111,-4.111,-4.111,-4.111,-4.111,-4.111,-4.111,-4.111,-4.111,-4.111,-4.111,-4.111,-4.111,-4.1013,-4.076,-4.0467,-3.998,-3.9337,-3.8948,-3.8597,-3.8402,-3.8227,-3.8149,-3.8811,-5.123,-5.1161,-5.1117,-5.1011,-5.0859,-5.0863,-5.0642,-5.0317,-5.0272,-5.0125,-4.9959,-4.9879,-4.9879,-4.9879,-4.9879,-4.9879,-4.9879,-4.9879,-4.9879,-4.9879,-4.9879,-4.9879,-4.9879,-4.9879,-4.9879,-4.9879,-4.9879,-4.9879,-4.9906,-4.9906,-4.9986,-5.0089,-4.9575,-4.961,-4.9763,-4.927,-4.8758,-4.879,-4.7818,-4.6848,-4.615,-4.6076,-4.606,-4.6033,-4.6027,-4.6093,-4.6189,-4.6196,-4.6196,-4.6196,-4.6196,-4.6196,-4.6196,-4.6196,-4.6196,-4.6196,-4.5962,-4.5981,-4.5962,-4.5981,-4.6196,-4.6196,-4.6196,-4.5942,-4.5962,-4.5553,-4.5377,-4.6059,-4.6137,-4.6196,-4.6196,-4.6157,-4.6098,-4.6059,-4.602,-4.6157,-4.6157,-4.5923,-4.5806,-4.5709,-4.5514,-4.5319,-4.4812,-4.4501,-4.3643,-4.226,-4.187,-4.189,-4.1578,-4.1227,-4.113,-4.113,-4.111,-4.111,-4.111,-4.111,-4.111,-4.111,-4.111,-4.111,-4.111,-4.111,-4.111,-4.111,-4.111,-4.1013,-4.0779,-4.0409,-4.0039,-3.963,-3.9337,-3.9454,-3.9357,-3.9143,-3.926,-5.1117,-5.1105,-5.1105,-5.0984,-5.0803,-5.0548,-5.0361,-5.0193,-5.0019,-4.9959,-4.9906,-4.9879,-4.9879,-4.9879,-4.9879,-4.9879,-4.9879,-4.9879,-4.9879,-4.9879,-4.9879,-4.9879,-4.9879,-4.9879,-4.9879,-4.9879,-4.9879,-4.9879,-4.9906,-4.9978,-5.0031,-5.0025,-4.9935,-5.0116,-5.0206,-4.9994,-4.9486,-4.9336,-4.8511,-4.7777,-4.7157,-4.6887,-4.6715,-4.6222,-4.6149,-4.6196,-4.6196,-4.6196,-4.6196,-4.6196,-4.6196,-4.6196,-4.6196,-4.6196,-4.6196,-4.6196,-4.6196,-4.6196,-4.6196,-4.6196,-4.6196,-4.6196,-4.6196,-4.6196,-4.6176,-4.6176,-4.6176,-4.6176,-4.6196,-4.6196,-4.6196,-4.6196,-4.6196,-4.6196,-4.6196,-4.6196,-4.6196,-4.6176,-4.6098,-4.6176,-4.604,-4.5767,-4.567,-4.528,-4.4384,-4.302,-4.2416,-4.2416,-4.1753,-4.1383,-4.1208,-4.1149,-4.111,-4.111,-4.111,-4.111,-4.111,-4.111,-4.111,-4.111,-4.111,-4.111,-4.111,-4.111,-4.111,-4.111,-4.1091,-4.0799,-4.0487,-4.0214,-4.0019,-3.9883,-4.0019,-3.998,-4.0195,-5.1211,-5.1169,-5.1117,-5.0956,-5.0756,-5.0736,-5.0527,-5.0217,-5.0217,-5.0076,-4.9879,-4.9879,-4.9879,-4.9879,-4.9879,-4.9879,-4.9879,-4.9879,-4.9879,-4.9879,-4.9879,-4.9879,-4.9879,-4.9879,-4.9879,-4.9879,-4.9879,-4.9906,-4.9978,-5.0012,-5.0169,-5.0264,-5.0355,-5.0399,-5.0466,-5.051,-5.0159,-4.9705,-4.9301,-4.88,-4.8041,-4.7515,-4.7239,-4.6995,-4.6283,-4.6235,-4.6196,-4.6196,-4.6196,-4.6196,-4.6196,-4.6196,-4.6196,-4.6196,-4.6196,-4.6196,-4.6196,-4.6196,-4.6196,-4.6196,-4.6196,-4.6196,-4.6196,-4.6196,-4.6196,-4.6196,-4.6196,-4.6196,-4.6196,-4.6196,-4.6196,-4.6196,-4.6196,-4.6196,-4.6196,-4.6196,-4.6196,-4.6196,-4.6196,-4.6196,-4.6176,-4.604,-4.6001,-4.5962,-4.491,-4.3838,-4.3351,-4.2825,-4.2221,-4.1675,-4.152,-4.1266,-4.1208,-4.111,-4.111,-4.111,-4.111,-4.111,-4.111,-4.111,-4.111,-4.111,-4.111,-4.111,-4.111,-4.111,-4.111,-4.111,-4.0935,-4.0643,-4.0292,-3.998,-4.0234,-4.0623,-4.0857,-5.1201,-5.1109,-5.1056,-5.0883,-5.0682,-5.0717,-5.0508,-5.0169,-5.0197,-5.0125,-4.9879,-4.9879,-4.9879,-4.9879,-4.9879,-4.9879,-4.9879,-4.9879,-4.9879,-4.9879,-4.9879,-4.9879,-4.9879,-4.9879,-4.9879,-4.9906,-4.9925,-4.9978,-4.9986,-5.007,-5.0268,-5.0466,-5.0625,-5.0698,-5.0678,-5.0755,-5.0574,-5.0228,-5.0103,-4.9809,-4.9002,-4.858,-4.8086,-4.7844,-4.7092,-4.6722,-4.6585,-4.6449,-4.6196,-4.6196,-4.6196,-4.6196,-4.6196,-4.6196,-4.6196,-4.6196,-4.6196,-4.6196,-4.6215,-4.6196,-4.6196,-4.6196,-4.6196,-4.6196,-4.6196,-4.6196,-4.6196,-4.6196,-4.6196,-4.6235,-4.6254,-4.6196,-4.6196,-4.6196,-4.6196,-4.6196,-4.6196,-4.6196,-4.6196,-4.6196,-4.6176,-4.6157,-4.6157,-4.6079,-4.5436,-4.4579,-4.4208,-4.3604,-4.2903,-4.2377,-4.1948,-4.1637,-4.1325,-4.1208,-4.111,-4.1188,-4.1227,-4.111,-4.111,-4.111,-4.111,-4.113,-4.111,-4.111,-4.111,-4.111,-4.111,-4.111,-4.111,-4.1071,-4.0721,-4.037,-4.0506,-4.0857,-4.0955,-5.1097,-5.0908,-5.0851,-5.0696,-5.0509,-5.0448,-5.0225,-4.9986,-4.9959,-4.9933,-4.9879,-4.9879,-4.9879,-4.9879,-4.9879,-4.9879,-4.9879,-4.9879,-4.9879,-4.9879,-4.9879,-4.9879,-4.9879,-4.9879,-4.9925,-4.9925,-4.9952,-5.0005,-5.0012,-5.0268,-5.0445,-5.0624,-5.0828,-5.0959,-5.084,-5.0992,-5.1054,-5.1058,-5.1093,-5.0594,-5.0096,-4.9734,-4.9216,-4.869,-4.7735,-4.7228,-4.7111,-4.6507,-4.6235,-4.6196,-4.6196,-4.6196,-4.6196,-4.6196,-4.6196,-4.6196,-4.6196,-4.6215,-4.6254,-4.6235,-4.6293,-4.6235,-4.6196,-4.6196,-4.6196,-4.6196,-4.6332,-4.6449,-4.6429,-4.6391,-4.6313,-4.6293,-4.6371,-4.6352,-4.6391,-4.6196,-4.6196,-4.6196,-4.6196,-4.6196,-4.6196,-4.6196,-4.6196,-4.6098,-4.5728,-4.5241,-4.4968,-4.4403,-4.3682,-4.3254,-4.2864,-4.2377,-4.2026,-4.1948,-4.187,-4.1481,-4.1344,-4.1208,-4.1227,-4.1383,-4.1286,-4.1208,-4.1188,-4.113,-4.111,-4.111,-4.111,-4.111,-4.111,-4.111,-4.111,-4.0935,-4.1033,-4.1033,-4.1091,-5.1074,-5.0945,-5.0764,-5.0548,-5.0387,-5.0385,-5.0272,-5.007,-4.9959,-4.9879,-4.9879,-4.9879,-4.9879,-4.9879,-4.9879,-4.9879,-4.9879,-4.9879,-4.9879,-4.9879,-4.9879,-4.9879,-4.9879,-4.9925,-4.9925,-4.9978,-5.0005,-5.0057,-5.0139,-5.0402,-5.0587,-5.0745,-5.103,-5.1181,-5.1162,-5.121,-5.121,-5.1239,-5.1226,-5.1106,-5.0813,-5.0326,-4.9878,-4.9527,-4.8319,-4.7676,-4.7618,-4.6878,-4.6468,-4.6429,-4.6429,-4.6371,-4.6313,-4.6293,-4.6235,-4.6215,-4.6215,-4.6507,-4.6839,-4.7033,-4.6761,-4.6507,-4.6371,-4.6391,-4.6215,-4.6215,-4.6468,-4.6917,-4.7053,-4.7267,-4.7793,-4.7326,-4.7189,-4.6956,-4.68,-4.6352,-4.6196,-4.6196,-4.6196,-4.6196,-4.6196,-4.6196,-4.6196,-4.6196,-4.5903,-4.5806,-4.5572,-4.5202,-4.4559,-4.4345,-4.4033,-4.3448,-4.3039,-4.2922,-4.2701,-4.2357,-4.2318,-4.2396,-4.2182,-4.1987,-4.1792,-4.1481,-4.1208,-4.1149,-4.113,-4.111,-4.111,-4.111,-4.111,-4.111,-4.111,-4.111,-4.1091,-4.1071,-4.1097,-5.0959,-5.0793,-5.0567,-5.0366,-5.0202,-5.0272,-5.0221,-5.0089,-4.9959,-4.9879,-4.9879,-4.9879,-4.9879,-4.9879,-4.9879,-4.9879,-4.9879,-4.9879,-4.9879,-4.9879,-4.9879,-4.9879,-4.9879,-4.9906,-4.9952,-4.9986,-5.0057,-5.0108,-5.0193,-5.0469,-5.0745,-5.0998,-5.1191,-5.1256,-5.1265,-5.1292,-5.1292,-5.1292,-5.1281,-5.1281,-5.1086,-5.0813,-5.0502,-5.0092,-4.9313,-4.8456,-4.8183,-4.7676,-4.7072,-4.7053,-4.7033,-4.6897,-4.678,-4.6644,-4.6488,-4.6332,-4.6585,-4.6897,-4.7306,-4.7871,-4.7637,-4.7345,-4.7111,-4.6936,-4.6858,-4.7092,-4.7443,-4.7793,-4.791,-4.8241,-4.8592,-4.8086,-4.7852,-4.7618,-4.715,-4.6702,-4.6196,-4.6196,-4.6196,-4.6196,-4.6196,-4.6196,-4.6196,-4.6196,-4.6098,-4.6137,-4.6157,-4.5748,-4.5358,-4.5105,-4.4871,-4.4384,-4.3799,-4.3507,-4.3383,-4.3286,-4.3325,-4.3559,-4.3234,-4.2767,-4.2202,-4.187,-4.152,-4.1169,-4.113,-4.111,-4.111,-4.111,-4.111,-4.111,-4.111,-4.111,-4.111,-4.111,-4.1097,-5.0758,-5.0406,-5.032,-5.0155,-4.9959,-5.0114,-5.0063,-4.9906,-4.9879,-4.9879,-4.9879,-4.9879,-4.9879,-4.9879,-4.9879,-4.9879,-4.9879,-4.9879,-4.9879,-4.9879,-4.9879,-4.9879,-4.9879,-4.9906,-4.9978,-5.0012,-5.0114,-5.0217,-5.0245,-5.0623,-5.0972,-5.1201,-5.1265,-5.13,-5.13,-5.13,-5.13,-5.13,-5.13,-5.13,-5.1203,-5.1222,-5.1067,-5.0735,-5.0131,-4.9644,-4.9313,-4.8865,-4.8573,-4.8514,-4.8592,-4.8164,-4.7832,-4.754,-4.6995,-4.6819,-4.7228,-4.7521,-4.7949,-4.8592,-4.8748,-4.8592,-4.8826,-4.8378,-4.7969,-4.8027,-4.8378,-4.8651,-4.8806,-4.8904,-4.8962,-4.8729,-4.8495,-4.8066,-4.7579,-4.7014,-4.6371,-4.6196,-4.6196,-4.6196,-4.6196,-4.6196,-4.6196,-4.6196,-4.6196,-4.6196,-4.6196,-4.6137,-4.5767,-4.5455,-4.5241,-4.5124,-4.4559,-4.4014,-4.3975,-4.4228,-4.4345,-4.4598,-4.4033,-4.3526,-4.2922,-4.2338,-4.189,-4.1559,-4.1227,-4.111,-4.111,-4.111,-4.111,-4.111,-4.111,-4.111,-4.111,-4.1097,-4.1103,-5.0675,-5.0383,-5.0221,-5.0063,-4.9906,-4.9978,-4.9952,-4.9879,-4.9879,-4.9879,-4.9879,-4.9879,-4.9879,-4.9879,-4.9879,-4.9879,-4.9879,-4.9879,-4.9879,-4.9906,-4.9906,-4.9906,-4.9906,-4.9933,-5.0038,-5.0169,-5.0291,-5.0383,-5.0567,-5.0874,-5.1078,-5.1256,-5.13,-5.13,-5.13,-5.13,-5.13,-5.13,-5.13,-5.13,-5.13,-5.13,-5.13,-5.1067,-5.056,-5.019,-4.9937,-4.9391,-4.904,-4.8923,-4.8845,-4.8573,-4.8514,-4.8417,-4.8164,-4.8144,-4.8397,-4.8651,-4.9177,-4.9508,-4.9664,-4.98,-5.0112,-4.9664,-4.906,-4.8806,-4.9216,-4.9488,-4.9683,-4.9761,-4.98,-4.9625,-4.9118,-4.8475,-4.7871,-4.7092,-4.6488,-4.6196,-4.6196,-4.6196,-4.6196,-4.6196,-4.6196,-4.6196,-4.6196,-4.6196,-4.6196,-4.6196,-4.6137,-4.5806,-4.565,-4.5533,-4.5416,-4.4929,-4.5202,-4.5494,-4.5514,-4.5494,-4.491,-4.4403,-4.3955,-4.3332,-4.2513,-4.1968,-4.1675,-4.1364,-4.111,-4.111,-4.111,-4.111,-4.111,-4.111,-4.111,-4.1097,-4.1109,-5.0529,-5.0313,-5.0139,-5.0005,-4.9925,-4.9879,-4.9879,-4.9879,-4.9879,-4.9879,-4.9879,-4.9879,-4.9879,-4.9879,-4.9879,-4.9879,-4.9879,-4.9879,-4.9879,-4.9906,-4.9986,-5.0012,-5.0038,-5.0095,-5.0225,-5.0361,-5.0469,-5.0548,-5.0761,-5.0945,-5.1161,-5.1292,-5.13,-5.13,-5.13,-5.13,-5.13,-5.13,-5.13,-5.13,-5.13,-5.13,-5.13,-5.1203,-5.0677,-5.056,-5.0443,-4.9859,-4.9781,-4.9781,-4.9781,-4.9566,-4.9333,-4.9021,-4.8787,-4.8748,-4.9118,-4.9391,-4.982,-5.0287,-5.0443,-5.0618,-5.095,-5.0657,-5.0307,-5.0014,-5.0229,-5.0424,-5.0521,-5.0599,-5.0638,-5.0521,-4.9683,-4.8865,-4.8008,-4.7131,-4.6683,-4.6274,-4.6196,-4.6196,-4.6196,-4.6196,-4.6196,-4.6196,-4.6196,-4.6196,-4.6196,-4.6196,-4.6196,-4.6098,-4.6001,-4.5942,-4.6001,-4.5923,-4.6196,-4.6196,-4.6059,-4.5903,-4.5728,-4.526,-4.491,-4.4325,-4.3526,-4.2806,-4.2163,-4.189,-4.1675,-4.1227,-4.111,-4.1208,-4.1266,-4.1188,-4.1169,-4.1103,-4.1109,-5.038,-5.0188,-5.0057,-4.9933,-4.9906,-4.9879,-4.9879,-4.9879,-4.9906,-4.9879,-4.9879,-4.9879,-4.9879,-4.9879,-4.9879,-4.9879,-4.9906,-4.9933,-4.9959,-4.9933,-5.012,-5.0174,-5.0249,-5.0339,-5.0429,-5.0567,-5.0677,-5.0742,-5.087,-5.1054,-5.1211,-5.13,-5.13,-5.13,-5.13,-5.13,-5.13,-5.13,-5.13,-5.13,-5.13,-5.13,-5.13,-5.13,-5.1242,-5.1222,-5.1242,-5.1242,-5.13,-5.1261,-5.1125,-5.0716,-5.017,-4.9625,-4.9294,-4.9333,-4.9859,-5.0092,-5.0404,-5.0794,-5.1067,-5.1183,-5.13,-5.1164,-5.0891,-5.0774,-5.0891,-5.093,-5.0969,-5.0735,-5.0657,-5.0307,-4.9625,-4.8709,-4.7813,-4.7053,-4.6488,-4.6215,-4.6196,-4.6196,-4.6196,-4.6196,-4.6196,-4.6196,-4.6196,-4.6196,-4.6196,-4.6196,-4.6196,-4.6196,-4.6196,-4.6196,-4.6196,-4.6196,-4.6196,-4.6196,-4.6196,-4.6137,-4.6098,-4.5903,-4.5397,-4.4968,-4.4559,-4.3643,-4.274,-4.2611,-4.2357,-4.2046,-4.1818,-4.1753,-4.1714,-4.1383,-4.1253,-4.1259,-4.1103,-5.0399,-5.0133,-4.9978,-4.9925,-4.9879,-4.9879,-4.9879,-4.9906,-4.9952,-4.9959,-4.9906,-4.9906,-4.9879,-4.9879,-4.9879,-4.9906,-4.9933,-5.0044,-5.0133,-5.0193,-5.0291,-5.0406,-5.0429,-5.0509,-5.0622,-5.0778,-5.0884,-5.0966,-5.11,-5.121,-5.1248,-5.1292,-5.13,-5.13,-5.13,-5.13,-5.13,-5.13,-5.13,-5.13,-5.13,-5.13,-5.13,-5.13,-5.13,-5.13,-5.13,-5.13,-5.13,-5.1281,-5.13,-5.1145,-5.0969,-5.0735,-5.0677,-5.0735,-5.0755,-5.0833,-5.093,-5.1106,-5.1261,-5.13,-5.13,-5.13,-5.1281,-5.13,-5.13,-5.13,-5.1145,-5.0813,-5.0443,-4.9995,-4.943,-4.8495,-4.7599,-4.6917,-4.6254,-4.6235,-4.6215,-4.6196,-4.6196,-4.6196,-4.6196,-4.6196,-4.6196,-4.6196,-4.6196,-4.6196,-4.6196,-4.6196,-4.6196,-4.6196,-4.6196,-4.6196,-4.6196,-4.6196,-4.6196,-4.6196,-4.6157,-4.6001,-4.5825,-4.5436,-4.4949,-4.4111,-4.3383,-4.3312,-4.3273,-4.3208,-4.2974,-4.2637,-4.2377,-4.2104,-4.1792,-4.1714,-4.137,-5.0264,-5.0108,-5.0005,-4.9925,-4.9906,-4.9879,-4.9925,-4.9978,-5.007,-5.0125,-5.012,-5.0012,-4.9933,-4.9906,-4.9879,-4.9986,-5.0019,-5.0174,-5.0272,-5.0363,-5.0509,-5.0623,-5.0694,-5.0726,-5.087,-5.1017,-5.1089,-5.1181,-5.1292,-5.13,-5.1292,-5.13,-5.13,-5.13,-5.13,-5.13,-5.13,-5.13,-5.13,-5.13,-5.13,-5.13,-5.13,-5.13,-5.13,-5.13,-5.13,-5.13,-5.13,-5.13,-5.13,-5.13,-5.1222,-5.1164,-5.1222,-5.1222,-5.1222,-5.13,-5.13,-5.13,-5.13,-5.13,-5.13,-5.13,-5.13,-5.13,-5.13,-5.1242,-5.0677,-5.0326,-4.9859,-4.941,-4.869,-4.7813,-4.7131,-4.6488,-4.6254,-4.6215,-4.6196,-4.6196,-4.6196,-4.6196,-4.6196,-4.6196,-4.6196,-4.6196,-4.6196,-4.6196,-4.6196,-4.6196,-4.6196,-4.6196,-4.6196,-4.6196,-4.6196,-4.6196,-4.6196,-4.6196,-4.6196,-4.6118,-4.5981,-4.5748,-4.5299,-4.4773,-4.4384,-4.4189,-4.4157,-4.4046,-4.3695,-4.3234,-4.3059,-4.2929,-4.2591,-4.226,-4.1948,-5.0089,-5.0082,-5.0031,-4.9933,-4.9906,-4.9879,-4.9925,-5.0031,-5.0155,-5.0275,-5.0313,-5.012,-5.0012,-4.9986,-4.9967,-5.007,-5.0221,-5.0406,-5.049,-5.0586,-5.0813,-5.0874,-5.0945,-5.1017,-5.1109,-5.1171,-5.1228,-5.1256,-5.13,-5.13,-5.13,-5.13,-5.13,-5.13,-5.13,-5.13,-5.13,-5.13,-5.13,-5.13,-5.13,-5.13,-5.13,-5.13,-5.13,-5.13,-5.13,-5.13,-5.13,-5.13,-5.13,-5.13,-5.13,-5.13,-5.13,-5.13,-5.13,-5.13,-5.13,-5.13,-5.13,-5.13,-5.13,-5.13,-5.13,-5.13,-5.13,-5.1067,-5.0502,-5.0034,-4.9566,-4.9079,-4.8339,-4.7618,-4.7014,-4.6507,-4.6468,-4.6352,-4.6274,-4.6254,-4.6235,-4.6235,-4.6196,-4.6196,-4.6196,-4.6196,-4.6196,-4.6196,-4.6196,-4.6196,-4.6196,-4.6196,-4.6196,-4.6196,-4.6196,-4.6196,-4.6196,-4.6196,-4.6196,-4.6196,-4.6157,-4.5962,-4.5884,-4.5903,-4.5533,-4.5124,-4.4897,-4.4767,-4.4332,-4.4033,-4.3845,-4.3773,-4.3565,-4.3215,-4.2728,-5.0082,-5.0031,-4.9952,-4.9906,-4.9879,-4.9879,-4.9906,-4.9933,-5.0019,-5.012,-5.0264,-5.0283,-5.0236,-5.023,-5.0275,-5.0339,-5.0363,-5.0586,-5.0764,-5.0859,-5.0992,-5.1074,-5.1139,-5.1161,-5.122,-5.1256,-5.1292,-5.13,-5.13,-5.13,-5.13,-5.13,-5.13,-5.13,-5.13,-5.13,-5.13,-5.13,-5.13,-5.13,-5.13,-5.13,-5.13,-5.13,-5.13,-5.13,-5.13,-5.13,-5.13,-5.13,-5.13,-5.13,-5.13,-5.13,-5.13,-5.13,-5.13,-5.13,-5.13,-5.13,-5.13,-5.13,-5.13,-5.13,-5.13,-5.13,-5.13,-5.13,-5.0833,-5.0482,-5.0053,-4.9703,-4.906,-4.8397,-4.7774,-4.7462,-4.7274,-4.6839,-4.6507,-4.6449,-4.6371,-4.6313,-4.6196,-4.6196,-4.6196,-4.6196,-4.6196,-4.6196,-4.6196,-4.6196,-4.6196,-4.6196,-4.6196,-4.6196,-4.6196,-4.6196,-4.6196,-4.6196,-4.6196,-4.6196,-4.6196,-4.6196,-4.6176,-4.6125,-4.6144,-4.5864,-4.5657,-4.5371,-4.5482,-4.5228,-4.4851,-4.4637,-4.4449,-4.4091,-4.3565]}]]